[[{"header":{"parameterUnit":"m.s-1","parameterCategory":1,"la1":30.6,"la2":29.2853,"lo1":-89.7004,"lo2":-87.6739,"dy":0.0162,"dx":0.0183,"nx":112,"ny":82,"refTime":"2024-02-17T18:00:00:Z","depth":0,"parameterNumber":2,"parameterNumberName":"U-component_of_WINDS"},"data":[0.0,0.0,0.0,0.0,0.0,0.0,0.0,0.0,0.0,0.0,0.0,0.0,0.0,0.0,0.0,0.0,0.0,0.0,0.0,0.0,0.0,0.0,0.0,0.0,0.0,0.0,0.0,0.0,0.0,0.0,0.0,0.0,0.0,0.0,0.0,0.0,0.0,0.0,0.0,0.0,0.0,0.0,0.0,0.0,0.0,0.0,0.0,0.0,0.0,0.0,0.0,0.0,0.0,0.0,0.0,0.0,0.0,0.0,0.0,0.0,0.0,0.0,0.0,0.0,0.0,0.0,0.0,0.0,0.0,0.0,0.0,0.0,0.0,0.0,0.0,0.0,0.0,0.0,0.0,0.0,0.0,0.0,0.0,0.0,0.0,0.0,0.0,0.0,0.0,0.0,-4.0113,-4.0113,-4.0113,-4.0113,-4.0113,-4.0113,-4.0113,-4.0113,0.0,0.0,0.0,0.0,0.0,0.0,0.0,0.0,0.0,0.0,0.0,0.0,0.0,0.0,0.0,0.0,0.0,0.0,0.0,0.0,0.0,0.0,0.0,0.0,0.0,0.0,0.0,0.0,0.0,0.0,0.0,0.0,0.0,0.0,0.0,0.0,0.0,0.0,0.0,0.0,0.0,0.0,0.0,0.0,0.0,0.0,0.0,0.0,0.0,0.0,0.0,0.0,0.0,0.0,0.0,0.0,0.0,0.0,0.0,0.0,0.0,0.0,0.0,0.0,0.0,0.0,0.0,0.0,0.0,0.0,0.0,0.0,0.0,0.0,0.0,0.0,0.0,0.0,0.0,0.0,0.0,0.0,0.0,0.0,0.0,0.0,0.0,0.0,0.0,0.0,0.0,0.0,0.0,0.0,0.0,0.0,0.0,0.0,0.0,0.0,0.0,0.0,0.0,0.0,-4.0113,-4.0113,-4.0113,-4.0113,-4.0113,-4.0113,-4.0113,-4.0113,0.0,0.0,0.0,0.0,0.0,0.0,0.0,0.0,0.0,0.0,0.0,0.0,0.0,0.0,0.0,0.0,0.0,0.0,0.0,0.0,0.0,0.0,0.0,0.0,0.0,0.0,0.0,0.0,0.0,0.0,0.0,0.0,0.0,0.0,0.0,0.0,0.0,0.0,0.0,0.0,0.0,0.0,0.0,0.0,0.0,0.0,0.0,0.0,0.0,0.0,0.0,0.0,0.0,0.0,0.0,0.0,0.0,0.0,0.0,0.0,0.0,0.0,0.0,0.0,0.0,0.0,0.0,0.0,0.0,0.0,0.0,0.0,0.0,0.0,0.0,0.0,0.0,0.0,0.0,0.0,0.0,0.0,0.0,0.0,0.0,0.0,0.0,0.0,0.0,0.0,0.0,0.0,0.0,0.0,0.0,0.0,0.0,0.0,0.0,0.0,0.0,0.0,0.0,-4.0113,-4.0113,-4.0113,-4.0113,-4.0113,-4.0113,-4.0113,-4.0113,-4.0113,-4.0113,0.0,0.0,0.0,0.0,0.0,0.0,0.0,0.0,0.0,0.0,0.0,0.0,0.0,0.0,0.0,0.0,0.0,0.0,0.0,0.0,0.0,0.0,0.0,0.0,0.0,0.0,0.0,0.0,0.0,0.0,0.0,0.0,0.0,0.0,0.0,0.0,0.0,0.0,0.0,0.0,0.0,0.0,0.0,0.0,0.0,0.0,0.0,0.0,0.0,0.0,0.0,0.0,0.0,0.0,0.0,0.0,0.0,0.0,0.0,0.0,0.0,0.0,0.0,0.0,0.0,0.0,0.0,0.0,0.0,0.0,0.0,0.0,0.0,0.0,0.0,0.0,0.0,0.0,0.0,0.0,0.0,0.0,0.0,0.0,0.0,0.0,0.0,0.0,0.0,0.0,0.0,0.0,0.0,0.0,0.0,0.0,0.0,0.0,0.0,0.0,0.0,0.0,-4.0214,-4.0113,-4.0113,-4.0113,-4.0113,-4.0113,-4.0113,-4.0113,-4.0113,-4.0113,0.0,0.0,0.0,0.0,0.0,0.0,0.0,0.0,0.0,0.0,0.0,0.0,0.0,0.0,0.0,0.0,0.0,0.0,0.0,0.0,0.0,0.0,0.0,0.0,0.0,0.0,0.0,0.0,0.0,0.0,0.0,0.0,0.0,0.0,0.0,0.0,0.0,0.0,0.0,0.0,0.0,0.0,0.0,0.0,0.0,0.0,0.0,0.0,0.0,0.0,0.0,0.0,0.0,0.0,0.0,0.0,0.0,0.0,0.0,0.0,0.0,0.0,0.0,0.0,0.0,0.0,0.0,0.0,0.0,0.0,0.0,0.0,0.0,0.0,0.0,0.0,0.0,0.0,0.0,0.0,0.0,0.0,0.0,0.0,0.0,0.0,0.0,0.0,0.0,0.0,0.0,0.0,0.0,0.0,0.0,0.0,0.0,0.0,0.0,0.0,0.0,0.0,-4.0493,-4.0113,-4.0113,-4.0113,-4.0113,-4.0113,-4.0113,-4.0113,-4.0113,-4.0113,0.0,0.0,0.0,0.0,0.0,0.0,0.0,0.0,0.0,0.0,0.0,0.0,0.0,0.0,0.0,0.0,0.0,0.0,0.0,0.0,0.0,0.0,0.0,0.0,0.0,0.0,0.0,0.0,0.0,0.0,0.0,0.0,0.0,0.0,0.0,0.0,0.0,0.0,0.0,0.0,0.0,0.0,0.0,0.0,0.0,0.0,0.0,0.0,0.0,0.0,0.0,0.0,0.0,0.0,0.0,0.0,0.0,0.0,0.0,0.0,0.0,0.0,0.0,0.0,0.0,0.0,0.0,0.0,0.0,0.0,0.0,0.0,0.0,0.0,0.0,0.0,0.0,0.0,0.0,0.0,0.0,0.0,0.0,0.0,0.0,0.0,0.0,0.0,0.0,0.0,0.0,0.0,0.0,0.0,0.0,0.0,0.0,0.0,0.0,0.0,0.0,0.0,-4.1644,-4.1467,-4.1467,-4.1467,-4.1271,-4.0832,-4.0798,-4.0595,-4.0146,0.0,0.0,0.0,0.0,0.0,0.0,0.0,0.0,0.0,0.0,0.0,0.0,0.0,0.0,0.0,0.0,0.0,0.0,0.0,0.0,0.0,0.0,0.0,0.0,0.0,0.0,0.0,0.0,0.0,0.0,0.0,0.0,0.0,0.0,0.0,0.0,0.0,0.0,0.0,0.0,0.0,0.0,0.0,0.0,0.0,0.0,0.0,0.0,0.0,0.0,0.0,0.0,0.0,0.0,0.0,0.0,0.0,0.0,0.0,0.0,0.0,0.0,0.0,0.0,0.0,0.0,0.0,0.0,0.0,0.0,0.0,0.0,0.0,0.0,0.0,0.0,0.0,0.0,0.0,0.0,0.0,0.0,0.0,0.0,0.0,0.0,0.0,0.0,0.0,0.0,0.0,0.0,0.0,0.0,0.0,0.0,0.0,0.0,0.0,0.0,0.0,0.0,-4.2598,-4.2422,-4.2286,-4.2286,-4.2286,-4.2083,-4.1576,-4.1339,-4.1102,-4.0823,0.0,0.0,0.0,0.0,0.0,0.0,0.0,0.0,0.0,0.0,0.0,0.0,0.0,0.0,0.0,0.0,0.0,0.0,0.0,0.0,0.0,0.0,0.0,0.0,0.0,0.0,0.0,0.0,0.0,0.0,0.0,0.0,0.0,0.0,0.0,0.0,0.0,0.0,0.0,0.0,0.0,0.0,0.0,0.0,0.0,0.0,0.0,0.0,0.0,0.0,0.0,0.0,0.0,0.0,0.0,0.0,0.0,0.0,0.0,0.0,0.0,0.0,0.0,0.0,0.0,0.0,0.0,0.0,0.0,0.0,0.0,0.0,0.0,0.0,0.0,0.0,0.0,0.0,0.0,0.0,0.0,0.0,0.0,0.0,0.0,0.0,0.0,0.0,0.0,0.0,0.0,0.0,0.0,0.0,0.0,0.0,0.0,0.0,0.0,0.0,0.0,0.0,-4.3225,-4.2794,-4.232,-4.232,-4.232,-4.232,-4.2286,-4.1644,-4.1542,0.0,0.0,0.0,0.0,0.0,0.0,0.0,0.0,0.0,0.0,0.0,0.0,0.0,0.0,0.0,0.0,0.0,0.0,0.0,0.0,0.0,0.0,0.0,0.0,0.0,0.0,0.0,0.0,0.0,0.0,0.0,0.0,0.0,0.0,0.0,0.0,0.0,0.0,0.0,0.0,0.0,0.0,0.0,0.0,0.0,0.0,0.0,0.0,0.0,0.0,0.0,0.0,0.0,0.0,0.0,0.0,0.0,0.0,0.0,0.0,0.0,0.0,0.0,0.0,0.0,0.0,0.0,0.0,0.0,0.0,0.0,0.0,0.0,0.0,0.0,0.0,0.0,0.0,0.0,0.0,0.0,0.0,0.0,0.0,0.0,0.0,0.0,0.0,0.0,0.0,0.0,0.0,0.0,0.0,0.0,0.0,0.0,0.0,0.0,0.0,0.0,0.0,0.0,-4.4187,-4.4073,-4.3938,-4.3938,-4.3938,-4.3673,-4.3132,-4.2895,-4.2625,-4.232,0.0,0.0,0.0,0.0,0.0,0.0,0.0,0.0,0.0,0.0,0.0,0.0,0.0,0.0,0.0,0.0,0.0,0.0,0.0,0.0,0.0,0.0,0.0,0.0,0.0,0.0,0.0,0.0,0.0,0.0,0.0,0.0,0.0,0.0,0.0,0.0,0.0,0.0,0.0,0.0,0.0,0.0,0.0,0.0,0.0,0.0,0.0,0.0,0.0,0.0,0.0,0.0,0.0,0.0,0.0,0.0,0.0,0.0,0.0,0.0,0.0,0.0,0.0,0.0,0.0,0.0,0.0,0.0,0.0,0.0,0.0,0.0,0.0,0.0,0.0,0.0,0.0,0.0,0.0,0.0,0.0,0.0,0.0,0.0,0.0,0.0,0.0,0.0,0.0,0.0,0.0,0.0,0.0,0.0,0.0,0.0,0.0,0.0,0.0,0.0,0.0,0.0,-4.4064,-4.4384,-4.4615,-4.4615,-4.4615,-4.4412,-4.391,-4.3606,-4.3369,-4.3234,0.0,0.0,0.0,0.0,0.0,0.0,0.0,0.0,0.0,0.0,0.0,0.0,0.0,0.0,0.0,0.0,0.0,0.0,0.0,0.0,0.0,0.0,0.0,0.0,0.0,0.0,0.0,0.0,0.0,0.0,0.0,0.0,0.0,0.0,0.0,0.0,0.0,0.0,0.0,0.0,0.0,0.0,0.0,0.0,0.0,0.0,0.0,0.0,0.0,0.0,0.0,0.0,0.0,0.0,0.0,0.0,0.0,0.0,0.0,0.0,0.0,0.0,0.0,0.0,0.0,0.0,0.0,0.0,0.0,0.0,0.0,0.0,0.0,0.0,0.0,0.0,0.0,0.0,0.0,0.0,0.0,0.0,0.0,0.0,0.0,0.0,0.0,0.0,0.0,0.0,0.0,0.0,0.0,0.0,0.0,0.0,0.0,0.0,0.0,0.0,0.0,0.0,-4.3443,-4.4093,-4.4615,-4.4615,-4.4615,-4.4615,-4.4615,-4.3944,-4.3809,-4.4547,0.0,0.0,0.0,0.0,0.0,0.0,0.0,0.0,0.0,0.0,0.0,0.0,0.0,0.0,0.0,0.0,0.0,0.0,0.0,0.0,0.0,0.0,0.0,0.0,0.0,0.0,0.0,0.0,0.0,0.0,0.0,0.0,0.0,0.0,0.0,0.0,0.0,0.0,0.0,0.0,0.0,0.0,0.0,0.0,0.0,0.0,0.0,0.0,0.0,0.0,0.0,0.0,0.0,0.0,0.0,0.0,0.0,0.0,0.0,0.0,-4.394,-4.3519,0.0,0.0,0.0,0.0,0.0,0.0,0.0,0.0,0.0,0.0,0.0,0.0,0.0,0.0,0.0,0.0,0.0,0.0,0.0,0.0,0.0,0.0,0.0,0.0,0.0,0.0,0.0,0.0,0.0,0.0,0.0,0.0,0.0,0.0,0.0,0.0,0.0,0.0,0.0,0.0,-4.4327,-4.4468,-4.4615,-4.4615,-4.4615,-4.4615,-4.4615,-4.4445,-4.4445,-4.4581,-4.3707,0.0,0.0,0.0,0.0,0.0,0.0,0.0,0.0,0.0,0.0,0.0,0.0,0.0,0.0,0.0,0.0,0.0,0.0,0.0,0.0,0.0,0.0,0.0,0.0,0.0,0.0,0.0,0.0,0.0,0.0,0.0,0.0,0.0,0.0,0.0,0.0,0.0,0.0,0.0,0.0,0.0,0.0,0.0,0.0,0.0,0.0,0.0,0.0,0.0,0.0,0.0,0.0,0.0,0.0,0.0,0.0,0.0,0.0,0.0,-4.4615,-4.435,0.0,0.0,0.0,0.0,0.0,0.0,0.0,0.0,0.0,0.0,0.0,0.0,0.0,0.0,0.0,0.0,0.0,0.0,0.0,0.0,0.0,0.0,0.0,0.0,0.0,0.0,0.0,0.0,0.0,0.0,0.0,0.0,0.0,0.0,0.0,0.0,0.0,0.0,0.0,0.0,-4.4035,-4.4355,-4.4615,-4.4615,-4.4615,-4.4615,-4.4615,-4.4615,-4.4615,-4.4615,-4.4215,0.0,0.0,0.0,0.0,0.0,0.0,0.0,0.0,0.0,0.0,0.0,0.0,0.0,0.0,0.0,0.0,0.0,0.0,0.0,0.0,0.0,0.0,0.0,0.0,0.0,0.0,0.0,0.0,0.0,0.0,0.0,0.0,0.0,0.0,0.0,0.0,0.0,0.0,0.0,0.0,0.0,0.0,0.0,0.0,0.0,0.0,0.0,0.0,0.0,0.0,0.0,0.0,0.0,-4.4615,-4.4615,-4.4615,-4.4615,-4.4615,-4.4615,-4.4615,-4.4615,-4.4615,-4.4615,0.0,0.0,0.0,0.0,0.0,0.0,0.0,0.0,0.0,0.0,0.0,0.0,0.0,0.0,0.0,0.0,0.0,0.0,0.0,0.0,0.0,0.0,0.0,0.0,-4.3606,-4.344,-4.2836,0.0,0.0,0.0,0.0,0.0,0.0,0.0,0.0,0.0,0.0,0.0,-4.3621,-4.415,-4.4615,-4.4615,-4.4615,-4.4615,-4.4615,-4.4615,-4.4615,-4.4615,-4.4615,-4.4282,0.0,0.0,0.0,0.0,0.0,0.0,0.0,0.0,0.0,0.0,0.0,0.0,0.0,0.0,0.0,0.0,0.0,0.0,0.0,0.0,0.0,0.0,0.0,0.0,0.0,0.0,0.0,0.0,0.0,0.0,0.0,0.0,-4.0113,-4.0113,0.0,0.0,0.0,0.0,0.0,0.0,0.0,0.0,0.0,0.0,0.0,0.0,0.0,-4.4615,-4.4615,-4.4615,-4.4615,-4.4615,-4.4615,-4.4615,-4.4615,-4.4615,-4.4615,-4.4615,-4.4615,0.0,-4.4615,-4.4615,0.0,0.0,0.0,0.0,0.0,0.0,0.0,0.0,0.0,0.0,0.0,0.0,0.0,0.0,0.0,0.0,0.0,0.0,0.0,0.0,0.0,0.0,-4.336,-4.4248,-4.4445,-4.4418,0.0,-4.4305,-4.4107,-4.341,-4.3919,0.0,0.0,0.0,0.0,0.0,0.0,0.0,-4.444,-4.4525,-4.4615,-4.4615,-4.4615,-4.4615,-4.4615,-4.4615,-4.4615,-4.4615,-4.4615,-4.4547,-4.4445,-4.3775,0.0,0.0,0.0,0.0,0.0,0.0,0.0,0.0,0.0,0.0,0.0,0.0,0.0,0.0,0.0,0.0,0.0,0.0,0.0,0.0,0.0,0.0,0.0,0.0,0.0,0.0,0.0,0.0,0.0,-4.0113,-4.0248,-4.0663,-4.1001,-4.1542,0.0,0.0,0.0,0.0,0.0,0.0,0.0,0.0,0.0,-4.4615,-4.4615,-4.4818,-4.5196,-4.5196,-4.5432,-4.5867,-4.5867,-4.5867,-4.5867,-4.5867,-4.5867,-4.5805,-4.5399,-4.5196,-4.5196,-4.4784,-4.4615,-4.4615,0.0,0.0,0.0,0.0,-4.4181,-4.359,-4.359,-4.2924,-4.1915,-4.1459,0.0,0.0,0.0,0.0,0.0,0.0,0.0,0.0,0.0,0.0,-4.4147,-4.4513,-4.4615,-4.4615,-4.4615,-4.4615,-4.4468,0.0,-4.3948,-4.4035,-4.453,0.0,0.0,0.0,0.0,-4.4615,-4.4615,-4.4615,-4.4615,-4.4615,-4.4615,-4.4615,-4.4615,-4.4615,-4.4615,-4.4615,-4.4615,-4.4615,-4.4615,-4.4248,-4.3707,0.0,0.0,0.0,0.0,0.0,0.0,0.0,0.0,0.0,0.0,0.0,0.0,0.0,0.0,0.0,0.0,0.0,0.0,0.0,0.0,0.0,0.0,0.0,0.0,0.0,0.0,0.0,0.0,-4.0383,-4.0663,-4.1407,-4.1644,-4.2192,0.0,0.0,0.0,0.0,0.0,0.0,-4.4615,-4.4784,-4.4857,-4.4857,-4.5089,-4.5432,-4.5974,-4.5974,-4.6244,-4.6786,-4.6786,-4.6786,-4.6786,-4.6786,-4.6786,-4.6752,-4.621,-4.5974,-4.5906,-4.4959,-4.4615,-4.4615,-4.4615,-4.4615,-4.4615,-4.4615,-4.4615,-4.4615,-4.4615,-4.444,-4.415,-4.3502,-4.2957,-4.2565,-4.2637,0.0,0.0,0.0,0.0,-4.3768,-4.4412,-4.4615,-4.4615,-4.4615,-4.4615,-4.4615,-4.4615,-4.4615,-4.4615,0.0,-4.4064,-4.386,-4.4468,0.0,0.0,0.0,-4.4615,-4.4615,-4.4615,-4.4615,-4.4615,-4.4615,-4.4615,-4.4615,-4.4615,-4.4615,-4.4615,-4.4615,-4.4615,-4.4615,-4.4615,-4.4615,-4.4215,-4.3409,0.0,0.0,0.0,0.0,0.0,0.0,0.0,0.0,0.0,0.0,0.0,0.0,0.0,0.0,0.0,0.0,0.0,0.0,0.0,0.0,0.0,0.0,0.0,0.0,0.0,0.0,0.0,0.0,0.0,-4.2151,-4.2861,0.0,0.0,0.0,0.0,-4.4615,-4.4615,-4.4615,-4.4615,-4.5263,-4.5635,-4.5635,-4.6312,-4.6718,-4.6718,-4.6718,-4.6752,-4.6786,-4.6786,-4.6786,-4.6786,-4.6786,-4.6786,-4.6786,-4.6752,-4.6718,-4.6616,-4.519,-4.4615,-4.4615,-4.4615,-4.4615,-4.4615,-4.4615,-4.4615,-4.4615,-4.4615,-4.4064,-4.3383,-4.329,-4.329,-4.3406,-4.4207,-4.4468,0.0,0.0,-4.4525,-4.4525,-4.4587,-4.4615,-4.4615,-4.4615,-4.4615,-4.4615,-4.4615,-4.4615,-4.4615,0.0,-4.4587,-4.4559,-4.4615,0.0,-4.4559,-4.4615,-4.4615,-4.4615,-4.4615,-4.4615,-4.4615,-4.4615,-4.4615,-4.4615,-4.4615,-4.4615,-4.4615,-4.4615,-4.4615,-4.4615,-4.4615,-4.4615,-4.4215,-4.3409,-4.3341,0.0,0.0,0.0,0.0,0.0,0.0,0.0,0.0,0.0,0.0,0.0,0.0,0.0,0.0,0.0,0.0,0.0,0.0,0.0,0.0,0.0,0.0,0.0,0.0,0.0,0.0,0.0,0.0,-4.2929,-4.324,0.0,-4.4113,-4.4418,-4.4615,-4.4615,-4.5026,-4.5297,-4.5297,-4.6007,-4.6413,-4.6413,-4.7124,-4.7733,-4.8206,-4.868,-4.9154,-4.9627,-4.9627,-4.9627,-4.9627,-4.9627,-4.9357,-4.8883,-4.8409,-4.7936,-4.7428,-4.6413,-4.6007,-4.594,-4.55,-4.5297,-4.5229,-4.4784,-4.4615,-4.4615,-4.4615,-4.4384,-4.4121,-4.4121,-4.4121,-4.4179,-4.453,-4.4615,-4.4615,-4.4615,-4.4925,-4.5297,-4.5297,-4.5635,-4.6007,-4.6007,-4.6007,-4.6007,-4.6007,-4.6007,-4.6007,-4.6007,-4.5258,-4.4615,-4.4615,-4.4615,-4.4615,-4.4615,-4.4615,-4.4615,-4.4615,-4.4615,-4.4615,-4.4615,-4.4615,-4.4615,-4.4615,-4.4615,-4.4615,-4.4615,-4.4615,-4.4615,-4.4615,-4.4615,-4.4479,-4.4181,-4.3673,-4.3274,0.0,0.0,0.0,0.0,0.0,0.0,0.0,0.0,0.0,0.0,0.0,0.0,0.0,0.0,0.0,0.0,0.0,0.0,0.0,0.0,0.0,0.0,0.0,0.0,0.0,-4.2354,-4.2963,-4.3707,-4.4045,-4.4384,-4.4925,-4.5224,-4.5359,-4.5359,-4.5771,-4.6177,-4.6447,-4.7158,-4.7665,-4.7902,-4.8646,-4.9255,-4.9763,-5.0236,-5.071,-5.1185,-5.1185,-5.1185,-5.1185,-5.1185,-5.0947,-5.0439,-4.9965,-4.9458,-4.8984,-4.8206,-4.7902,-4.7767,-4.6549,-4.6075,-4.6007,-4.55,-4.5359,-4.5359,-4.5359,-4.5359,-4.5359,-4.5359,-4.5359,-4.5359,-4.5359,-4.5359,-4.5359,-4.5359,-4.5669,-4.6075,-4.6075,-4.6413,-4.6786,-4.6786,-4.6786,-4.6786,-4.6786,-4.6786,-4.6786,-4.6786,-4.6036,-4.5359,-4.5359,-4.5359,-4.5359,-4.5359,-4.5359,-4.5359,-4.5359,-4.5359,-4.5359,-4.5359,-4.5359,-4.5258,-4.4993,-4.4959,-4.4857,-4.4615,-4.4615,-4.4615,-4.4615,-4.4615,-4.4615,-4.4615,-4.4079,-4.3673,-4.3375,0.0,0.0,0.0,0.0,0.0,0.0,0.0,0.0,0.0,0.0,0.0,0.0,0.0,0.0,0.0,0.0,0.0,0.0,0.0,0.0,0.0,0.0,0.0,-4.3375,-4.3409,-4.3741,-4.4547,-4.5263,-4.5703,-4.5737,-4.638,-4.6819,-4.6819,-4.6853,-4.7192,-4.7906,-4.868,-4.939,-5.0101,-5.0845,-5.1219,-5.1219,-5.1285,-5.1252,-5.1252,-5.1252,-5.1252,-5.1252,-5.1252,-5.1285,-5.1219,-5.1219,-5.1219,-5.115,-5.0439,-5.0135,-4.9898,-4.7699,-4.6819,-4.6819,-4.6819,-4.6786,-4.6786,-4.6786,-4.6786,-4.6786,-4.6786,-4.6786,-4.6786,-4.6786,-4.6786,-4.6786,-4.6786,-4.6819,-4.6819,-4.6819,-4.6853,-4.6853,-4.6853,-4.6853,-4.6853,-4.6853,-4.6853,-4.6853,-4.6853,-4.6853,-4.6853,-4.6786,-4.6786,-4.6786,-4.6786,-4.6786,0.0,-4.6786,-4.6786,-4.6786,-4.6786,-4.6786,-4.6515,-4.5805,-4.5737,-4.5432,-4.4682,-4.4649,-4.4615,-4.4615,-4.4615,-4.4615,-4.4615,-4.4615,-4.4215,-4.3443,0.0,0.0,0.0,0.0,0.0,0.0,0.0,0.0,0.0,0.0,0.0,0.0,0.0,0.0,0.0,0.0,0.0,0.0,0.0,0.0,0.0,-4.3274,-4.3375,-4.3375,-4.391,-4.4553,-4.5297,-4.5568,-4.5906,-4.6447,-4.6684,-4.7022,-4.7564,-4.8105,-4.8714,-4.9458,-5.0202,-5.071,-5.0913,-5.1623,-5.1995,-5.1995,-5.257,-5.2875,-5.2875,-5.2875,-5.2875,-5.2875,-5.2875,-5.257,-5.1995,-5.1995,-5.1691,-5.1151,-5.098,-5.0913,-5.0676,-4.8477,-4.7597,-4.753,-4.6989,-4.6786,-4.6786,-4.6786,-4.6786,-4.6786,-4.6786,-4.6786,-4.6786,-4.6786,-4.6786,-4.6786,-4.6786,-4.7192,-4.7597,-4.7597,-4.8003,-4.8409,-4.8409,-4.8409,-4.8409,-4.8409,-4.8409,-4.8409,-4.8409,-4.8409,-4.8071,-4.6989,-4.6786,-4.6786,-4.6786,-4.6786,0.0,-4.6786,-4.6786,-4.6786,-4.6786,-4.6786,-4.6718,-4.6515,-4.6481,-4.6177,-4.5432,-4.5399,-4.5162,-4.4615,-4.4615,-4.4615,-4.4615,-4.4615,-4.4513,0.0,0.0,0.0,0.0,0.0,0.0,0.0,0.0,0.0,0.0,0.0,0.0,0.0,0.0,0.0,0.0,0.0,0.0,0.0,0.0,0.0,0.0,-4.4181,-4.4384,-4.4384,-4.4756,-4.5331,-4.6075,-4.6718,-4.7259,-4.7665,-4.8274,-4.8815,-4.9224,-4.9695,-5.0236,-5.098,-5.142,-5.1826,-5.2164,-5.257,-5.2807,-5.2807,-5.3281,-5.3518,-5.3518,-5.3518,-5.3518,-5.3518,-5.3518,-5.3247,-5.2807,-5.2807,-5.257,-5.2164,-5.1826,-5.1657,0.0,0.0,0.0,0.0,0.0,-4.7699,-4.7699,-4.7699,-4.7699,-4.7699,-4.7699,-4.7699,-4.7699,-4.7699,-4.7699,-4.7699,-4.7699,-4.8037,-4.8376,-4.8376,-4.868,-4.9018,-4.9018,-4.9018,-4.9018,-4.9018,-4.9018,-4.9018,-4.9018,-4.9018,0.0,-4.7868,-4.7699,-4.7699,-4.7699,-4.7699,-4.7699,-4.7699,-4.7699,-4.7699,-4.7699,-4.7699,-4.7597,-4.7293,-4.7259,0.0,0.0,0.0,-4.5838,-4.5094,-4.506,0.0,0.0,0.0,-4.4615,-4.4615,0.0,0.0,0.0,-4.2591,-4.1863,0.0,0.0,0.0,0.0,0.0,0.0,0.0,0.0,0.0,0.0,0.0,0.0,0.0,0.0,0.0,0.0,-4.5263,-4.5771,-4.594,-4.6041,-4.6312,-4.6955,-4.8206,-4.9086,-4.9221,-5.0439,-5.1219,-5.1319,-5.132,-5.1657,-5.2401,-5.2435,0.0,0.0,0.0,-5.3518,-5.3518,-5.3518,-5.3518,-5.3518,-5.3518,-5.3518,-5.3518,-5.3518,-5.3518,-5.3518,-5.3518,-5.3518,-5.345,-5.2739,-5.2435,-5.2367,-5.1522,-5.0811,-5.0135,-4.9492,-4.9255,-4.9255,-4.9154,0.0,0.0,-4.9018,-4.9018,-4.9018,-4.9018,-4.9018,-4.9018,-4.9018,-4.9052,-4.912,-4.912,-4.912,-4.912,-4.912,-4.9052,-4.9018,-4.9018,-4.9018,-4.9018,-4.9018,-4.9018,-4.9018,-4.9018,-4.9018,-4.9018,-4.9018,-4.9018,-4.9018,-4.9018,-4.9018,-4.9018,-4.9018,0.0,0.0,-4.8075,-4.8007,-4.7733,-4.6955,-4.6853,-4.6515,-4.5838,-4.5838,-4.55,-4.4852,-4.4852,-4.4818,-4.4716,-4.4716,-4.4716,-4.4716,-4.3261,-4.2489,0.0,0.0,0.0,0.0,0.0,0.0,0.0,0.0,0.0,0.0,0.0,0.0,0.0,0.0,0.0,-4.5365,-4.5602,-4.6143,-4.7297,-4.8003,-4.8409,-4.8545,-4.8849,-4.9492,-5.0676,-5.1016,-5.1454,-5.2063,-5.2097,-5.2435,-5.3247,-5.3281,-5.3348,-5.3518,-5.3518,-5.3518,-5.3518,-5.3518,-5.3518,-5.3518,0.0,0.0,-5.3518,-5.3518,-5.3518,-5.3518,-5.3518,-5.3518,-5.3484,-5.3348,-5.3281,-5.3145,-5.1758,-5.1116,-5.098,-5.0845,-5.0745,-5.071,-5.0101,-4.9864,-4.9796,-4.9187,-4.9018,-4.9018,-4.9018,-4.9018,0.0,-4.9018,-4.9424,-4.9864,-4.9864,-4.9864,-4.9864,-4.9864,-4.9424,-4.9018,-4.9018,-4.9018,-4.9018,-4.9018,-4.9018,-4.9018,-4.9018,-4.9018,-4.9018,-4.9018,-4.9018,-4.9018,-4.9018,-4.9018,-4.9018,-4.9018,-4.9018,-4.8951,-4.8815,-4.8781,-4.8477,-4.7733,-4.7124,-4.6718,-4.6583,-4.6583,-4.6515,-4.638,-4.6346,-4.6075,-4.55,-4.55,-4.55,-4.5466,-4.4581,-4.3809,0.0,0.0,0.0,0.0,0.0,0.0,0.0,0.0,0.0,0.0,0.0,-4.4113,-4.4547,0.0,-4.5263,-4.5635,-4.6346,-4.7192,-4.8308,-4.9086,-4.956,-4.956,-5.0202,-5.0947,-5.1691,-5.2131,-5.2503,-5.2875,-5.2909,-5.3078,-5.3484,-5.3518,-5.3518,-5.3518,-5.3518,-5.3687,-5.4059,-5.3687,-5.3687,-5.4059,-5.3687,-5.3518,-5.3518,-5.3518,-5.3518,-5.3518,-5.3518,-5.3518,-5.3518,-5.3518,-5.3518,-5.3416,-5.2672,-5.2097,-5.1725,-5.1352,-5.1185,-5.1151,-5.0777,-5.0642,-5.0608,-5.0236,-5.0101,-5.0101,-5.0101,-5.0101,-5.0101,-5.0101,-5.0371,-5.0642,-5.0642,-5.0642,-5.0642,-5.0642,-5.0371,-5.0101,-5.0101,-5.0101,-4.9999,-4.9627,-4.956,-4.9424,-4.9052,-4.9018,-4.9018,-4.9018,-4.9018,-4.9018,-4.9018,-4.9018,-4.9018,-4.9018,-4.9018,-4.9018,-4.9018,-4.9018,-4.8849,-4.8477,-4.8105,-4.7733,-4.7361,-4.7361,-4.7192,-4.6786,-4.6786,-4.6616,-4.6244,-4.6244,-4.6244,-4.6244,-4.5872,-4.5466,0.0,0.0,0.0,0.0,0.0,0.0,0.0,-4.4012,-4.4615,-4.4615,-4.4615,-4.4649,-4.4818,-4.5297,-4.5805,-4.6075,-4.7229,-4.8376,-4.912,-4.9965,-5.0507,-5.0507,-5.1589,-5.2367,-5.2536,-5.3112,-5.3518,-5.3518,-5.3518,-5.3518,-5.3518,-5.3518,-5.3585,-5.3721,-5.3721,-5.4059,-5.4803,-5.4228,-5.4228,-5.4803,-5.4059,-5.3721,-5.3721,-5.3585,-5.3518,-5.3518,-5.3518,-5.3518,-5.3518,-5.3518,-5.3518,-5.3518,-5.3518,-5.3112,-5.2469,-5.1894,-5.1657,-5.1623,-5.1488,-5.1388,-5.1386,-5.1219,-5.1185,-5.1185,-5.1185,-5.1185,-5.1185,-5.1185,-5.1286,-5.1388,-5.1388,-5.1388,-5.1388,-5.1388,-5.1286,-5.1185,-5.1185,-5.1185,-5.1048,-5.0439,-5.0304,-5.0101,-4.9526,-4.9424,-4.9323,-4.9052,-4.9018,-4.9018,-4.9018,-4.9018,-4.9018,-4.9018,-4.9018,-4.9018,-4.9018,-4.9018,-4.9018,-4.9018,-4.9018,-4.8748,-4.8142,-4.8108,-4.7834,-4.7225,-4.7225,-4.7158,-4.7022,-4.7022,-4.7022,-4.7022,-4.7022,-4.6921,-4.2083,-4.3193,-4.3944,-4.3335,-4.3809,-4.4282,0.0,-4.4012,-4.4615,-4.4615,-4.4615,-4.4818,-4.5466,-4.5635,-4.6143,-4.7432,-4.8342,-4.912,-4.9864,-5.1183,-5.2063,-5.2063,-5.2198,-5.257,-5.3315,-5.345,-5.3518,-5.3518,-5.3518,-5.3518,-5.3518,-5.3518,-5.3788,-5.4465,-5.4465,-5.4837,-5.5581,-5.5513,-5.5513,-5.5581,-5.4837,-5.4465,-5.4431,-5.3788,-5.3518,-5.3518,-5.3518,-5.3518,-5.3518,-5.3518,-5.3518,-5.3518,-5.3518,-5.345,-5.3382,-5.3281,-5.3247,-5.3145,-5.2435,-5.2198,-5.2063,-5.1388,-5.1185,-5.1185,-5.1185,-5.1185,-5.1185,-5.1185,-5.1691,-5.2198,-5.2198,-5.2198,-5.2198,-5.2198,-5.1691,-5.1185,-5.1185,-5.1185,-5.1183,-5.1116,-5.1082,-5.1082,-5.098,-5.098,-5.0507,-4.9221,-4.9018,-4.9018,-4.9018,-4.9018,-4.9018,-4.9018,-4.9018,-4.9018,-4.9018,-4.9018,-4.9018,-4.9018,-4.9018,-4.8951,-4.8883,-4.8883,-4.8849,-4.8748,-4.8748,-4.8443,-4.78,-4.78,-4.78,-4.78,-4.78,-4.7428,-4.1441,-4.3098,-4.4412,-4.3606,-4.4012,-4.4513,-4.4181,-4.435,-4.4615,-4.4615,-4.4925,-4.5331,-4.5635,-4.6413,-4.7162,-4.7804,-4.8883,-4.9898,-5.0642,-5.1657,-5.2469,-5.2942,-5.301,-5.3145,-5.3484,-5.3518,-5.3518,-5.3518,-5.3518,-5.3518,-5.3518,-5.3923,-5.4262,-5.4566,-5.5006,-5.5581,-5.6325,-5.5919,-5.5919,-5.6325,-5.5581,-5.5006,-5.4566,-5.4262,-5.3923,-5.3518,-5.3518,-5.3518,-5.3518,-5.3518,-5.3518,-5.3518,-5.3518,-5.3518,-5.3518,-5.3518,-5.3518,-5.345,-5.3112,-5.301,-5.2942,-5.2638,-5.2536,-5.2536,-5.2536,-5.2536,-5.2536,-5.2536,-5.2773,-5.301,-5.301,-5.301,-5.301,-5.301,-5.2773,-5.2536,-5.2536,-5.2536,-5.2401,-5.1928,-5.186,-5.1725,-5.1252,-5.1185,-5.0982,-5.0371,-5.0304,-5.0135,-4.9695,-4.9627,-4.9492,-4.9052,-4.9018,-4.9018,-4.9018,-4.9018,-4.9018,-4.9018,-4.9018,-4.9018,-4.9018,-4.9018,-4.9018,-4.9018,-4.9018,-4.8849,-4.8545,-4.8545,-4.8545,-4.8545,-4.8545,-4.8376,-4.1542,-4.2997,-4.4181,-4.3809,-4.4147,-4.4615,-4.4615,-4.4615,-4.4615,-4.4615,-4.5196,-4.5771,-4.5974,-4.7056,-4.7973,-4.8142,-4.9255,-5.0338,-5.1116,-5.1826,-5.2604,-5.3416,-5.3518,-5.3518,-5.3518,-5.3518,-5.3518,-5.3518,-5.3518,-5.3518,-5.3518,-5.4194,-5.4668,-5.4905,-5.5615,-5.6359,-5.7103,-5.6562,-5.6562,-5.7103,-5.6359,-5.5716,-5.5175,-5.4769,-5.4194,-5.3518,-5.3518,-5.3518,-5.3518,-5.3518,-5.3518,-5.3518,-5.3518,-5.3518,-5.3518,-5.3518,-5.3518,-5.3518,-5.3518,-5.3518,-5.3518,-5.3518,-5.3518,-5.3518,-5.3518,-5.3518,-5.3518,-5.3518,-5.3518,-5.3518,-5.3518,-5.3518,-5.3518,-5.3518,-5.3518,-5.3518,-5.3518,-5.3518,-5.3348,-5.2739,-5.2638,-5.2469,-5.1928,-5.186,-5.186,-5.186,-5.186,-5.1488,-5.0541,-5.0405,-5.0202,-4.9661,-4.9627,-4.9526,-4.9323,-4.9289,-4.9221,-4.9018,-4.9018,-4.9018,-4.9018,-4.9018,-4.9018,-4.9018,-4.9018,-4.9018,-4.9018,-4.9018,-4.9018,-4.9018,-4.9018,-4.9018,-4.2936,-4.3375,-4.3639,-4.435,-4.4581,-4.4615,-4.4615,-4.4615,-4.4615,-4.4615,-4.5196,-4.594,-4.6616,-4.7394,-4.8108,-4.8849,-4.9593,-5.0338,-5.1116,-5.1826,-5.2604,-5.3416,-5.3518,-5.3518,-5.3518,-5.3518,-5.3518,-5.3518,-5.3518,-5.3518,-5.3518,-5.4194,-5.4938,-5.5649,-5.6393,-5.7103,-5.7848,-5.7814,-5.7814,-5.7848,-5.7103,-5.6765,-5.6697,-5.5243,-5.4194,-5.3518,-5.3518,-5.3518,-5.3518,-5.3518,-5.3518,-5.3518,-5.3518,-5.3518,-5.3518,-5.3518,-5.3518,-5.3518,-5.3518,-5.3518,-5.3518,-5.3518,-5.3518,-5.3518,-5.3518,-5.3518,-5.3518,-5.3518,-5.3518,-5.3518,-5.3518,-5.3518,-5.3518,-5.3518,-5.3518,-5.3518,-5.3518,-5.3518,-5.3484,-5.3484,-5.345,-5.345,-5.345,-5.345,-5.345,-5.345,-5.345,-5.2875,-5.1386,-5.1183,-5.1183,-5.115,-5.1117,-5.0845,-5.0135,-5.0067,-4.9763,-4.9052,-4.9018,-4.9018,-4.9018,-4.9018,-4.9018,-4.9018,-4.9018,-4.9018,-4.9018,-4.9018,-4.9018,-4.9018,-4.9018,-4.9018,-4.2523,-4.3403,-4.4248,-4.4547,-4.4615,-4.4615,-4.4615,-4.4615,-4.4615,-4.4615,-4.5196,-4.594,-4.665,-4.7394,-4.8142,-4.8883,-4.9627,-5.0338,-5.1116,-5.1826,-5.2604,-5.3416,-5.3518,-5.3518,-5.3518,-5.3518,-5.3518,-5.3518,-5.3518,-5.3721,-5.4194,-5.4938,-5.5683,-5.6427,-5.7137,-5.7645,-5.7881,-5.7881,-5.7881,-5.7881,-5.7137,-5.6799,-5.6765,-5.5784,-5.4938,-5.4228,-5.4228,-5.3957,-5.3518,-5.3518,-5.3518,-5.3518,-5.3518,-5.3518,-5.3518,-5.3518,-5.3518,-5.3518,-5.3518,-5.3518,-5.3518,-5.3518,-5.3518,-5.3518,-5.3518,-5.3518,-5.3518,-5.3518,-5.3518,-5.3518,-5.3518,-5.3518,-5.3518,-5.3518,-5.3518,-5.3518,-5.3518,-5.3518,-5.3518,-5.3518,-5.3518,-5.3518,-5.3518,-5.3518,-5.3518,-5.3518,-5.3044,-5.2536,-5.1995,-5.1522,-5.1185,-5.1185,-5.1185,-5.1083,-5.0845,-5.0845,-5.0744,-5.0507,-5.0473,-5.0473,-5.0473,-5.0473,-5.0473,-5.0473,-5.0473,-5.0236,-4.9729,-4.9729,-4.9492,-4.9018,-4.9018,-4.9255,-4.2557,-4.3403,-4.4215,-4.4547,-4.4615,-4.4615,-4.4615,-4.4615,-4.4615,-4.4615,-4.5196,-4.5838,-4.6312,-4.7225,-4.8071,-4.8545,-4.9221,-4.9965,-5.071,-5.1454,-5.2198,-5.2976,-5.3315,-5.3518,-5.3518,-5.3518,-5.3518,-5.3518,-5.3518,-5.3822,-5.4566,-5.531,-5.6055,-5.6799,-5.7509,-5.7881,-5.7881,-5.7881,-5.7881,-5.7881,-5.7408,-5.707,-5.6799,-5.6325,-5.5683,-5.5006,-5.5006,-5.4735,-5.4296,-5.4296,-5.4296,-5.4262,-5.3991,-5.389,-5.3856,-5.3585,-5.3518,-5.3518,-5.3518,-5.3518,-5.3518,-5.3518,-5.3518,-5.3518,-5.3518,-5.3518,-5.3518,-5.3518,-5.3518,-5.3518,-5.3518,-5.3518,-5.3518,-5.3518,-5.3518,-5.3518,-5.3518,-5.3518,-5.3518,-5.3518,-5.3518,-5.3518,-5.3518,-5.3518,-5.3518,-5.3518,-5.3078,-5.2739,-5.2739,-5.2334,-5.2029,-5.2029,-5.2029,-5.1928,-5.1623,-5.1589,-5.1488,-5.1219,-5.1185,-5.1185,-5.1185,-5.1185,-5.1185,-5.1185,-5.1185,-5.098,-5.0473,-5.0473,-5.027,-4.9796,-4.9796,-5.0033,-4.3003,-4.3409,-4.3639,-4.4412,-4.4615,-4.4615,-4.4615,-4.4615,-4.4615,-4.4615,-4.5162,-4.5669,-4.5703,-4.6824,-4.7804,-4.7872,-4.8511,-4.9221,-4.9965,-5.0744,-5.1488,-5.2198,-5.301,-5.3518,-5.3518,-5.3518,-5.3518,-5.3518,0.0,-5.3856,-5.46,-5.5344,-5.6055,-5.6833,-5.7543,-5.7881,-5.7881,-5.7881,-5.7881,-5.7881,-5.7881,-5.7509,-5.6867,-5.6867,-5.6461,-5.5784,-5.5784,-5.5715,-5.5681,-5.5681,-5.5681,-5.5614,-5.4938,-5.4668,-5.4566,-5.3822,-5.3551,-5.3551,-5.3518,-5.3518,-5.3518,-5.3518,-5.3518,-5.3518,-5.3518,-5.3518,-5.3518,-5.3518,-5.3518,-5.3518,-5.3518,-5.3518,-5.3518,-5.3518,-5.3518,-5.3518,-5.3518,-5.3518,-5.3518,-5.3518,-5.3518,-5.3518,-5.3518,-5.3518,-5.3518,-5.3518,-5.3518,-5.3518,-5.3518,-5.3518,-5.3518,-5.3518,-5.3518,-5.3179,-5.2435,-5.2367,-5.2063,-5.1386,-5.132,-5.132,-5.132,-5.132,-5.132,-5.132,-5.132,-5.1319,-5.1285,-5.1285,-5.1251,-5.1185,-5.1185,-5.1219,-4.3274,-4.3842,-4.4316,-4.4547,-4.4615,-4.4615,-4.4615,-4.4615,-4.4615,-4.4615,-4.475,-4.5026,-4.5602,-4.6007,-4.6616,-4.7703,-4.8041,-4.8646,-4.9898,-5.0744,-5.1488,-5.2198,-5.301,-5.3518,-5.3518,-5.3518,-5.3518,-5.3518,-5.3518,-5.4059,-5.5344,-5.5615,-5.6292,-5.7577,-5.778,-5.7881,-5.7881,-5.7881,-5.7881,-5.7881,-5.7881,-5.778,-5.7611,-5.7611,-5.7205,-5.6528,-5.6528,-5.6224,-5.5681,-5.5681,-5.5681,-5.5647,-5.5513,-5.5446,-5.5344,-5.46,-5.4329,-5.4228,-5.3687,-5.3518,-5.3518,-5.3518,-5.3518,-5.3518,-5.3518,-5.3518,-5.3518,-5.3518,-5.3518,-5.3518,-5.3518,-5.3518,-5.3518,-5.3518,-5.3518,-5.3518,-5.3518,-5.3518,-5.3518,-5.3518,-5.3518,-5.3518,-5.3518,-5.3518,-5.3518,-5.3518,-5.3518,-5.3518,-5.3518,-5.3518,-5.3518,-5.3518,-5.3518,-5.3416,-5.3213,-5.3179,-5.3112,-5.2942,-5.2909,-5.2909,-5.2909,-5.2909,-5.2909,-5.2909,-5.2909,-5.2638,-5.2029,-5.2029,-5.1758,-5.1185,-5.1185,-5.1488,-4.3842,-4.4248,-4.4615,-4.4615,-4.4615,-4.4615,-4.4615,-4.4615,-4.4615,-4.4615,-4.4615,-4.475,-4.5128,-4.5466,-4.6075,-4.7225,-4.7669,-4.8308,-4.9458,-5.0541,-5.1352,-5.1792,-5.2807,-5.3518,-5.3518,-5.3518,-5.3518,-5.3518,-5.3518,-5.416,-5.5649,-5.5681,-5.6393,-5.7848,-5.7881,-5.7881,-5.7881,-5.7881,-5.7881,-5.7881,-5.7881,-5.7881,-5.7881,-5.7881,-5.7679,-5.7273,0.0,-5.7036,-5.6664,-5.6664,-5.6664,-5.663,-5.6325,-5.619,-5.6089,-5.5344,-5.5074,-5.5006,-5.4634,-5.4465,-5.4363,-5.3721,-5.3518,-5.3518,-5.3518,-5.3518,-5.3518,-5.3518,-5.3518,-5.3518,-5.3518,-5.3518,-5.3518,-5.3518,-5.3518,-5.3518,-5.3518,-5.3518,-5.3518,-5.3518,-5.3518,-5.3518,-5.3518,-5.3518,-5.3518,-5.3518,-5.3518,-5.3518,-5.3518,-5.3518,-5.3518,-5.3518,-5.3518,-5.3518,-5.3518,-5.3518,-5.3518,-5.3518,-5.3518,-5.3518,-5.3518,-5.3518,-5.3518,-5.3518,-5.3518,-5.3281,-5.2841,-5.2841,-5.2604,-5.2232,-5.2232,-5.2435,-4.4384,-4.4615,-4.4615,-4.4615,-4.4615,-4.4615,-4.4615,-4.4615,-4.4615,-4.4615,-4.4615,-4.4649,-4.475,-4.5263,-4.5974,-4.6819,-4.7496,-4.8173,-4.8917,-5.027,-5.1185,-5.1185,-5.257,-5.3518,-5.3518,-5.3518,-5.3518,-5.3518,-5.3585,-5.4262,-5.5614,-5.5818,-5.6494,-5.7848,-5.7881,-5.7881,-5.7881,-5.7881,-5.7881,-5.7881,-5.7881,-5.7881,-5.7881,-5.7881,-5.7881,-5.7881,-5.7881,-5.7881,-5.7881,-5.7881,-5.7881,-5.7814,-5.7205,-5.6934,-5.6867,-5.6122,-5.5852,-5.5852,-5.5715,-5.5681,-5.5478,-5.4228,-5.3788,-5.3788,-5.3788,-5.3788,-5.3788,-5.3788,-5.3788,-5.3788,-5.3788,-5.3721,-5.3653,-5.3653,-5.3585,-5.3518,-5.3518,-5.3518,-5.3518,-5.3518,-5.3518,-5.3518,-5.3518,-5.3518,-5.3518,-5.3518,-5.3518,-5.3518,-5.3518,-5.3518,-5.3518,-5.3518,-5.3518,-5.3518,-5.3518,-5.3518,-5.3518,-5.3518,-5.3518,-5.3518,-5.3518,-5.3518,-5.3518,-5.3518,-5.3518,-5.3518,-5.3518,-5.3518,-5.3518,-5.3518,-5.3518,-5.3518,-4.4581,-4.4615,-4.4615,-4.4615,-4.4615,-4.4615,-4.4615,-4.4615,-4.4615,-4.4615,-4.4615,-4.4818,-4.5399,-4.5602,-4.6143,-4.7496,-4.7804,-4.8173,-4.8917,-5.027,-5.1185,-5.1185,-5.257,-5.3518,-5.3518,-5.3518,-5.3518,-5.3518,-5.4059,-5.4803,-5.5683,-5.6292,-5.7002,-5.7848,-5.7881,-5.7881,-5.7881,-5.7881,-5.7881,-5.7881,-5.7881,-5.7881,-5.7881,-5.7881,-5.7881,-5.7881,-5.7881,0.0,-5.7881,-5.7881,-5.7881,-5.7881,-5.7746,-5.7712,-5.7611,-5.6867,-5.663,-5.6528,-5.5919,-5.5681,-5.5647,-5.5412,-5.5344,-5.5344,-5.5344,-5.5344,-5.5344,-5.5344,-5.5344,-5.5344,-5.5344,-5.4871,-5.4397,-5.4397,-5.3923,-5.3518,-5.3518,-5.3518,-5.3518,-5.3518,-5.3518,-5.3518,-5.3518,-5.3518,-5.3518,-5.3518,-5.3518,-5.3518,-5.3518,-5.3518,-5.3518,-5.3518,-5.3518,-5.3518,-5.3518,-5.3518,-5.3518,-5.3518,-5.3518,-5.3518,-5.3518,-5.3518,-5.3518,-5.3518,-5.3518,-5.3518,-5.3518,-5.3518,-5.3518,-5.3518,-5.3518,-5.3518,-4.4615,-4.4615,-4.4615,-4.4615,-4.4615,-4.4615,-4.4615,-4.4615,-4.4615,-4.4615,-4.4615,-4.4852,-4.5568,-4.5703,-4.6177,-4.7635,-4.7906,-4.8173,-4.8917,-4.9932,-5.0777,-5.1151,-5.2198,-5.3044,-5.345,-5.3518,-5.3518,-5.3518,-5.4532,-5.5344,-5.5647,-5.6765,-5.7509,-5.7881,-5.7881,-5.7881,-5.7881,-5.7881,-5.7881,-5.7881,-5.7881,-5.7881,-5.7881,-5.7881,-5.7881,-5.7881,-5.7881,-5.7881,-5.7881,-5.7881,-5.7881,-5.7881,-5.7881,-5.7881,-5.7848,-5.7476,-5.7374,-5.7306,-5.6968,-5.6833,-5.6833,-5.6833,-5.6325,-5.5681,-5.5681,-5.5681,-5.5681,-5.5681,-5.5681,-5.5681,-5.5681,-5.5446,-5.5074,-5.4668,-5.4025,-5.3518,-5.3518,-5.3518,-5.3518,-5.3518,-5.3518,-5.3518,-5.3518,-5.3518,-5.3518,-5.3518,-5.3518,-5.3518,-5.3518,-5.3518,-5.3518,-5.3518,-5.3518,-5.3518,-5.3518,-5.3518,-5.3518,-5.3518,-5.3518,-5.3518,-5.3518,-5.3518,-5.3518,-5.3518,-5.3518,-5.3518,-5.3518,-5.3518,-5.3518,-5.3518,-5.3518,-5.3518,-4.4615,-4.4615,-4.4615,-4.4615,-4.4615,-4.4615,-4.4615,-4.4615,-4.4615,-4.4615,-4.475,-4.506,-4.5805,-4.6075,-4.6616,-4.7936,-4.8142,-4.8342,-4.8917,-4.9627,-5.0371,-5.1116,-5.186,-5.2604,-5.3416,-5.3518,-5.3518,-5.3518,-5.4871,-5.5817,-5.6156,-5.7273,-5.7881,-5.7881,-5.7881,-5.7881,-5.7881,-5.7881,-5.7881,-5.7881,-5.7881,-5.7881,-5.7881,-5.7881,-5.7881,-5.7881,-5.7881,-5.7881,-5.7881,-5.7881,-5.7881,-5.7881,-5.7881,-5.7881,-5.7881,-5.7881,-5.7881,-5.7881,-5.7881,-5.7881,-5.7881,-5.7881,-5.7103,-5.619,-5.619,-5.619,-5.619,-5.619,-5.619,-5.619,-5.619,-5.6055,-5.5716,-5.4803,-5.416,-5.3687,-5.3551,-5.3518,-5.3518,-5.3518,-5.3518,-5.3518,-5.3518,-5.3518,-5.3518,-5.3518,-5.3518,-5.3518,-5.3518,-5.3518,-5.3518,-5.3518,-5.3518,-5.3518,-5.3518,-5.3518,-5.3518,-5.3518,-5.3518,-5.3518,-5.3518,-5.3518,-5.3518,-5.3518,-5.3518,-5.3518,-5.3518,-5.3518,-5.3518,-5.3518,-5.3518,-5.3518,-4.4615,-4.4615,-4.4615,-4.4615,-4.4615,-4.4615,-4.4615,-4.4615,-4.4615,-4.4615,-4.5128,-4.5838,-4.6549,-4.7259,-4.7939,-4.8781,-4.8917,-4.8917,-4.8984,-4.9627,-5.0371,-5.1116,-5.186,-5.2604,-5.3416,-5.3518,-5.3518,-5.3518,-5.4871,-5.6292,-5.7611,-5.7814,-5.7881,-5.7881,-5.7881,-5.7881,-5.7881,-5.7881,-5.7881,-5.7881,-5.7881,-5.7881,-5.7881,-5.7881,-5.7881,-5.7881,-5.7881,-5.7881,0.0,-5.7881,-5.7881,-5.7881,-5.7881,-5.7881,-5.7881,-5.7881,-5.7881,-5.7881,-5.7881,-5.7881,-5.7881,-5.7881,-5.7814,-5.7679,-5.7679,-5.7679,-5.7679,-5.7679,-5.7679,-5.7679,-5.7679,-5.7205,-5.6325,-5.4938,-5.4532,-5.4296,-5.3653,-5.3518,-5.3518,-5.3518,-5.3518,-5.3518,-5.3518,-5.3518,-5.3518,-5.3518,-5.3518,-5.3518,-5.3518,-5.3518,-5.3518,-5.3518,-5.3518,-5.3518,-5.3518,-5.3518,-5.3518,-5.3518,-5.3518,-5.3518,-5.3518,-5.3518,-5.3518,-5.3518,-5.3518,-5.3518,-5.3518,-5.3518,-5.3518,-5.3518,-5.3518,-5.3518,-4.4615,-4.4615,-4.4615,-4.4615,-4.4615,-4.4615,-4.4615,-4.4615,-4.4615,-4.4615,-4.5196,-4.594,-4.665,-4.7394,-4.8142,-4.8883,0.0,0.0,-4.9018,-4.9255,-4.9864,-5.105,-5.1488,-5.2131,-5.3382,-5.3518,-5.3687,-5.4126,-5.5141,-5.6156,-5.7171,-5.7645,-5.7881,-5.7881,-5.7881,-5.7881,-5.7881,-5.7881,-5.7881,-5.7881,-5.7881,-5.7881,-5.7881,-5.7881,-5.7881,-5.7881,-5.7881,-5.7881,0.0,-5.7881,-5.7881,-5.7881,-5.7881,-5.7881,-5.7881,-5.7881,-5.7881,-5.7881,-5.7881,-5.7881,-5.7881,-5.7881,-5.7881,-5.7881,-5.7881,-5.7881,-5.7881,-5.7881,-5.7881,-5.7881,-5.7881,-5.734,-5.6664,-5.6055,-5.5581,-5.5074,-5.4329,-5.416,-5.4025,-5.3585,-5.3518,-5.3518,-5.3518,-5.3518,-5.3518,-5.3518,-5.3518,-5.3518,-5.3518,-5.3518,-5.3518,-5.3518,-5.3518,-5.3518,-5.3518,-5.3518,-5.3518,-5.3518,-5.3518,-5.3518,-5.3518,-5.3518,-5.3518,-5.3518,-5.3518,-5.3518,-5.3518,-5.3518,-5.3518,-5.345,-5.2835,-5.2557,-4.4615,-4.4615,-4.4615,-4.4615,-4.4615,-4.4615,-4.4615,-4.4615,-4.4615,-4.4615,-4.5365,-4.6177,-4.6684,-4.7597,-4.8409,0.0,0.0,-4.9018,-4.9018,-4.9018,-4.956,-5.1016,-5.1185,-5.1826,-5.3348,-5.3518,-5.3822,-5.4532,-5.5074,-5.5784,-5.6765,-5.7273,-5.7679,-5.7881,-5.7881,-5.7881,-5.7881,-5.7881,-5.7881,-5.7881,-5.7881,-5.7881,-5.7881,-5.7881,-5.7881,-5.7881,-5.7881,-5.7881,0.0,-5.7881,-5.7881,-5.7881,-5.7881,-5.7881,-5.7881,-5.7881,-5.7881,-5.7881,-5.7881,-5.7881,-5.7881,-5.7881,-5.7881,-5.7881,-5.7881,-5.7881,-5.7881,-5.7881,-5.7881,-5.7881,-5.7881,-5.7509,-5.707,-5.6867,-5.6393,-5.5818,-5.5074,-5.4735,-5.4431,-5.3923,-5.3653,-5.3518,-5.3518,-5.3518,-5.3518,-5.3518,-5.3518,-5.3518,-5.3518,-5.3518,-5.3518,-5.3518,-5.3518,-5.3518,-5.3518,-5.3518,-5.3518,-5.3518,-5.3518,-5.3518,-5.3518,-5.3518,-5.3518,-5.3518,-5.3518,-5.3518,-5.3518,-5.3518,-5.3518,-5.345,-5.2383,-5.174,-4.4615,-4.4615,-4.4615,-4.4615,-4.4615,-4.4615,-4.4615,-4.4615,-4.4615,-4.4615,-4.5799,-4.6786,-4.6786,-4.8003,-4.8984,-4.9018,0.0,0.0,-4.9018,-4.9018,-4.956,-5.1016,-5.1185,-5.1826,-5.3348,-5.3518,-5.3822,-5.4532,-5.46,0.0,-5.6731,-5.6799,-5.7137,-5.7881,-5.7881,-5.7881,-5.7881,-5.7881,-5.7881,-5.7881,-5.7881,-5.7881,-5.7881,-5.7881,-5.7881,-5.7881,-5.7881,-5.7881,0.0,-5.7881,-5.7881,-5.7881,-5.7881,-5.7881,-5.7881,-5.7881,-5.7881,-5.7881,-5.7881,-5.7881,-5.7881,-5.7881,-5.7881,-5.7881,-5.7881,-5.7881,-5.7881,-5.7881,-5.7881,-5.7881,-5.7881,-5.7881,-5.7679,-5.6968,-5.6799,-5.6596,-5.5852,-5.5108,-5.46,-5.4566,-5.3991,-5.3518,-5.3518,-5.3518,-5.3518,-5.3518,-5.3518,-5.3518,-5.3518,-5.3518,-5.3518,-5.3518,-5.3518,-5.3518,-5.3518,-5.3518,-5.3518,-5.3518,-5.3518,-5.3518,-5.3518,-5.3518,-5.3518,-5.3518,-5.3518,-5.3518,-5.3518,-5.3518,-5.3518,-5.345,-5.2383,-5.1377,-4.4615,-4.4615,-4.4615,-4.4615,-4.4615,-4.4615,-4.4615,-4.4615,-4.475,-4.5229,-4.6109,-4.6955,-4.7462,-4.8342,-4.9018,-4.9018,0.0,0.0,0.0,-4.9018,-4.9357,-5.0338,-5.1352,-5.2367,-5.3416,-5.3518,-5.3585,-5.3822,-5.4296,-5.4803,-5.5277,-5.6258,-5.7137,-5.7881,-5.7881,-5.7881,-5.7881,-5.7881,-5.7881,-5.7881,-5.7881,-5.7881,-5.7881,-5.7881,-5.7881,-5.7881,-5.7881,-5.7881,0.0,-5.7881,-5.7881,-5.7881,-5.7881,-5.7881,-5.7881,-5.7881,-5.7881,-5.7881,-5.7881,-5.7881,-5.7881,-5.7881,-5.7881,-5.7881,-5.7881,-5.7881,-5.7881,-5.7881,-5.7881,-5.7881,-5.7881,-5.7881,-5.7814,-5.7611,-5.7543,-5.734,-5.663,-5.6258,-5.5953,-5.5446,-5.4769,-5.4262,-5.4262,-5.3822,-5.3518,-5.3518,-5.3518,-5.3518,-5.3518,-5.3518,-5.3518,-5.3518,-5.3518,-5.3518,-5.3518,-5.3518,-5.3518,-5.3518,-5.3518,-5.3518,-5.3518,-5.3518,-5.3518,-5.3518,-5.3518,-5.3518,-5.3518,-5.3518,-5.2765,-5.1373,-5.0249,-4.9215,-4.4615,-4.4615,-4.4615,-4.4615,-4.4615,-4.4615,-4.4615,-4.4615,-4.4818,-4.5534,-4.6278,-4.7022,-4.7736,-4.8511,-4.9018,-4.9018,-4.9018,0.0,-4.9018,-4.9018,-4.939,-5.0405,-5.1589,-5.2604,-5.3416,-5.3518,-5.3518,-5.3518,-5.3923,-5.4296,-5.4566,-5.548,-5.6325,-5.7036,-5.7611,-5.7881,-5.7881,-5.7881,-5.7881,-5.7881,-5.7881,-5.7881,-5.7881,-5.7881,-5.7881,-5.7881,-5.7881,-5.7881,0.0,-5.7881,-5.7881,-5.7881,-5.7881,-5.7881,-5.7881,-5.7881,-5.7881,-5.7881,-5.7881,-5.7881,-5.7881,-5.7881,-5.7881,-5.7881,-5.7881,-5.7881,-5.7881,-5.7881,-5.7881,-5.7881,-5.7881,-5.7881,-5.7881,-5.7881,-5.7881,-5.7746,-5.7306,-5.7002,-5.6664,-5.6224,-5.5513,-5.4938,-5.4634,-5.4228,-5.3822,-5.3551,-5.3518,-5.3518,-5.3518,-5.3518,-5.3518,-5.3518,-5.3518,-5.3518,-5.3518,-5.3518,-5.3518,-5.3518,-5.3518,-5.3518,-5.3518,-5.3518,-5.3518,-5.3518,-5.3518,-5.3314,-5.2904,-5.2904,-5.2158,-5.0742,-5.0073,-4.916,0.0,-4.4615,-4.4615,-4.4615,-4.4615,-4.4615,-4.4615,-4.4615,0.0,-4.5635,-4.6312,-4.7022,-4.7804,-4.8545,-4.9018,-4.9018,-4.9018,-4.9018,-4.9018,-4.9052,-4.9627,-5.1016,-5.186,-5.2604,-5.3416,-5.3518,-5.3518,-5.3518,-5.3518,-5.3788,-5.4465,-5.4566,-5.4905,-5.5615,-5.7002,-5.7746,-5.7814,-5.7848,-5.7881,-5.7881,-5.7881,-5.7881,-5.7881,-5.7881,-5.7881,0.0,-5.7881,0.0,0.0,-5.7881,-5.7881,-5.7881,-5.7881,-5.7881,-5.7881,-5.7881,-5.7881,-5.7881,-5.7881,-5.7881,-5.7881,-5.7881,-5.7881,-5.7881,-5.7881,-5.7881,-5.7881,-5.7881,-5.7881,-5.7881,-5.7881,-5.7881,-5.7881,-5.7881,-5.7881,-5.7881,-5.7881,-5.734,-5.6867,-5.6867,-5.6292,-5.5581,-5.4871,-5.4668,-5.4363,-5.3687,-5.3551,-5.3518,-5.3518,-5.3518,-5.3518,-5.3518,-5.3518,-5.3518,-5.3518,-5.3518,-5.3518,-5.3518,-5.3518,-5.3518,-5.3518,-5.3518,-5.3518,-5.3518,-5.3416,-5.2904,-5.1921,-5.1809,-5.1615,-5.1295,-5.1248,-5.0559,-4.4615,0.0,-4.4615,-4.4615,-4.4615,-4.4615,0.0,-4.4615,0.0,0.0,0.0,0.0,0.0,0.0,-4.9018,-4.9018,-4.9018,-4.9018,-4.9018,-4.9492,-5.0168,-5.1116,-5.186,-5.2604,-5.3416,-5.3518,-5.3518,-5.3518,-5.3518,-5.3585,-5.3754,-5.4296,-5.4668,-5.4837,-5.575,-5.6494,-5.7036,-5.7611,-5.7881,-5.7881,-5.7881,-5.7881,-5.7881,-5.7881,-5.7881,-5.7881,-5.7881,0.0,-5.7881,-5.7881,-5.7881,-5.7881,-5.7881,-5.7881,-5.7881,-5.7881,-5.7881,-5.7881,-5.7881,-5.7881,-5.7881,-5.7881,-5.7881,-5.7881,-5.7881,-5.7881,-5.7881,-5.7881,-5.7881,-5.7881,-5.7881,-5.7881,-5.7881,-5.7881,-5.7881,-5.7881,-5.7881,-5.7746,-5.7645,-5.7645,-5.7036,-5.6494,-5.6325,-5.5344,-5.4532,-5.4363,-5.3856,-5.3518,-5.3518,-5.3518,-5.3518,-5.3518,-5.3518,-5.3518,-5.3518,-5.3518,-5.3518,-5.3518,-5.3518,-5.3518,-5.3518,-5.3518,-5.3518,-5.3518,-5.2697,-5.2137,-5.1885,-5.0831,-5.0222,-5.0164,-4.991,-4.9609,-4.4615,-4.4615,-4.4615,-4.4615,-4.4615,-4.4615,-4.4615,0.0,0.0,0.0,0.0,0.0,0.0,-4.9018,-4.9018,-4.9018,-4.9018,-4.9018,-4.9018,-4.9627,-5.0371,-5.1116,-5.186,-5.2604,0.0,-5.3518,-5.3518,-5.3518,-5.3518,-5.3518,-5.3518,-5.389,-5.4093,-5.4093,-5.4803,-5.5547,-5.6292,-5.7036,-5.7408,-5.7408,-5.7712,-5.7881,-5.7881,-5.7881,-5.7881,-5.7881,-5.7881,0.0,-5.7881,-5.7881,-5.7881,-5.7881,-5.7881,-5.7881,-5.7881,-5.7881,-5.7881,-5.7881,-5.7881,-5.7881,-5.7881,-5.7881,-5.7881,-5.7881,-5.7881,-5.7881,-5.7881,-5.7881,-5.7881,-5.7881,-5.7881,-5.7881,-5.7881,-5.7881,-5.7881,-5.7881,-5.7881,-5.7881,-5.7881,-5.7881,-5.7577,-5.7205,-5.6867,-5.6122,-5.5378,-5.4702,-5.4262,-5.389,-5.3551,-5.3518,-5.3518,-5.3518,-5.3518,-5.3518,-5.3518,-5.3518,-5.3518,-5.3518,-5.3518,-5.3518,-5.3518,-5.3518,-5.3518,-5.3518,-5.199,-5.1577,-5.2379,-5.0635,-5.0131,-5.0708,-5.0533,-5.0321,-4.4615,-4.4615,-4.4615,-4.4615,-4.4615,-4.4615,-4.4615,0.0,0.0,0.0,0.0,0.0,0.0,-4.9018,-4.9018,-4.9018,-4.9018,-4.9018,-4.9018,-4.9729,-5.0507,-5.115,-5.1961,-5.2739,-5.345,-5.3518,-5.3518,-5.3518,-5.3518,-5.3518,-5.3518,-5.3518,-5.3518,-5.3518,-5.4093,-5.4735,-5.5378,-5.6224,-5.663,-5.663,-5.7374,-5.7712,-5.7712,-5.7848,-5.7881,-5.7881,0.0,0.0,-5.7881,-5.7881,-5.7881,-5.7881,-5.7881,-5.7881,-5.7881,-5.7881,-5.7881,-5.7881,-5.7881,-5.7881,-5.7881,-5.7881,-5.7881,-5.7881,-5.7881,-5.7881,-5.7881,-5.7881,-5.7881,-5.7881,-5.7881,-5.7881,-5.7881,-5.7881,-5.7881,-5.7881,-5.7881,-5.7881,-5.7881,-5.7881,-5.7881,-5.7679,-5.707,-5.6867,-5.6393,-5.5108,-5.4837,-5.4499,-5.3754,-5.3687,-5.3619,-5.3518,-5.3518,-5.3518,-5.3518,-5.3518,-5.3518,-5.3518,-5.3518,-5.3518,-5.3518,-5.3518,-5.3518,-5.3518,-5.1447,-5.1134,-5.2679,-5.0709,-5.0371,-5.1546,-5.1638,-5.1545,-4.4615,-4.4615,-4.4615,-4.4615,-4.4615,-4.4615,-4.4615,0.0,0.0,0.0,0.0,0.0,0.0,-4.9018,-4.9018,-4.9018,-4.9018,-4.9018,-4.9018,-5.0168,-5.1082,-5.1217,-5.2469,-5.3382,-5.3484,-5.3518,-5.3518,-5.3518,-5.3518,-5.3518,-5.3518,-5.3518,-5.3518,-5.3518,-5.3619,-5.3721,-5.3856,-5.5209,-5.5886,-5.5886,-5.663,-5.6968,-5.7002,-5.7611,-5.7881,-5.7881,0.0,-5.7881,-5.7881,-5.7881,-5.7881,-5.7881,-5.7881,-5.7881,-5.7881,-5.7881,-5.7881,-5.7881,-5.7881,-5.7881,-5.7881,-5.7881,-5.7881,-5.7881,-5.7881,-5.7881,-5.7881,-5.7881,-5.7881,-5.7881,-5.7881,-5.7881,-5.7881,-5.7881,-5.7881,-5.7881,-5.7881,-5.7881,-5.7881,-5.7881,-5.7881,-5.7848,-5.7746,-5.7205,-5.6731,-5.6494,-5.5953,-5.5277,-5.4532,-5.4431,-5.4194,-5.3585,-5.3518,-5.3518,-5.3518,-5.3518,-5.3518,-5.3518,-5.3518,-5.3518,-5.3518,-5.3518,-5.3518,-5.3518,-5.1447,-5.0826,-5.1649,-5.0112,-4.9734,-5.0471,-5.1012,-5.1249,-4.4615,-4.4615,-4.4615,-4.4615,-4.4615,-4.4615,0.0,0.0,0.0,0.0,0.0,0.0,0.0,-4.9018,-4.9018,-4.9018,-4.9018,-4.9154,-4.9526,-5.0541,-5.1352,-5.1758,0.0,-5.3518,-5.3518,-5.3518,-5.3518,-5.3518,-5.3518,-5.3518,-5.3518,-5.3518,-5.3518,-5.3518,-5.3518,-5.3518,-5.3518,-5.4194,-5.4735,-5.5108,-5.5852,-5.6427,-5.6799,-5.7137,-5.7509,-5.7881,0.0,-5.7881,-5.7881,-5.7881,-5.7881,-5.7881,-5.7881,-5.7881,-5.7881,-5.7881,-5.7881,-5.7881,-5.7881,-5.7881,-5.7881,-5.7881,-5.7881,-5.7881,-5.7881,-5.7881,-5.7881,-5.7881,-5.7881,-5.7881,-5.7881,-5.7881,-5.7881,-5.7881,-5.7881,-5.7881,-5.7881,-5.7881,-5.7881,-5.7881,-5.7881,-5.7881,-5.7881,-5.7611,-5.7273,-5.6867,-5.6528,-5.6055,-5.5277,-5.5209,-5.4905,-5.416,-5.4093,-5.3923,-5.3551,-5.3518,-5.3518,-5.3518,-5.3518,-5.3518,-5.3518,-5.3518,-5.3213,-5.2627,-5.1507,-5.1009,-5.1067,-5.0208,-5.0122,-5.0734,-5.1079,-5.1229,-4.4615,-4.4615,-4.4615,-4.4615,0.0,0.0,0.0,0.0,0.0,0.0,0.0,0.0,0.0,-4.8883,-4.9018,-4.9018,-4.9018,-4.9255,-4.9999,-5.0744,-5.1488,-5.2198,-5.301,-5.3518,-5.3518,-5.3518,-5.3518,-5.3518,-5.3518,-5.3518,-5.3518,-5.3518,-5.3518,-5.3518,-5.3518,-5.3518,-5.3518,-5.3518,-5.3788,-5.4329,-5.5108,-5.575,-5.6292,-5.6461,-5.6934,-5.7645,-5.7645,-5.7712,-5.7881,-5.7881,-5.7881,-5.7881,-5.7881,-5.7881,-5.7881,-5.7881,-5.7881,-5.7881,-5.7881,-5.7881,-5.7881,-5.7881,-5.7881,-5.7881,-5.7881,-5.7881,-5.7881,-5.7881,-5.7881,-5.7881,-5.7881,-5.7881,-5.7881,-5.7881,-5.7881,-5.7881,-5.7881,-5.7881,-5.7881,-5.7881,-5.7881,-5.7881,-5.7881,-5.7881,-5.7712,-5.7137,-5.707,-5.6799,-5.6055,-5.5987,-5.5615,-5.4702,-5.46,-5.4296,-5.3551,-5.3518,-5.3518,-5.3518,-5.3518,-5.3518,-5.3518,-5.328,-5.2765,-5.1921,-5.1302,-5.096,-5.0812,-5.0396,-5.0524,-5.1229,-5.1229,-5.1229,-4.4615,-4.4615,-4.4615,-4.4615,-4.4615,0.0,-4.4615,-4.4615,0.0,-4.5635,0.0,0.0,-4.7733,-4.8545,-4.9018,-4.9018,-4.9018,-4.9255,-4.9999,-5.0744,-5.1488,-5.2198,-5.301,-5.3518,-5.3518,-5.3518,-5.3518,-5.3518,-5.3518,-5.3518,-5.3518,-5.3518,-5.3518,-5.3518,-5.3518,-5.3518,-5.3518,-5.3518,-5.3518,-5.3585,-5.4329,-5.4702,-5.4769,-5.548,-5.619,-5.6867,-5.6867,-5.7273,-5.7881,-5.7881,-5.7881,-5.7881,-5.7881,-5.7881,-5.7881,-5.7881,-5.7881,-5.7881,-5.7881,-5.7881,-5.7881,-5.7881,-5.7881,-5.7881,-5.7881,-5.7881,-5.7881,-5.7881,-5.7881,-5.7881,-5.7881,-5.7881,-5.7881,-5.7881,-5.7881,-5.7881,-5.7881,-5.7881,-5.7881,-5.7881,-5.7881,-5.7881,-5.7881,-5.7881,-5.7881,-5.7814,-5.7814,-5.7543,-5.6833,-5.6731,-5.619,-5.4735,-5.46,-5.4296,-5.3551,-5.3518,-5.3518,-5.3518,-5.3518,-5.3518,-5.3518,-5.2557,-5.1993,-5.1921,-5.0596,-5.0215,-5.0812,-5.0396,-5.0524,-5.1229,-5.1229,-5.1229,-4.4615,-4.4615,-4.4615,-4.4615,-4.4615,0.0,0.0,-4.4615,-4.4818,-4.5534,-4.6075,0.0,-4.8308,-4.8815,-4.9018,-4.9018,-4.9018,-4.9424,-5.0642,-5.1048,-5.1691,-5.2909,-5.3315,-5.3518,-5.3518,-5.3518,-5.3518,-5.3518,-5.3518,-5.3518,-5.3518,-5.3518,-5.3518,-5.3518,-5.3518,-5.3518,-5.3518,-5.3518,-5.3518,-5.3518,-5.3788,-5.416,-5.46,-5.4871,-5.5412,-5.6122,-5.6122,-5.6528,-5.7205,-5.7205,-5.7476,-5.7881,-5.7881,-5.7881,-5.7881,-5.7881,-5.7881,-5.7881,-5.7881,-5.7881,-5.7881,-5.7881,-5.7881,-5.7881,-5.7881,-5.7881,-5.7881,-5.7881,-5.7881,-5.7881,-5.7881,-5.7881,-5.7881,-5.7881,-5.7881,-5.7881,-5.7881,-5.7881,-5.7881,-5.7881,-5.7881,-5.7881,-5.7881,-5.7881,-5.7881,-5.7881,-5.7881,-5.778,-5.7509,-5.7476,-5.707,-5.6089,-5.5141,-5.4296,-5.3551,-5.3518,-5.3518,-5.3518,-5.3518,-5.3179,-5.2522,-5.2101,-5.1499,-5.0612,-5.0486,-5.0396,-5.0425,-5.0695,-5.0913,-5.1229,-5.1229,-5.1229,-4.4615,-4.4615,-4.4615,-4.4615,0.0,0.0,-4.4615,-4.4615,-4.4818,-4.5534,-4.6481,-4.7462,-4.8477,-4.8849,-4.9018,-4.9018,-4.9018,-4.9526,-5.0982,-5.1185,-5.1792,-5.3315,-5.3518,-5.3518,-5.3518,-5.3518,-5.3518,-5.3518,-5.3518,-5.3518,-5.3518,-5.3518,-5.3518,-5.3518,-5.3518,-5.3518,-5.3518,-5.3518,-5.3518,-5.3518,-5.3518,-5.3754,-5.4262,-5.4262,-5.4668,-5.5344,-5.5344,-5.5784,-5.6461,-5.6697,-5.7239,-5.7881,-5.7881,-5.7881,-5.7881,-5.7881,-5.7881,-5.7881,-5.7881,-5.7881,-5.7881,-5.7881,-5.7881,-5.7881,-5.7881,-5.7881,-5.7881,-5.7881,-5.7881,-5.7881,-5.7881,-5.7881,-5.7881,-5.7881,-5.7881,-5.7881,-5.7881,-5.7881,-5.7881,-5.7881,-5.7881,-5.7881,-5.7881,-5.7881,-5.7881,-5.7881,-5.7881,-5.7881,-5.7881,-5.7881,-5.7509,-5.6562,-5.5344,-5.4296,-5.3551,-5.3518,-5.3518,-5.3518,-5.3179,-5.2662,-5.1921,-5.1462,-5.0753,-4.9832,-5.0303,-5.0468,-5.0196,-5.0853,-5.1229,-5.1229,-5.1229,-5.1229,-4.4615,-4.4615,-4.4615,-4.4615,0.0,0.0,-4.4615,-4.4615,-4.4818,-4.5568,-4.6887,-4.7906,-4.7906,-4.8511,-4.9018,-4.9018,-4.9018,-4.9526,-5.098,-5.1185,-5.1792,-5.3315,-5.3518,-5.3518,-5.3518,-5.3518,-5.3518,-5.3518,-5.3518,-5.3518,-5.3518,-5.3518,-5.3518,-5.3518,-5.3518,-5.3518,-5.3518,-5.3518,-5.3518,-5.3518,-5.3518,-5.3518,-5.3518,-5.3518,-5.389,-5.4566,-5.4566,-5.5006,-5.575,-5.6494,-5.7205,-5.7881,-5.7881,-5.7881,-5.7881,-5.7881,-5.7881,-5.7881,-5.7881,-5.7881,-5.7881,-5.7881,-5.7881,-5.7881,-5.7881,-5.7881,-5.7881,-5.7881,-5.7881,-5.7881,-5.7881,-5.7881,-5.7881,-5.7881,-5.7881,-5.7881,-5.7881,-5.7881,-5.7881,-5.7881,-5.7881,-5.7881,-5.7881,-5.7881,-5.7881,-5.7881,-5.7881,-5.7881,-5.7881,-5.7881,-5.734,-5.5886,-5.504,-5.4296,-5.3585,-5.3518,-5.3518,-5.3518,-5.2522,-5.1885,-5.1885,-5.0525,-4.9791,-4.9822,-5.0063,-5.0196,-5.0196,-5.09,-5.1229,-5.1229,-5.1229,-5.1229,-4.4615,-4.4615,-4.4615,-4.4615,0.0,0.0,0.0,-4.5365,0.0,0.0,-4.7601,-4.8041,-4.8578,-4.8849,-4.9018,-4.9018,-4.9018,-4.9323,-5.0304,-5.0879,-5.1589,-5.2536,-5.3179,-5.3518,-5.3518,-5.3518,-5.3518,-5.3518,-5.3518,-5.3518,-5.3518,-5.3518,-5.3518,-5.3518,-5.3518,-5.3518,-5.3518,-5.3518,-5.3518,-5.3518,-5.3518,-5.3518,-5.3518,-5.3518,-5.3619,-5.3822,-5.3822,-5.4228,-5.4972,-5.5716,-5.6461,-5.7137,-5.7137,-5.7442,-5.7881,-5.7881,-5.7881,-5.7881,-5.7881,-5.7881,-5.7881,-5.7881,-5.7881,-5.7881,-5.7881,-5.7881,-5.7881,-5.7881,-5.7881,-5.7881,-5.7881,-5.7881,-5.7881,-5.7881,-5.7881,-5.7881,-5.7881,-5.7881,-5.7881,-5.7881,-5.7881,-5.7881,-5.7881,-5.7881,-5.7881,-5.7881,-5.7881,-5.7881,-5.7881,-5.7881,-5.7509,-5.6596,-5.5818,-5.5074,-5.4329,-5.3788,-5.3518,-5.3518,-5.2988,-5.2122,-5.0887,-5.0156,-4.9689,-4.9428,-4.9929,-5.0435,-5.0883,-5.1109,-5.1229,-5.1229,-5.1229,-5.1229,-4.4615,-4.4615,-4.4615,-4.4615,-4.4615,-4.4886,-4.5906,0.0,0.0,0.0,-4.8108,-4.8477,-4.8917,-4.9018,-4.9018,-4.9018,-4.9018,-4.9255,-4.9999,-5.0473,-5.1048,-5.1792,-5.23,-5.2604,-5.2604,-5.2604,-5.2706,-5.301,-5.301,-5.3179,-5.3484,-5.3518,-5.3518,-5.3518,-5.3518,-5.3518,-5.3518,-5.3518,-5.3518,-5.3518,-5.3518,-5.3518,-5.3518,-5.3518,-5.3518,-5.3518,-5.3518,-5.3923,-5.4634,-5.5074,-5.5716,-5.6393,-5.6697,-5.707,-5.7476,-5.778,-5.7881,-5.7881,-5.7881,-5.7881,-5.7881,-5.7881,-5.7881,-5.7881,-5.7881,-5.7881,-5.7881,-5.7881,-5.7881,-5.7881,-5.7881,-5.7881,-5.7881,-5.7881,-5.7881,-5.7881,-5.7881,-5.7881,-5.7881,-5.7881,-5.7881,-5.7881,-5.7881,-5.7881,-5.7881,-5.7881,-5.7881,-5.7881,-5.7881,-5.7881,-5.7611,-5.6867,-5.6393,-5.5716,-5.4668,-5.4194,-5.3923,-5.3923,-5.3354,-5.2469,-5.1268,-5.0849,-5.0327,-4.9689,-5.0301,-5.0794,-5.1229,-5.1229,-5.1229,-5.1229,-5.1229,-5.1229,-4.4615,-4.4615,-4.4615,-4.4615,-4.4716,-4.5156,-4.6481,-4.7428,-4.7973,-4.7973,-4.8545,-4.9018,-4.9018,-4.9018,-4.9018,-4.9018,-4.9018,-4.9221,-4.9898,-5.0067,-5.0338,-5.1048,-5.1183,-5.1185,-5.1185,-5.1185,-5.1488,-5.2164,-5.2198,-5.2536,-5.3247,-5.3348,-5.3382,-5.3382,-5.345,-5.3518,-5.3518,-5.3518,-5.3518,-5.3518,-5.3518,-5.3518,-5.3518,-5.3518,-5.3518,-5.3518,-5.3518,-5.389,-5.4499,-5.4499,-5.4938,-5.5683,-5.6359,-5.663,-5.6799,-5.7509,-5.778,-5.7814,-5.7881,-5.7881,-5.7881,-5.7881,-5.7881,-5.7881,-5.7881,-5.7881,-5.7881,-5.7881,-5.7881,-5.7881,-5.7881,-5.7881,-5.7881,-5.7881,-5.7881,-5.7881,-5.7881,-5.7881,-5.7881,-5.7881,-5.7881,-5.7881,-5.7881,-5.7881,-5.7881,-5.7881,-5.7881,-5.7881,-5.7881,-5.7881,-5.7645,-5.6968,-5.6833,-5.6258,-5.4905,-5.4735,-5.4702,-5.4702,-5.3753,-5.2986,-5.2621,-5.2177,-5.1339,-5.0242,-5.0853,-5.1229,-5.1229,-5.1229,-5.1229,-5.1229,-5.1229,-5.1229,-4.4615,-4.4615,-4.4615,-4.4615,-4.5495,-4.6413,-4.6718,-4.7834,-4.8781,-4.8781,-4.8883,-4.9018,-4.9018,-4.9018,-4.9018,-4.9018,-4.9018,-4.9052,-4.9221,-4.9729,-5.0135,-5.0304,-5.0845,-5.1185,-5.1185,-5.1185,-5.1252,-5.142,-5.1454,-5.1522,-5.1691,-5.2232,-5.257,-5.257,-5.3179,-5.3518,-5.3518,-5.3518,-5.3518,0.0,-5.3518,-5.3518,-5.3518,-5.3518,-5.3518,-5.3518,-5.3518,-5.3585,-5.3754,-5.3754,-5.416,-5.4837,-5.5006,-5.5412,-5.6055,-5.6765,-5.7036,-5.7103,-5.7679,-5.7881,-5.7881,-5.7881,-5.7881,-5.7881,-5.7881,-5.7881,-5.7881,-5.7881,-5.7881,-5.7881,-5.7881,-5.7881,-5.7881,-5.7881,-5.7881,-5.7881,-5.7881,-5.7881,-5.7881,-5.7881,-5.7881,-5.7881,-5.7881,-5.7881,-5.7881,-5.7881,-5.7881,-5.7881,-5.7881,-5.7881,-5.7814,-5.7679,-5.7137,-5.6664,-5.6359,-5.5818,-5.548,-5.548,-5.4948,-5.4222,-5.3309,-5.2386,-5.1339,-5.0242,-5.0853,-5.1229,-5.1229,-5.1229,-5.1229,-5.1229,-5.1229,-5.1229,-4.4615,-4.4615,0.0,-4.4615,0.0,-4.6786,-4.6786,-4.7936,-4.9018,-4.9018,-4.9018,-4.9018,-4.9018,-4.9018,-4.9018,-4.9018,-4.9018,-4.9018,-4.9018,-4.9323,-4.956,-4.956,-4.9932,-5.0168,-5.0168,-5.0168,-5.0304,-5.0642,-5.0676,-5.0845,-5.1151,-5.1589,-5.1792,-5.1792,-5.2536,-5.2942,-5.2942,-5.3315,-5.3518,-5.3518,-5.3518,-5.3518,-5.3518,-5.3518,-5.3518,-5.3518,-5.3518,-5.3518,-5.3518,-5.3518,-5.3721,-5.4093,-5.4465,-5.4837,-5.5277,-5.6021,-5.6292,-5.6393,-5.7103,-5.7374,-5.7408,-5.778,-5.7881,-5.7881,-5.7881,-5.7881,-5.7881,-5.7881,-5.7881,-5.7881,-5.7881,-5.7881,-5.7881,-5.7881,-5.7881,-5.7881,-5.7881,-5.7881,-5.7881,-5.7881,-5.7881,-5.7881,-5.7881,-5.7881,-5.7881,-5.7881,-5.7881,-5.7881,-5.7881,-5.7881,-5.7881,-5.7881,-5.7543,-5.7171,-5.6833,-5.6461,-5.6258,-5.6258,-5.5514,-5.4777,-5.4045,-5.2981,-5.1829,-5.069,-5.1003,-5.1229,-5.1229,-5.1229,-5.1229,-5.1229,-5.1229,-5.1229,-4.472,0.0,-4.4615,-4.4615,-4.5602,0.0,-4.6752,-4.7834,-4.8849,-4.8984,-4.9018,-4.9018,-4.9018,-4.9018,-4.9018,-4.9018,-4.9018,-4.9018,-4.9018,-4.9018,-4.9018,-4.9018,-4.9018,-4.9018,-4.9018,-4.9018,-4.9255,-4.9864,-4.9898,-5.0168,-5.0811,-5.0947,-5.1014,-5.1014,-5.1725,-5.2164,-5.23,-5.2976,-5.3382,-5.3518,-5.3518,-5.3518,-5.3518,-5.3518,-5.3518,-5.3518,-5.3518,-5.3518,-5.3518,-5.3518,-5.3518,-5.3551,-5.416,-5.4397,-5.4499,-5.5243,-5.5513,-5.5649,-5.6359,-5.663,-5.6731,-5.7476,-5.7712,-5.7712,-5.7848,-5.7881,-5.7881,-5.7881,-5.7881,-5.7881,-5.7881,-5.7881,-5.7881,-5.7881,-5.7881,-5.7881,-5.7881,-5.7881,-5.7881,-5.7881,-5.7881,-5.7881,-5.7881,-5.7881,-5.7881,-5.7881,-5.7881,-5.7881,-5.7881,-5.7881,-5.7881,-5.7881,-5.7881,-5.7645,-5.7036,-5.6824,-5.6715,-5.6715,-5.5463,-5.4592,-5.4305,-5.3209,-5.2154,-5.1229,-5.1229,-5.1229,-5.1229,-5.1229,-5.1229,-5.1229,-5.1229,-5.1229,-4.5214,0.0,-4.4615,0.0,-4.5229,-4.6007,0.0,0.0,-4.824,0.0,-4.9018,-4.9018,-4.9018,-4.9018,-4.9018,-4.9018,-4.9018,-4.9018,-4.9018,-4.9018,-4.9018,-4.9018,-4.9018,-4.9018,-4.9018,-4.9018,-4.9052,-4.9154,-4.9154,-4.9187,-4.9289,-4.9898,-5.0236,-5.0236,-5.098,-5.1657,-5.23,-5.2401,-5.2807,-5.3518,-5.3518,-5.3518,-5.3518,-5.3518,-5.3518,-5.3518,-5.3518,-5.3518,-5.3518,-5.3518,-5.3518,-5.3518,-5.3619,-5.3653,-5.3754,-5.4465,-5.4735,-5.4837,-5.5615,-5.5852,-5.5987,-5.6697,-5.6934,-5.707,-5.7712,-5.7881,-5.7881,-5.7881,-5.7881,-5.7881,-5.7881,-5.7881,-5.7881,-5.7881,-5.7881,-5.7881,-5.7881,-5.7881,-5.7881,-5.7881,-5.7881,-5.7881,-5.7881,-5.7881,-5.7881,-5.7881,-5.7881,-5.7881,-5.7881,-5.7881,-5.7881,-5.7881,-5.7881,-5.7848,-5.7746,-5.6867,-5.6266,-5.6266,-5.4345,-5.3171,-5.3121,-5.2018,-5.1339,-5.1229,-5.1229,-5.1229,-5.1229,-5.1229,-5.1229,-5.1229,-5.1229,-5.1229,-4.5042,-4.4769,-4.4615,0.0,-4.5128,-4.5805,-4.6109,-4.709,-4.7973,-4.8342,-4.8714,-4.9018,-4.9018,-4.9018,-4.9018,-4.9018,-4.9018,-4.9018,-4.9018,-4.9018,-4.9018,-4.9018,-4.9018,-4.9018,-4.9018,-4.9018,-4.9018,-4.9018,-4.9018,-4.9018,-4.9018,-4.9323,-4.9492,-4.9492,-5.0202,-5.0947,-5.1691,-5.2097,-5.2706,-5.3518,-5.3518,-5.3518,-5.3518,-5.3518,-5.3518,-5.3518,-5.3518,-5.3518,-5.3518,-5.3518,-5.3518,-5.3518,-5.3518,-5.3518,-5.3551,-5.3856,-5.3991,-5.4093,-5.4837,-5.5074,-5.5209,-5.5953,-5.619,-5.6325,-5.707,-5.7273,-5.7374,-5.778,-5.7881,-5.7881,-5.7881,-5.7881,-5.7881,-5.7881,-5.7881,-5.7881,-5.7881,-5.7881,-5.7881,-5.7881,-5.7881,-5.7881,-5.7881,-5.7881,-5.7881,-5.7881,-5.7881,-5.7881,-5.7881,-5.7881,-5.7881,-5.7881,-5.7881,-5.7628,-5.7001,-5.6476,-5.5936,-5.5337,-5.3785,-5.29,-5.29,-5.1819,-5.1229,-5.1229,-5.1229,-5.1229,-5.1229,-5.1229,-5.1229,-5.1229,-5.1229,-5.1229,0.0,0.0,-4.4615,-4.4615,-4.4993,-4.5466,0.0,0.0,-4.7432,0.0,-4.8342,-4.8781,-4.8984,-4.9018,-4.9018,-4.9018,-4.9018,-4.9018,-4.9018,-4.9018,-4.9018,-4.9018,-4.9018,-4.9018,-4.9018,-4.9018,-4.9018,-4.9018,-4.9018,-4.9018,-4.9018,-4.9018,-4.9018,-4.9018,-4.9526,-5.0168,-5.0913,-5.186,-5.2706,-5.3518,-5.3518,-5.3518,-5.3518,-5.3518,-5.3518,-5.3518,-5.3518,-5.3518,-5.3518,-5.3518,-5.3518,-5.3518,-5.3518,-5.3518,-5.3518,-5.3518,-5.3518,-5.3585,-5.4126,-5.4329,-5.4431,-5.5175,-5.5446,-5.5581,-5.6292,-5.6528,-5.663,-5.7171,-5.734,-5.734,-5.734,-5.7476,-5.7611,-5.7611,-5.7746,-5.7881,-5.7881,-5.7881,-5.7881,-5.7881,-5.7881,-5.7881,-5.7881,-5.7881,-5.7881,-5.7881,-5.7881,-5.7881,-5.7881,-5.7881,-5.7808,-5.7517,-5.748,-5.7001,-5.5889,-5.5538,-5.5011,-5.4211,-5.3121,-5.2485,-5.2485,-5.1635,-5.1229,-5.1229,-5.1229,-5.1229,-5.1229,-5.1229,-5.1229,-5.1229,-5.1229,-5.1229,0.0,-4.4615,0.0,-4.4615,-4.4649,-4.4852,0.0,0.0,-4.621,-4.7601,-4.7906,-4.8142,-4.8883,-4.9018,-4.9018,-4.9018,-4.9018,-4.9018,-4.9018,-4.9018,-4.9018,-4.9018,-4.9018,-4.9018,-4.9018,-4.9018,-4.9018,-4.9018,-4.9018,-4.9018,-4.9018,-4.9018,-4.9018,-4.9018,-4.9052,-4.9424,-5.0135,-5.1589,-5.2706,-5.3518,-5.3518,-5.3518,-5.3518,-5.3518,-5.3518,-5.3518,-5.3518,-5.3518,-5.3518,-5.3518,-5.3518,-5.3518,-5.3518,-5.3518,-5.3518,-5.3518,-5.3518,-5.3518,-5.3551,-5.3551,-5.3687,-5.4397,-5.4668,-5.4769,-5.5547,-5.5784,-5.5749,-5.5783,-5.5818,-5.5818,-5.5818,-5.6325,-5.6867,-5.6867,-5.7374,-5.7881,-5.7881,-5.7881,-5.7881,-5.7881,-5.7881,-5.7881,-5.7881,-5.7881,-5.7881,-5.7881,-5.7881,-5.7881,-5.7881,-5.7881,-5.7517,-5.6398,-5.6282,-5.585,-5.4796,-5.3699,-5.3033,-5.2989,-5.1926,-5.1293,-5.1293,-5.1229,-5.1229,-5.1229,-5.1229,-5.1229,-5.1229,-5.1229,-5.1229,-5.1229,-5.1229,-5.1229,0.0,0.0,0.0,-4.4615,-4.4615,-4.4682,-4.4925,-4.5365,-4.5872,-4.638,-4.6853,-4.7428,-4.8173,-4.868,-4.9018,-4.9018,-4.9018,-4.9018,-4.9018,-4.9018,-4.9018,-4.9018,-4.9018,-4.9018,-4.9018,-4.9018,-4.9018,-4.9018,-4.9018,-4.9018,-4.9018,-4.9018,-4.9018,-4.9018,-4.9018,-4.9357,-5.0067,-5.1555,-5.2435,-5.2739,-5.3247,-5.3518,-5.3518,-5.3518,-5.3518,-5.3518,-5.3518,-5.3518,-5.3518,-5.3518,-5.3518,-5.3518,-5.3518,-5.3518,-5.3518,-5.3518,-5.3518,-5.3518,-5.3518,-5.3518,-5.3551,-5.3822,-5.389,-5.4025,-5.4769,-5.5006,-5.5108,-5.5581,-5.5681,-5.5681,-5.5681,-5.6258,-5.6934,-5.7374,-5.7712,-5.7881,-5.7881,-5.7881,-5.7881,-5.7881,-5.7881,-5.7881,-5.7881,-5.7881,-5.7881,-5.7881,-5.7881,-5.7881,-5.7881,-5.726,-5.6663,-5.6243,-5.5578,-5.4723,-5.3613,-5.3121,-5.262,-5.1865,-5.1433,-5.1229,-5.1229,-5.1229,-5.1229,-5.1229,-5.1229,-5.1229,-5.1229,-5.1229,-5.1229,-5.1229,-5.1229,-5.1229,-4.4692,0.0,0.0,0.0,-4.4615,-4.4615,-4.4615,-4.4959,-4.5399,-4.5669,-4.6075,-4.665,-4.7394,-4.7936,-4.8409,-4.8917,-4.9018,-4.9018,-4.9018,-4.9018,-4.9018,-4.9018,-4.9018,-4.9018,-4.9018,-4.9018,-4.9018,-4.9018,-4.9018,0.0,-4.9018,-4.9018,-4.9018,-4.9018,-4.9018,-4.9357,-5.0067,-5.1319,-5.2063,-5.23,-5.3112,-5.3518,-5.3518,-5.3518,-5.3518,-5.3518,-5.3518,-5.3518,-5.3518,-5.3518,-5.3518,-5.3518,-5.3518,-5.3518,-5.3518,-5.3518,-5.3518,-5.3518,-5.3518,-5.3518,-5.3518,-5.3518,-5.3518,-5.3585,-5.4093,-5.4228,-5.4329,-5.4837,-5.4972,-5.504,-5.5277,-5.6055,-5.7002,-5.7712,-5.7881,-5.7881,-5.7881,-5.7881,-5.7881,-5.7881,-5.7881,-5.7881,-5.7881,-5.7881,-5.7881,-5.7881,-5.7881,-5.7881,-5.7881,-5.6892,-5.6087,-5.573,-5.4681,-5.3569,-5.244,-5.2305,-5.2018,-5.1246,-5.1229,-5.1229,-5.1229,-5.1229,-5.1229,-5.1229,-5.1229,-5.1229,-5.1229,-5.1229,-5.1229,-5.1229,-5.1229,-5.1229,0.0,0.0,0.0,0.0,-4.4615,-4.4615,-4.4615,-4.4615,-4.4818,-4.5534,-4.5669,-4.5906,-4.6616,-4.6752,-4.7225,-4.8714,-4.8951,-4.8984,-4.9018,-4.9018,-4.9018,-4.9018,-4.9018,-4.9018,-4.9018,-4.9018,-4.9018,-4.9018,-4.9018,-4.9018,-4.9018,-4.9018,-4.9018,-4.9018,-4.9018,-4.9357,-5.0067,-5.0811,-5.1555,-5.2266,-5.3078,-5.3484,-5.3518,-5.3518,-5.3518,-5.3518,-5.3518,-5.3518,-5.3518,-5.3518,-5.3518,-5.3518,-5.3518,-5.3518,-5.3518,-5.3518,-5.3518,-5.3518,-5.3518,-5.3518,-5.3518,-5.3518,-5.3518,-5.3518,-5.3518,-5.3518,-5.3518,-5.3518,-5.3518,-5.3687,-5.4431,-5.5716,-5.7002,-5.7712,-5.7881,-5.7881,-5.7881,-5.7881,-5.7881,-5.7881,-5.7881,-5.7881,-5.7881,-5.7881,-5.7881,-5.7881,-5.7881,-5.7881,-5.7845,-5.6887,-5.577,-5.4672,-5.3526,-5.2395,-5.1293,-5.1229,-5.1229,-5.1229,-5.1229,-5.1229,-5.1229,-5.1229,-5.1229,-5.1229,-5.1229,-5.1229,-5.1229,-5.1229,-5.1229,-5.1229,-5.1229,-5.1229,-4.4615,0.0,0.0,0.0,0.0,0.0,-4.4615,-4.4615,-4.4682,-4.4857,-4.4919,-4.5128,-4.5872,-4.6007,-4.6312,-4.7259,-4.7868,-4.8409,-4.8917,-4.9018,-4.9018,-4.9018,-4.9018,-4.9018,-4.9018,-4.9018,-4.9018,0.0,-4.9018,-4.9018,-4.9018,-4.9018,-4.9018,-4.9018,-4.9018,-4.9086,-4.9289,-5.0033,-5.0777,-5.1522,-5.2266,-5.2942,-5.3518,-5.3518,-5.3518,-5.3518,-5.3518,-5.3518,-5.3518,-5.3518,-5.3518,-5.3518,-5.3518,-5.3518,-5.3518,-5.3518,-5.3518,-5.3518,-5.3518,-5.3518,-5.3518,-5.3518,-5.3518,-5.3518,-5.3518,-5.3518,-5.3518,-5.3518,-5.3518,-5.3788,-5.5074,-5.6089,-5.7002,-5.7712,-5.7881,-5.7881,-5.7881,-5.7881,-5.7881,-5.7881,-5.7881,-5.7881,-5.7881,-5.7881,-5.7881,-5.7881,-5.7881,-5.7591,-5.6778,-5.573,-5.4598,-5.3483,-5.235,-5.1542,-5.1229,-5.1229,-5.1229,-5.1229,-5.1229,-5.1229,-5.1229,-5.1229,-5.1229,-5.1229,-5.1229,-5.1229,-5.1229,-5.1229,-5.1229,-5.1229,-5.1229,-5.1229,0.0,0.0,0.0,0.0,0.0,0.0,-4.4615,-4.4615,-4.4615,-4.4615,-4.4615,-4.475,-4.5162,-4.5229,-4.5466,-4.621,-4.6718,-4.7259,-4.797,-4.8071,-4.8206,-4.8511,-4.8545,-4.868,-4.8984,-4.9018,-4.9018,-4.9018,-4.9018,-4.9018,-4.9018,-4.9018,-4.9018,-4.9018,-4.9018,-4.9018,-4.9018,-4.9729,-5.0473,-5.1217,-5.1961,-5.2739,-5.3518,-5.3518,-5.3518,-5.3518,-5.3518,-5.3518,-5.3518,-5.3518,-5.3518,-5.3518,-5.3518,-5.3518,-5.3518,-5.3518,-5.3518,-5.3518,-5.3518,-5.3518,-5.3518,-5.3518,-5.3518,-5.3518,-5.3518,-5.3518,-5.3518,-5.3518,-5.3957,-5.4634,-5.5513,-5.6494,-5.7374,-5.778,-5.7881,-5.7881,-5.7881,-5.7881,-5.7881,-5.7881,-5.7881,-5.7881,-5.7881,-5.7881,-5.7881,-5.7881,-5.7881,-5.7517,-5.636,-5.5256,-5.4168,-5.3033,-5.188,-5.1229,-5.1229,-5.1229,-5.1229,-5.1229,-5.1229,-5.1229,-5.1229,-5.1229,-5.1229,-5.1229,-5.1229,-5.1229,-5.1229,-5.1229,-5.1229,-5.1229,-5.1229,-5.1229,0.0,0.0,0.0,0.0,-4.4615,0.0,-4.4615,-4.4615,-4.4615,-4.4615,-4.4615,-4.4615,-4.4615,-4.4615,-4.479,-4.5466,-4.5568,-4.5872,-4.6684,-4.6786,-4.7022,-4.7699,-4.78,-4.8037,-4.868,-4.8849,-4.8883,-4.8883,-4.8951,-4.9018,-4.9018,-4.9018,-4.9018,-4.9018,-4.9018,-4.9018,-4.9018,-4.9627,-5.0405,-5.1217,-5.186,-5.2638,-5.3518,-5.3518,-5.3518,-5.3518,-5.3518,-5.3518,-5.3518,-5.3518,-5.3518,-5.3518,-5.3518,-5.3518,-5.3518,-5.3518,-5.3518,-5.3518,-5.3518,-5.3518,-5.3518,-5.3518,-5.3518,-5.3518,-5.3518,-5.3518,-5.3518,-5.3518,-5.4566,-5.5681,-5.5681,-5.6799,-5.7881,-5.7881,-5.7881,-5.7881,-5.7881,-5.7881,-5.7881,-5.7881,-5.7881,-5.7881,-5.7881,-5.7881,-5.7881,-5.7881,-5.7881,-5.748,-5.6165,-5.5207,-5.4126,-5.2856,-5.1819,-5.1229,-5.1229,-5.1229,-5.1229,-5.1229,-5.1229,-5.1229,-5.1229,-5.1229,-5.1229,-5.1229,-5.1229,-5.1229,-5.1229,-5.1229,-5.1229,-5.1229,-5.1229,-5.1229,0.0,0.0,0.0,0.0,-4.4615,0.0,-4.4615,-4.4615,-4.4615,-4.4615,-4.4615,-4.4615,-4.4615,-4.4615,-4.4649,-4.4818,-4.479,-4.5263,-4.6616,-4.6786,-4.6853,-4.6989,-4.7022,-4.7056,-4.7225,-4.7767,-4.8108,-4.8108,-4.868,-4.9018,-4.9018,-4.9018,-4.9018,-4.9018,-4.9018,-4.9018,-4.9018,-4.9154,-4.9898,-5.1185,-5.1352,-5.2164,-5.3518,-5.3518,-5.3518,-5.3518,-5.3518,-5.3518,-5.3518,-5.3518,-5.3518,-5.3518,-5.3518,-5.3518,-5.3518,-5.3518,-5.3518,-5.3518,-5.3518,-5.3518,-5.3518,-5.3518,-5.3518,-5.3518,-5.3518,-5.3518,-5.3518,-5.3518,-5.4566,-5.5681,-5.5681,-5.6799,-5.7881,-5.7881,-5.7881,-5.7881,-5.7881,-5.7881,-5.7881,-5.7881,-5.7881,-5.7881,-5.7881,-5.7881,-5.7881,-5.7881,-5.7881,-5.7185,-5.5166,-5.4755,-5.3828,-5.1773,-5.1339,-5.1229,-5.1229,-5.1229,-5.1229,-5.1229,-5.1229,-5.1229,-5.1229,-5.1229,-5.1229,-5.1229,-5.1229,-5.1229,-5.1229,-5.1229,-5.1229,-5.1229,-5.1229,-5.1229,-4.5142,0.0,-4.4615,-4.4615,-4.4615,0.0,0.0,-4.4615,-4.4615,-4.4615,-4.4615,-4.4615,-4.4615,-4.4615,-4.4615,-4.4615,-4.4615,-4.4852,-4.5596,-4.5698,-4.5838,-4.621,-4.6244,-4.638,-4.6752,-4.7124,-4.7496,-4.7872,-4.821,-4.8612,-4.8984,-4.9018,-4.9018,-4.9018,-4.9018,-4.9018,-4.9018,-4.9018,-4.9763,-5.1185,-5.1185,-5.2029,-5.3518,-5.3518,-5.3518,-5.3518,-5.3518,-5.3518,-5.3518,-5.3518,-5.3518,-5.3518,-5.3518,-5.3518,-5.3518,-5.3518,-5.3518,-5.3518,-5.3518,-5.3518,-5.3518,-5.3518,-5.3518,-5.3518,-5.3518,-5.3518,-5.3518,-5.3518,-5.4296,-5.5141,-5.5141,-5.6258,-5.734,-5.734,-5.7611,-5.7881,-5.7881,-5.7881,-5.7881,-5.7881,-5.7881,-5.7881,-5.7881,-5.7881,-5.7881,-5.7881,-5.7881,-5.711,-5.4879,-5.4589,-5.3742,-5.1433,-5.1229,-5.1229,-5.1229,-5.1229,-5.1229,-5.1229,-5.1229,-5.1229,-5.1229,-5.1229,-5.1229,-5.1229,-5.1229,-5.1229,-5.1229,-5.1229,-5.1229,-5.1229,-5.1229,-5.1229,-4.552,-4.5062,-4.4615,-4.4615,-4.4615,-4.4615,0.0,0.0,0.0,-4.4615,0.0,0.0,0.0,0.0,0.0,0.0,0.0,0.0,0.0,-4.4513,0.0,-4.5432,-4.55,-4.5703,-4.6312,-4.6481,-4.6887,-4.7631,-4.7804,-4.8173,-4.8781,-4.8917,-4.9018,-4.9018,-4.9018,-4.9018,-4.9018,-4.9018,-4.9763,-5.1185,-5.1185,-5.2029,-5.3518,-5.3518,-5.3518,-5.3518,-5.3518,-5.3518,-5.3518,-5.3518,-5.3518,-5.3518,-5.3518,-5.3518,-5.3518,-5.3518,-5.3518,-5.3518,-5.3518,-5.3518,-5.3518,-5.3518,-5.3518,-5.3518,-5.3518,-5.3518,-5.3518,-5.3518,-5.4025,-5.46,-5.46,-5.5581,-5.663,-5.6765,-5.7239,-5.7712,-5.7848,-5.7881,-5.7881,-5.7881,-5.7881,-5.7881,-5.7881,-5.7881,-5.7881,-5.7881,-5.7881,-5.7185,-5.5166,-5.492,-5.4041,-5.1773,-5.1526,-5.1433,-5.1229,-5.1229,-5.1229,-5.1229,-5.1229,-5.1229,-5.1229,-5.1229,-5.1229,-5.1229,-5.1229,-5.1229,-5.1229,-5.1229,-5.1229,-5.1229,-5.1229,-5.1229,-4.5648,-4.5062,-4.4615,-4.4615,-4.4615,-4.4615,-4.4615,0.0,-4.4615,-4.4615,0.0,-4.4615,0.0,0.0,0.0,0.0,0.0,0.0,-4.3639,-4.4147,-4.4649,-4.4716,-4.4716,-4.4784,-4.4852,-4.5432,-4.6143,-4.6853,-4.753,-4.7939,-4.8007,-4.8646,-4.9018,-4.9018,-4.9018,-4.9018,-4.9018,-4.9018,-4.9763,-5.1185,-5.1185,-5.2029,-5.3518,-5.3518,-5.3518,-5.3518,-5.3518,-5.3518,-5.3518,-5.3518,-5.3518,-5.3518,-5.3518,-5.3518,-5.3518,-5.3518,-5.3518,-5.3518,-5.3518,-5.3518,-5.3518,-5.3518,-5.3518,-5.3518,-5.3518,-5.3518,-5.3518,-5.3518,-5.4025,-5.46,-5.46,-5.5209,-5.6021,-5.6664,-5.6867,-5.7103,-5.7746,-5.7881,-5.7881,-5.7881,-5.7881,-5.7881,-5.7881,-5.7881,-5.7881,-5.7881,-5.7881,-5.7409,-5.6165,-5.6047,-5.5174,-5.2945,-5.2678,-5.2305,-5.1293,-5.1229,-5.1229,-5.1229,-5.1229,-5.1229,-5.1229,-5.1229,-5.1229,-5.1229,-5.1229,-5.1229,-5.1229,-5.1229,-5.1229,-5.1229,-5.1229,-5.1229,-4.5673,-4.532,-4.5035,-4.4692,-4.4852,-4.5008,-4.4665,0.0,-4.4615,-4.4615,0.0,0.0,0.0,0.0,0.0,0.0,-4.4378,0.0,0.0,0.0,-4.4615,0.0,0.0,0.0,-4.4615,0.0,0.0,0.0,-4.6447,-4.6993,-4.7838,-4.8176,-4.8578,-4.8984,-4.9018,-4.9018,-4.9018,-4.9018,-4.9526,-5.0574,-5.1014,-5.1758,-5.2807,-5.3281,-5.3518,-5.3518,-5.3518,-5.3518,-5.3518,-5.3518,-5.3518,-5.3518,-5.3518,-5.3518,-5.3518,-5.3518,-5.3518,-5.3518,-5.3518,-5.3518,-5.3518,-5.3518,-5.3518,-5.3518,-5.3518,-5.3518,-5.3518,-5.3518,-5.3721,-5.3957,-5.3957,-5.4499,-5.5141,-5.5446,-5.619,-5.69,-5.7205,-5.7577,-5.7881,-5.7881,-5.7881,-5.7881,-5.7881,-5.7881,-5.7881,-5.7881,-5.7881,-5.7517,-5.636,-5.6204,-5.5337,-5.3165,-5.29,-5.244,-5.1293,-5.1229,-5.1229,-5.1229,-5.1229,-5.1229,-5.1229,-5.1229,-5.1229,-5.1229,-5.1229,-5.1229,-5.1229,-5.1229,-5.1229,-5.1229,-5.1229,-5.1229,-4.6325,0.0,0.0,0.0,0.0,0.0,0.0,0.0,0.0,0.0,0.0,0.0,0.0,0.0,0.0,0.0,0.0,-4.4513,0.0,-4.4479,0.0,0.0,0.0,0.0,0.0,0.0,-4.4818,-4.5365,-4.5602,-4.6278,-4.753,-4.777,-4.824,-4.8984,-4.9018,-4.9018,-4.9018,-4.9018,-4.9357,-5.0101,-5.0845,-5.1589,-5.2334,-5.3145,-5.3518,-5.3518,-5.3518,-5.3518,-5.3518,-5.3518,-5.3518,-5.3518,-5.3518,-5.3518,-5.3518,-5.3518,-5.3518,-5.3518,-5.3518,-5.3518,-5.3518,-5.3518,-5.3518,-5.3518,-5.3518,-5.3518,-5.3518,-5.3518,-5.3518,-5.3518,-5.3518,-5.389,-5.4329,-5.4532,-5.5581,-5.6562,-5.6765,-5.7374,-5.7881,-5.7881,-5.7881,-5.7881,-5.7881,-5.7881,-5.7881,-5.7881,-5.7881,-5.7591,-5.6778,-5.6663,-5.585,-5.3613,-5.3352,-5.2767,-5.1293,-5.1229,-5.1229,-5.1229,-5.1229,-5.1229,-5.1229,-5.1229,-5.1229,-5.1229,-5.1229,-5.1229,-5.1229,-5.1229,-5.1229,-5.1229,-5.1229,-5.1229,0.0,0.0,0.0,-4.4946,0.0,0.0,0.0,0.0,-4.4615,0.0,0.0,0.0,0.0,0.0,0.0,0.0,0.0,0.0,0.0,0.0,-4.4615,0.0,0.0,0.0,0.0,-4.4615,-4.4615,-4.4649,-4.5297,-4.6041,-4.6786,-4.753,-4.824,-4.8984,-4.9018,-4.9018,-4.9018,-4.9018,-4.9357,-5.0101,-5.0845,-5.1589,-5.2334,-5.3145,-5.3518,-5.3518,-5.3518,-5.3518,-5.3518,-5.3518,-5.3518,-5.3518,-5.3518,-5.3518,-5.3518,-5.3518,-5.3518,-5.3518,-5.3518,-5.3518,-5.3518,-5.3518,-5.3518,-5.3518,-5.3518,-5.3518,-5.3518,-5.3518,-5.3518,-5.3518,-5.3518,-5.3518,-5.3721,-5.4431,-5.5175,-5.5953,-5.6664,-5.7374,-5.7881,-5.7881,-5.7881,-5.7881,-5.7881,-5.7881,-5.7881,-5.7881,-5.7881,-5.7881,-5.7845,-5.7845,-5.7001,-5.4796,-5.4547,-5.3613,-5.1386,-5.1229,-5.1229,-5.1229,-5.1229,-5.1229,-5.1229,-5.1229,-5.1229,-5.1229,-5.1229,-5.1229,-5.1229,-5.1229,-5.1229,-5.1229,-5.1229,-5.1229,0.0,0.0,-4.8305,-4.6429,0.0,0.0,0.0,0.0,0.0,0.0,0.0,0.0,0.0,0.0,0.0,0.0,0.0,0.0,0.0,0.0,-4.4615,-4.4615,-4.4615,-4.4615,0.0,0.0,0.0,-4.4615,-4.4852,-4.5297,-4.6041,-4.6786,-4.753,-4.8274,-4.8748,-4.9018,-4.9018,-4.9018,-4.912,-4.939,-5.0608,-5.1352,-5.1623,-5.2909,-5.3518,-5.3518,-5.3518,-5.3518,-5.3518,-5.3518,-5.3518,-5.3518,-5.3518,-5.3518,-5.3518,-5.3518,-5.3518,-5.3518,-5.3518,-5.3518,-5.3518,-5.3518,-5.3518,-5.3518,-5.3518,-5.3518,-5.3518,-5.3518,-5.3518,-5.3518,-5.3518,-5.3518,-5.3551,-5.3822,-5.4803,-5.5749,-5.6021,-5.7036,-5.7881,-5.7881,-5.7881,-5.7881,-5.7881,-5.7881,-5.7881,-5.7881,-5.7881,-5.7881,-5.7881,-5.726,-5.6204,-5.4755,-5.3913,-5.2856,-5.1339,-5.1229,-5.1229,-5.1229,-5.1229,-5.1229,-5.1229,-5.1229,-5.1229,-5.1229,-5.1229,-5.1229,-5.1229,-5.1229,-5.1229,-5.1229,-5.1229,-5.1229,-4.9889,-4.9934,0.0,-4.7945,-4.7618,0.0,-4.5692,0.0,-4.4919,0.0,0.0,0.0,0.0,0.0,0.0,0.0,0.0,0.0,0.0,-4.4615,-4.4615,-4.4615,-4.4615,-4.4615,0.0,-4.4615,-4.4615,-4.4615,-4.4615,-4.4919,0.0,0.0,-4.7158,-4.7872,-4.8612,-4.9018,-4.9018,-4.9018,-4.9018,-4.9018,-5.0507,-5.1185,-5.1219,-5.2807,-5.3518,-5.3518,-5.3518,-5.3518,-5.3518,-5.3518,-5.3518,-5.3518,-5.3518,-5.3518,-5.3518,-5.3518,-5.3518,-5.3518,-5.3518,-5.3518,-5.3518,-5.3518,-5.3518,-5.3518,-5.3518,-5.3518,-5.3518,-5.3518,-5.3518,-5.3518,-5.3518,-5.3518,-5.3518,-5.3518,-5.4634,-5.5681,-5.5681,-5.6867,-5.7881,-5.7881,-5.7881,-5.7881,-5.7881,-5.7881,-5.7881,-5.7881,-5.7881,-5.7772,-5.7335,-5.6663,-5.5618,-5.4168,-5.3309,-5.244,-5.1293,-5.1229,-5.1229,-5.1229,-5.1229,-5.1229,-5.1229,-5.1229,-5.1229,-5.1229,-5.1229,-5.1229,-5.1229,-5.1229,-5.1229,-5.1229,-5.1229,-5.1229]},{"header":{"parameterUnit":"m.s-1","parameterCategory":1,"la1":30.6,"la2":29.2853,"lo1":-89.7004,"lo2":-87.6739,"dy":0.0162,"dx":0.0183,"nx":112,"ny":82,"refTime":"2024-02-17T18:00:00:Z","depth":0,"parameterNumber":3,"parameterNumberName":"V-component_of_WINDS"},"data":[0.0,0.0,0.0,0.0,0.0,0.0,0.0,0.0,0.0,0.0,0.0,0.0,0.0,0.0,0.0,0.0,0.0,0.0,0.0,0.0,0.0,0.0,0.0,0.0,0.0,0.0,0.0,0.0,0.0,0.0,0.0,0.0,0.0,0.0,0.0,0.0,0.0,0.0,0.0,0.0,0.0,0.0,0.0,0.0,0.0,0.0,0.0,0.0,0.0,0.0,0.0,0.0,0.0,0.0,0.0,0.0,0.0,0.0,0.0,0.0,0.0,0.0,0.0,0.0,0.0,0.0,0.0,0.0,0.0,0.0,0.0,0.0,0.0,0.0,0.0,0.0,0.0,0.0,0.0,0.0,0.0,0.0,0.0,0.0,0.0,0.0,0.0,0.0,0.0,0.0,-2.3101,-2.3101,-2.3101,-2.3101,-2.3101,-2.3101,-2.3101,-2.3101,0.0,0.0,0.0,0.0,0.0,0.0,0.0,0.0,0.0,0.0,0.0,0.0,0.0,0.0,0.0,0.0,0.0,0.0,0.0,0.0,0.0,0.0,0.0,0.0,0.0,0.0,0.0,0.0,0.0,0.0,0.0,0.0,0.0,0.0,0.0,0.0,0.0,0.0,0.0,0.0,0.0,0.0,0.0,0.0,0.0,0.0,0.0,0.0,0.0,0.0,0.0,0.0,0.0,0.0,0.0,0.0,0.0,0.0,0.0,0.0,0.0,0.0,0.0,0.0,0.0,0.0,0.0,0.0,0.0,0.0,0.0,0.0,0.0,0.0,0.0,0.0,0.0,0.0,0.0,0.0,0.0,0.0,0.0,0.0,0.0,0.0,0.0,0.0,0.0,0.0,0.0,0.0,0.0,0.0,0.0,0.0,0.0,0.0,0.0,0.0,0.0,0.0,0.0,0.0,-2.3101,-2.3101,-2.3101,-2.3101,-2.3101,-2.3101,-2.3101,-2.3101,0.0,0.0,0.0,0.0,0.0,0.0,0.0,0.0,0.0,0.0,0.0,0.0,0.0,0.0,0.0,0.0,0.0,0.0,0.0,0.0,0.0,0.0,0.0,0.0,0.0,0.0,0.0,0.0,0.0,0.0,0.0,0.0,0.0,0.0,0.0,0.0,0.0,0.0,0.0,0.0,0.0,0.0,0.0,0.0,0.0,0.0,0.0,0.0,0.0,0.0,0.0,0.0,0.0,0.0,0.0,0.0,0.0,0.0,0.0,0.0,0.0,0.0,0.0,0.0,0.0,0.0,0.0,0.0,0.0,0.0,0.0,0.0,0.0,0.0,0.0,0.0,0.0,0.0,0.0,0.0,0.0,0.0,0.0,0.0,0.0,0.0,0.0,0.0,0.0,0.0,0.0,0.0,0.0,0.0,0.0,0.0,0.0,0.0,0.0,0.0,0.0,0.0,0.0,-2.3101,-2.3101,-2.3101,-2.3101,-2.3101,-2.3101,-2.3101,-2.3101,-2.3101,-2.3101,0.0,0.0,0.0,0.0,0.0,0.0,0.0,0.0,0.0,0.0,0.0,0.0,0.0,0.0,0.0,0.0,0.0,0.0,0.0,0.0,0.0,0.0,0.0,0.0,0.0,0.0,0.0,0.0,0.0,0.0,0.0,0.0,0.0,0.0,0.0,0.0,0.0,0.0,0.0,0.0,0.0,0.0,0.0,0.0,0.0,0.0,0.0,0.0,0.0,0.0,0.0,0.0,0.0,0.0,0.0,0.0,0.0,0.0,0.0,0.0,0.0,0.0,0.0,0.0,0.0,0.0,0.0,0.0,0.0,0.0,0.0,0.0,0.0,0.0,0.0,0.0,0.0,0.0,0.0,0.0,0.0,0.0,0.0,0.0,0.0,0.0,0.0,0.0,0.0,0.0,0.0,0.0,0.0,0.0,0.0,0.0,0.0,0.0,0.0,0.0,0.0,0.0,-2.3159,-2.3101,-2.3101,-2.3101,-2.3101,-2.3101,-2.3101,-2.3101,-2.3101,-2.3101,0.0,0.0,0.0,0.0,0.0,0.0,0.0,0.0,0.0,0.0,0.0,0.0,0.0,0.0,0.0,0.0,0.0,0.0,0.0,0.0,0.0,0.0,0.0,0.0,0.0,0.0,0.0,0.0,0.0,0.0,0.0,0.0,0.0,0.0,0.0,0.0,0.0,0.0,0.0,0.0,0.0,0.0,0.0,0.0,0.0,0.0,0.0,0.0,0.0,0.0,0.0,0.0,0.0,0.0,0.0,0.0,0.0,0.0,0.0,0.0,0.0,0.0,0.0,0.0,0.0,0.0,0.0,0.0,0.0,0.0,0.0,0.0,0.0,0.0,0.0,0.0,0.0,0.0,0.0,0.0,0.0,0.0,0.0,0.0,0.0,0.0,0.0,0.0,0.0,0.0,0.0,0.0,0.0,0.0,0.0,0.0,0.0,0.0,0.0,0.0,0.0,0.0,-2.3379,-2.3101,-2.3101,-2.3101,-2.3101,-2.3101,-2.3101,-2.3101,-2.3101,-2.3101,0.0,0.0,0.0,0.0,0.0,0.0,0.0,0.0,0.0,0.0,0.0,0.0,0.0,0.0,0.0,0.0,0.0,0.0,0.0,0.0,0.0,0.0,0.0,0.0,0.0,0.0,0.0,0.0,0.0,0.0,0.0,0.0,0.0,0.0,0.0,0.0,0.0,0.0,0.0,0.0,0.0,0.0,0.0,0.0,0.0,0.0,0.0,0.0,0.0,0.0,0.0,0.0,0.0,0.0,0.0,0.0,0.0,0.0,0.0,0.0,0.0,0.0,0.0,0.0,0.0,0.0,0.0,0.0,0.0,0.0,0.0,0.0,0.0,0.0,0.0,0.0,0.0,0.0,0.0,0.0,0.0,0.0,0.0,0.0,0.0,0.0,0.0,0.0,0.0,0.0,0.0,0.0,0.0,0.0,0.0,0.0,0.0,0.0,0.0,0.0,0.0,0.0,-2.4043,-2.3881,-2.3881,-2.3881,-2.3828,-2.3574,-2.3555,-2.3437,-2.312,0.0,0.0,0.0,0.0,0.0,0.0,0.0,0.0,0.0,0.0,0.0,0.0,0.0,0.0,0.0,0.0,0.0,0.0,0.0,0.0,0.0,0.0,0.0,0.0,0.0,0.0,0.0,0.0,0.0,0.0,0.0,0.0,0.0,0.0,0.0,0.0,0.0,0.0,0.0,0.0,0.0,0.0,0.0,0.0,0.0,0.0,0.0,0.0,0.0,0.0,0.0,0.0,0.0,0.0,0.0,0.0,0.0,0.0,0.0,0.0,0.0,0.0,0.0,0.0,0.0,0.0,0.0,0.0,0.0,0.0,0.0,0.0,0.0,0.0,0.0,0.0,0.0,0.0,0.0,0.0,0.0,0.0,0.0,0.0,0.0,0.0,0.0,0.0,0.0,0.0,0.0,0.0,0.0,0.0,0.0,0.0,0.0,0.0,0.0,0.0,0.0,0.0,-2.4656,-2.4492,-2.4414,-2.4414,-2.4414,-2.4297,-2.4004,-2.3867,-2.373,-2.351,0.0,0.0,0.0,0.0,0.0,0.0,0.0,0.0,0.0,0.0,0.0,0.0,0.0,0.0,0.0,0.0,0.0,0.0,0.0,0.0,0.0,0.0,0.0,0.0,0.0,0.0,0.0,0.0,0.0,0.0,0.0,0.0,0.0,0.0,0.0,0.0,0.0,0.0,0.0,0.0,0.0,0.0,0.0,0.0,0.0,0.0,0.0,0.0,0.0,0.0,0.0,0.0,0.0,0.0,0.0,0.0,0.0,0.0,0.0,0.0,0.0,0.0,0.0,0.0,0.0,0.0,0.0,0.0,0.0,0.0,0.0,0.0,0.0,0.0,0.0,0.0,0.0,0.0,0.0,0.0,0.0,0.0,0.0,0.0,0.0,0.0,0.0,0.0,0.0,0.0,0.0,0.0,0.0,0.0,0.0,0.0,0.0,0.0,0.0,0.0,0.0,0.0,-2.5208,-2.4707,-2.4434,-2.4434,-2.4434,-2.4434,-2.4414,-2.4043,-2.3984,0.0,0.0,0.0,0.0,0.0,0.0,0.0,0.0,0.0,0.0,0.0,0.0,0.0,0.0,0.0,0.0,0.0,0.0,0.0,0.0,0.0,0.0,0.0,0.0,0.0,0.0,0.0,0.0,0.0,0.0,0.0,0.0,0.0,0.0,0.0,0.0,0.0,0.0,0.0,0.0,0.0,0.0,0.0,0.0,0.0,0.0,0.0,0.0,0.0,0.0,0.0,0.0,0.0,0.0,0.0,0.0,0.0,0.0,0.0,0.0,0.0,0.0,0.0,0.0,0.0,0.0,0.0,0.0,0.0,0.0,0.0,0.0,0.0,0.0,0.0,0.0,0.0,0.0,0.0,0.0,0.0,0.0,0.0,0.0,0.0,0.0,0.0,0.0,0.0,0.0,0.0,0.0,0.0,0.0,0.0,0.0,0.0,0.0,0.0,0.0,0.0,0.0,0.0,-2.5575,-2.5382,-2.5304,-2.5304,-2.5304,-2.5215,-2.4902,-2.4766,-2.4609,-2.4434,0.0,0.0,0.0,0.0,0.0,0.0,0.0,0.0,0.0,0.0,0.0,0.0,0.0,0.0,0.0,0.0,0.0,0.0,0.0,0.0,0.0,0.0,0.0,0.0,0.0,0.0,0.0,0.0,0.0,0.0,0.0,0.0,0.0,0.0,0.0,0.0,0.0,0.0,0.0,0.0,0.0,0.0,0.0,0.0,0.0,0.0,0.0,0.0,0.0,0.0,0.0,0.0,0.0,0.0,0.0,0.0,0.0,0.0,0.0,0.0,0.0,0.0,0.0,0.0,0.0,0.0,0.0,0.0,0.0,0.0,0.0,0.0,0.0,0.0,0.0,0.0,0.0,0.0,0.0,0.0,0.0,0.0,0.0,0.0,0.0,0.0,0.0,0.0,0.0,0.0,0.0,0.0,0.0,0.0,0.0,0.0,0.0,0.0,0.0,0.0,0.0,0.0,-2.6476,-2.6014,-2.5693,-2.5693,-2.5693,-2.5577,-2.5352,-2.5176,-2.5039,-2.4961,0.0,0.0,0.0,0.0,0.0,0.0,0.0,0.0,0.0,0.0,0.0,0.0,0.0,0.0,0.0,0.0,0.0,0.0,0.0,0.0,0.0,0.0,0.0,0.0,0.0,0.0,0.0,0.0,0.0,0.0,0.0,0.0,0.0,0.0,0.0,0.0,0.0,0.0,0.0,0.0,0.0,0.0,0.0,0.0,0.0,0.0,0.0,0.0,0.0,0.0,0.0,0.0,0.0,0.0,0.0,0.0,0.0,0.0,0.0,0.0,0.0,0.0,0.0,0.0,0.0,0.0,0.0,0.0,0.0,0.0,0.0,0.0,0.0,0.0,0.0,0.0,0.0,0.0,0.0,0.0,0.0,0.0,0.0,0.0,0.0,0.0,0.0,0.0,0.0,0.0,0.0,0.0,0.0,0.0,0.0,0.0,0.0,0.0,0.0,0.0,0.0,0.0,-2.741,-2.6428,-2.5693,-2.5693,-2.5693,-2.5693,-2.5693,-2.5371,-2.5293,-2.5654,0.0,0.0,0.0,0.0,0.0,0.0,0.0,0.0,0.0,0.0,0.0,0.0,0.0,0.0,0.0,0.0,0.0,0.0,0.0,0.0,0.0,0.0,0.0,0.0,0.0,0.0,0.0,0.0,0.0,0.0,0.0,0.0,0.0,0.0,0.0,0.0,0.0,0.0,0.0,0.0,0.0,0.0,0.0,0.0,0.0,0.0,0.0,0.0,0.0,0.0,0.0,0.0,0.0,0.0,0.0,0.0,0.0,0.0,0.0,0.0,-2.5689,-2.5635,0.0,0.0,0.0,0.0,0.0,0.0,0.0,0.0,0.0,0.0,0.0,0.0,0.0,0.0,0.0,0.0,0.0,0.0,0.0,0.0,0.0,0.0,0.0,0.0,0.0,0.0,0.0,0.0,0.0,0.0,0.0,0.0,0.0,0.0,0.0,0.0,0.0,0.0,0.0,0.0,-2.611,-2.5868,-2.5693,-2.5693,-2.5693,-2.5693,-2.5693,-2.5596,-2.5596,-2.5674,-2.5234,0.0,0.0,0.0,0.0,0.0,0.0,0.0,0.0,0.0,0.0,0.0,0.0,0.0,0.0,0.0,0.0,0.0,0.0,0.0,0.0,0.0,0.0,0.0,0.0,0.0,0.0,0.0,0.0,0.0,0.0,0.0,0.0,0.0,0.0,0.0,0.0,0.0,0.0,0.0,0.0,0.0,0.0,0.0,0.0,0.0,0.0,0.0,0.0,0.0,0.0,0.0,0.0,0.0,0.0,0.0,0.0,0.0,0.0,0.0,-2.5693,-2.5605,0.0,0.0,0.0,0.0,0.0,0.0,0.0,0.0,0.0,0.0,0.0,0.0,0.0,0.0,0.0,0.0,0.0,0.0,0.0,0.0,0.0,0.0,0.0,0.0,0.0,0.0,0.0,0.0,0.0,0.0,0.0,0.0,0.0,0.0,0.0,0.0,0.0,0.0,0.0,0.0,-2.6524,-2.6062,-2.5693,-2.5693,-2.5693,-2.5693,-2.5693,-2.5693,-2.5693,-2.5693,-2.5527,0.0,0.0,0.0,0.0,0.0,0.0,0.0,0.0,0.0,0.0,0.0,0.0,0.0,0.0,0.0,0.0,0.0,0.0,0.0,0.0,0.0,0.0,0.0,0.0,0.0,0.0,0.0,0.0,0.0,0.0,0.0,0.0,0.0,0.0,0.0,0.0,0.0,0.0,0.0,0.0,0.0,0.0,0.0,0.0,0.0,0.0,0.0,0.0,0.0,0.0,0.0,0.0,0.0,-2.5693,-2.5693,-2.5693,-2.5693,-2.5693,-2.5693,-2.5693,-2.5693,-2.5693,-2.5693,0.0,0.0,0.0,0.0,0.0,0.0,0.0,0.0,0.0,0.0,0.0,0.0,0.0,0.0,0.0,0.0,0.0,0.0,0.0,0.0,0.0,0.0,0.0,0.0,-2.5176,-2.5461,-2.6314,0.0,0.0,0.0,0.0,0.0,0.0,0.0,0.0,0.0,0.0,0.0,-2.7125,-2.6332,-2.5693,-2.5693,-2.5693,-2.5693,-2.5693,-2.5693,-2.5693,-2.5693,-2.5693,-2.5566,0.0,0.0,0.0,0.0,0.0,0.0,0.0,0.0,0.0,0.0,0.0,0.0,0.0,0.0,0.0,0.0,0.0,0.0,0.0,0.0,0.0,0.0,0.0,0.0,0.0,0.0,0.0,0.0,0.0,0.0,0.0,0.0,-2.3101,-2.3101,0.0,0.0,0.0,0.0,0.0,0.0,0.0,0.0,0.0,0.0,0.0,0.0,0.0,-2.5693,-2.5693,-2.5693,-2.5693,-2.5693,-2.5693,-2.5693,-2.5693,-2.5693,-2.5693,-2.5693,-2.5693,0.0,-2.5693,-2.5693,0.0,0.0,0.0,0.0,0.0,0.0,0.0,0.0,0.0,0.0,0.0,0.0,0.0,0.0,0.0,0.0,0.0,0.0,0.0,0.0,0.0,0.0,-2.5287,-2.5547,-2.5596,-2.5644,0.0,-2.5838,-2.6176,-2.7389,-2.6716,0.0,0.0,0.0,0.0,0.0,0.0,0.0,-2.5917,-2.5771,-2.5693,-2.5693,-2.5693,-2.5693,-2.5693,-2.5693,-2.5693,-2.5693,-2.5693,-2.5654,-2.5596,-2.5273,0.0,0.0,0.0,0.0,0.0,0.0,0.0,0.0,0.0,0.0,0.0,0.0,0.0,0.0,0.0,0.0,0.0,0.0,0.0,0.0,0.0,0.0,0.0,0.0,0.0,0.0,0.0,0.0,0.0,-2.3101,-2.3179,-2.3477,-2.3672,-2.3984,0.0,0.0,0.0,0.0,0.0,0.0,0.0,0.0,0.0,-2.5693,-2.5693,-2.581,-2.6094,-2.6094,-2.623,-2.6415,-2.6415,-2.6415,-2.6415,-2.6415,-2.6415,-2.6445,-2.6211,-2.6094,-2.6094,-2.5791,-2.5693,-2.5693,0.0,0.0,0.0,0.0,-2.5895,-2.6127,-2.6127,-2.6692,-2.7546,-2.8228,0.0,0.0,0.0,0.0,0.0,0.0,0.0,0.0,0.0,0.0,-2.5488,-2.5635,-2.5693,-2.5693,-2.5693,-2.5693,-2.5868,0.0,-2.6668,-2.6524,-2.5839,0.0,0.0,0.0,0.0,-2.5693,-2.5693,-2.5693,-2.5693,-2.5693,-2.5693,-2.5693,-2.5693,-2.5693,-2.5693,-2.5693,-2.5693,-2.5693,-2.5693,-2.5547,-2.5234,0.0,0.0,0.0,0.0,0.0,0.0,0.0,0.0,0.0,0.0,0.0,0.0,0.0,0.0,0.0,0.0,0.0,0.0,0.0,0.0,0.0,0.0,0.0,0.0,0.0,0.0,0.0,0.0,-2.3257,-2.3477,-2.3906,-2.4043,-2.4421,0.0,0.0,0.0,0.0,0.0,0.0,-2.5693,-2.5791,-2.5898,-2.5898,-2.5966,-2.623,-2.6543,-2.6543,-2.6699,-2.7012,-2.7012,-2.7012,-2.7012,-2.7012,-2.7012,-2.6992,-2.668,-2.6543,-2.6504,-2.5957,-2.5693,-2.5693,-2.5693,-2.5693,-2.5693,-2.5693,-2.5693,-2.5693,-2.5693,-2.5917,-2.6332,-2.7315,-2.7301,-2.7117,-2.8154,0.0,0.0,0.0,0.0,-2.6887,-2.5965,-2.5693,-2.5693,-2.5693,-2.5693,-2.5693,-2.5693,-2.5693,-2.5693,0.0,-2.6476,-2.6812,-2.5868,0.0,0.0,0.0,-2.5693,-2.5693,-2.5693,-2.5693,-2.5693,-2.5693,-2.5693,-2.5693,-2.5693,-2.5693,-2.5693,-2.5693,-2.5693,-2.5693,-2.5693,-2.5693,-2.5527,-2.5125,0.0,0.0,0.0,0.0,0.0,0.0,0.0,0.0,0.0,0.0,0.0,0.0,0.0,0.0,0.0,0.0,0.0,0.0,0.0,0.0,0.0,0.0,0.0,0.0,0.0,0.0,0.0,0.0,0.0,-2.4336,-2.4746,0.0,0.0,0.0,0.0,-2.5693,-2.5693,-2.5693,-2.5693,-2.6133,-2.6348,-2.6348,-2.6738,-2.6973,-2.6973,-2.6973,-2.6992,-2.7012,-2.7012,-2.7012,-2.7012,-2.7012,-2.7012,-2.7012,-2.6992,-2.6973,-2.6914,-2.6025,-2.5693,-2.5693,-2.5693,-2.5693,-2.5693,-2.5693,-2.5693,-2.5693,-2.5693,-2.6476,-2.7505,-2.7579,-2.7579,-2.7321,-2.6235,-2.5868,0.0,0.0,-2.5771,-2.5771,-2.5742,-2.5693,-2.5693,-2.5693,-2.5693,-2.5693,-2.5693,-2.5693,-2.5693,0.0,-2.5742,-2.5791,-2.5693,0.0,-2.5791,-2.5693,-2.5693,-2.5693,-2.5693,-2.5693,-2.5693,-2.5693,-2.5693,-2.5693,-2.5693,-2.5693,-2.5693,-2.5693,-2.5693,-2.5693,-2.5693,-2.5693,-2.5527,-2.5125,-2.5086,0.0,0.0,0.0,0.0,0.0,0.0,0.0,0.0,0.0,0.0,0.0,0.0,0.0,0.0,0.0,0.0,0.0,0.0,0.0,0.0,0.0,0.0,0.0,0.0,0.0,0.0,0.0,0.0,-2.4785,-2.5028,0.0,-2.5469,-2.5644,-2.5693,-2.5693,-2.5996,-2.6152,-2.6152,-2.6562,-2.6797,-2.6797,-2.7207,-2.7559,-2.7832,-2.8105,-2.8379,-2.8652,-2.8652,-2.8652,-2.8652,-2.8652,-2.8496,-2.8223,-2.7949,-2.7676,-2.7383,-2.6797,-2.6562,-2.6523,-2.6269,-2.6152,-2.6113,-2.5791,-2.5693,-2.5693,-2.5693,-2.6014,-2.638,-2.638,-2.638,-2.6284,-2.5839,-2.5693,-2.5693,-2.5693,-2.5937,-2.6152,-2.6152,-2.6348,-2.6562,-2.6562,-2.6562,-2.6562,-2.6562,-2.6562,-2.6562,-2.6562,-2.6064,-2.5693,-2.5693,-2.5693,-2.5693,-2.5693,-2.5693,-2.5693,-2.5693,-2.5693,-2.5693,-2.5693,-2.5693,-2.5693,-2.5693,-2.5693,-2.5693,-2.5693,-2.5693,-2.5693,-2.5693,-2.5693,-2.5615,-2.5508,-2.5215,-2.5047,0.0,0.0,0.0,0.0,0.0,0.0,0.0,0.0,0.0,0.0,0.0,0.0,0.0,0.0,0.0,0.0,0.0,0.0,0.0,0.0,0.0,0.0,0.0,0.0,0.0,-2.4453,-2.4805,-2.5234,-2.543,-2.5625,-2.5937,-2.6044,-2.6122,-2.6122,-2.6426,-2.666,-2.6816,-2.7226,-2.7519,-2.7656,-2.8086,-2.8437,-2.873,-2.9004,-2.9277,-2.9626,-2.9626,-2.9626,-2.9626,-2.9626,-2.9414,-2.9121,-2.8848,-2.8555,-2.8281,-2.7832,-2.7656,-2.7578,-2.6875,-2.6602,-2.6562,-2.6269,-2.6122,-2.6122,-2.6122,-2.6122,-2.6122,-2.6122,-2.6122,-2.6122,-2.6122,-2.6122,-2.6122,-2.6122,-2.6367,-2.6602,-2.6602,-2.6797,-2.7012,-2.7012,-2.7012,-2.7012,-2.7012,-2.7012,-2.7012,-2.7012,-2.6512,-2.6122,-2.6122,-2.6122,-2.6122,-2.6122,-2.6122,-2.6122,-2.6122,-2.6122,-2.6122,-2.6122,-2.6122,-2.6064,-2.5977,-2.5957,-2.5898,-2.5693,-2.5693,-2.5693,-2.5693,-2.5693,-2.5693,-2.5693,-2.5449,-2.5215,-2.5106,0.0,0.0,0.0,0.0,0.0,0.0,0.0,0.0,0.0,0.0,0.0,0.0,0.0,0.0,0.0,0.0,0.0,0.0,0.0,0.0,0.0,0.0,0.0,-2.5106,-2.5125,-2.5254,-2.5654,-2.6133,-2.6387,-2.6406,-2.6777,-2.7031,-2.7031,-2.7051,-2.7246,-2.7728,-2.8105,-2.8516,-2.8926,-2.9355,-2.9646,-2.9646,-2.9609,-2.9665,-2.9665,-2.9665,-2.9665,-2.9665,-2.9665,-2.9609,-2.9646,-2.9646,-2.9646,-2.9531,-2.9121,-2.8945,-2.8809,-2.7539,-2.7031,-2.7031,-2.7031,-2.7012,-2.7012,-2.7012,-2.7012,-2.7012,-2.7012,-2.7012,-2.7012,-2.7012,-2.7012,-2.7012,-2.7012,-2.7031,-2.7031,-2.7031,-2.7051,-2.7051,-2.7051,-2.7051,-2.7051,-2.7051,-2.7051,-2.7051,-2.7051,-2.7051,-2.7051,-2.7012,-2.7012,-2.7012,-2.7012,-2.7012,0.0,-2.7012,-2.7012,-2.7012,-2.7012,-2.7012,-2.6855,-2.6445,-2.6406,-2.623,-2.5732,-2.5713,-2.5693,-2.5693,-2.5693,-2.5693,-2.5693,-2.5693,-2.5527,-2.5145,0.0,0.0,0.0,0.0,0.0,0.0,0.0,0.0,0.0,0.0,0.0,0.0,0.0,0.0,0.0,0.0,0.0,0.0,0.0,0.0,0.0,-2.5047,-2.5106,-2.5106,-2.5352,-2.5723,-2.6152,-2.6309,-2.6504,-2.6816,-2.6953,-2.7148,-2.7461,-2.7773,-2.8125,-2.8555,-2.8984,-2.9277,-2.9394,-2.9805,-3.0019,-3.0019,-3.0351,-3.0527,-3.0527,-3.0527,-3.0527,-3.0527,-3.0527,-3.0351,-3.0019,-3.0019,-2.9844,-2.9607,-2.9434,-2.9394,-2.9258,-2.7988,-2.748,-2.7441,-2.7129,-2.7012,-2.7012,-2.7012,-2.7012,-2.7012,-2.7012,-2.7012,-2.7012,-2.7012,-2.7012,-2.7012,-2.7012,-2.7246,-2.748,-2.748,-2.7715,-2.7949,-2.7949,-2.7949,-2.7949,-2.7949,-2.7949,-2.7949,-2.7949,-2.7949,-2.7754,-2.7129,-2.7012,-2.7012,-2.7012,-2.7012,0.0,-2.7012,-2.7012,-2.7012,-2.7012,-2.7012,-2.6973,-2.6855,-2.6836,-2.666,-2.623,-2.6211,-2.6074,-2.5693,-2.5693,-2.5693,-2.5693,-2.5693,-2.5635,0.0,0.0,0.0,0.0,0.0,0.0,0.0,0.0,0.0,0.0,0.0,0.0,0.0,0.0,0.0,0.0,0.0,0.0,0.0,0.0,0.0,0.0,-2.5508,-2.5625,-2.5625,-2.584,-2.6172,-2.6602,-2.6973,-2.7285,-2.7519,-2.7871,-2.8184,-2.8491,-2.8691,-2.9004,-2.9434,-2.9687,-2.9922,-3.0117,-3.0351,-3.0488,-3.0488,-3.0762,-3.0898,-3.0898,-3.0898,-3.0898,-3.0898,-3.0898,-3.0742,-3.0488,-3.0488,-3.0351,-3.0117,-2.9922,-2.9824,0.0,0.0,0.0,0.0,0.0,-2.7539,-2.7539,-2.7539,-2.7539,-2.7539,-2.7539,-2.7539,-2.7539,-2.7539,-2.7539,-2.7539,-2.7539,-2.7734,-2.793,-2.793,-2.8105,-2.8301,-2.8301,-2.8301,-2.8301,-2.8301,-2.8301,-2.8301,-2.8301,-2.8301,0.0,-2.7637,-2.7539,-2.7539,-2.7539,-2.7539,-2.7539,-2.7539,-2.7539,-2.7539,-2.7539,-2.7539,-2.748,-2.7305,-2.7285,0.0,0.0,0.0,-2.6465,-2.6035,-2.6016,0.0,0.0,0.0,-2.5693,-2.5693,0.0,0.0,0.0,-2.459,-2.4598,0.0,0.0,0.0,0.0,0.0,0.0,0.0,0.0,0.0,0.0,0.0,0.0,0.0,0.0,0.0,0.0,-2.6133,-2.6426,-2.6523,-2.6582,-2.6738,-2.7109,-2.7832,-2.834,-2.8418,-2.9121,-2.9646,-2.9629,-2.9704,-2.9824,-3.0254,-3.0273,0.0,0.0,0.0,-3.0898,-3.0898,-3.0898,-3.0898,-3.0898,-3.0898,-3.0898,-3.0898,-3.0898,-3.0898,-3.0898,-3.0898,-3.0898,-3.0859,-3.0449,-3.0273,-3.0234,-2.9746,-2.9336,-2.8945,-2.8574,-2.8437,-2.8437,-2.8379,0.0,0.0,-2.8301,-2.8301,-2.8301,-2.8301,-2.8301,-2.8301,-2.8301,-2.832,-2.8359,-2.8359,-2.8359,-2.8359,-2.8359,-2.832,-2.8301,-2.8301,-2.8301,-2.8301,-2.8301,-2.8301,-2.8301,-2.8301,-2.8301,-2.8301,-2.8301,-2.8301,-2.8301,-2.8301,-2.8301,-2.8301,-2.8301,0.0,0.0,-2.7826,-2.7787,-2.7559,-2.7109,-2.7051,-2.6855,-2.6465,-2.6465,-2.6269,-2.583,-2.583,-2.581,-2.5752,-2.5752,-2.5752,-2.5752,-2.4914,-2.4531,0.0,0.0,0.0,0.0,0.0,0.0,0.0,0.0,0.0,0.0,0.0,0.0,0.0,0.0,0.0,-2.6191,-2.6328,-2.6641,-2.7376,-2.7715,-2.7949,-2.8027,-2.8203,-2.8574,-2.9258,-2.9528,-2.9707,-3.0059,-3.0078,-3.0273,-3.0742,-3.0762,-3.0801,-3.0898,-3.0898,-3.0898,-3.0898,-3.0898,-3.0898,-3.0898,0.0,0.0,-3.0898,-3.0898,-3.0898,-3.0898,-3.0898,-3.0898,-3.0879,-3.0801,-3.0762,-3.0684,-2.9883,-2.9512,-2.9434,-2.9355,-2.9372,-2.9277,-2.8926,-2.8789,-2.875,-2.8398,-2.8301,-2.8301,-2.8301,-2.8301,0.0,-2.8301,-2.8535,-2.8789,-2.8789,-2.8789,-2.8789,-2.8789,-2.8535,-2.8301,-2.8301,-2.8301,-2.8301,-2.8301,-2.8301,-2.8301,-2.8301,-2.8301,-2.8301,-2.8301,-2.8301,-2.8301,-2.8301,-2.8301,-2.8301,-2.8301,-2.8301,-2.8262,-2.8184,-2.8164,-2.7988,-2.7559,-2.7207,-2.6973,-2.6894,-2.6894,-2.6855,-2.6777,-2.6758,-2.6602,-2.6269,-2.6269,-2.6269,-2.625,-2.5674,-2.5293,0.0,0.0,0.0,0.0,0.0,0.0,0.0,0.0,0.0,0.0,0.0,-2.5469,-2.5654,0.0,-2.6133,-2.6348,-2.6758,-2.7246,-2.7891,-2.834,-2.8613,-2.8613,-2.8984,-2.9414,-2.9844,-3.0098,-3.0312,-3.0527,-3.0547,-3.0644,-3.0879,-3.0898,-3.0898,-3.0898,-3.0898,-3.0996,-3.1211,-3.0996,-3.0996,-3.1211,-3.0996,-3.0898,-3.0898,-3.0898,-3.0898,-3.0898,-3.0898,-3.0898,-3.0898,-3.0898,-3.0898,-3.084,-3.041,-3.0078,-2.9863,-2.9648,-2.9626,-2.9607,-2.9316,-2.9238,-2.9219,-2.9004,-2.8926,-2.8926,-2.8926,-2.8926,-2.8926,-2.8926,-2.9082,-2.9238,-2.9238,-2.9238,-2.9238,-2.9238,-2.9082,-2.8926,-2.8926,-2.8926,-2.8867,-2.8652,-2.8613,-2.8535,-2.832,-2.8301,-2.8301,-2.8301,-2.8301,-2.8301,-2.8301,-2.8301,-2.8301,-2.8301,-2.8301,-2.8301,-2.8301,-2.8301,-2.8203,-2.7988,-2.7773,-2.7559,-2.7344,-2.7344,-2.7246,-2.7012,-2.7012,-2.6914,-2.6699,-2.6699,-2.6699,-2.6699,-2.6484,-2.625,0.0,0.0,0.0,0.0,0.0,0.0,0.0,-2.541,-2.5693,-2.5693,-2.5693,-2.5713,-2.581,-2.6152,-2.6445,-2.6602,-2.7337,-2.793,-2.8359,-2.8848,-2.916,-2.916,-2.9785,-3.0234,-3.0332,-3.0664,-3.0898,-3.0898,-3.0898,-3.0898,-3.0898,-3.0898,-3.0937,-3.1016,-3.1016,-3.1211,-3.1641,-3.1309,-3.1309,-3.1641,-3.1211,-3.1016,-3.1016,-3.0937,-3.0898,-3.0898,-3.0898,-3.0898,-3.0898,-3.0898,-3.0898,-3.0898,-3.0898,-3.0664,-3.0293,-2.9961,-2.9824,-2.9805,-2.9726,-2.9744,-2.9668,-2.9646,-2.9626,-2.9626,-2.9626,-2.9626,-2.9626,-2.9626,-2.9685,-2.9744,-2.9744,-2.9744,-2.9744,-2.9744,-2.9685,-2.9626,-2.9626,-2.9626,-2.9473,-2.9121,-2.9043,-2.8926,-2.8594,-2.8535,-2.8476,-2.832,-2.8301,-2.8301,-2.8301,-2.8301,-2.8301,-2.8301,-2.8301,-2.8301,-2.8301,-2.8301,-2.8301,-2.8301,-2.8301,-2.8144,-2.7865,-2.7845,-2.7617,-2.7266,-2.7266,-2.7226,-2.7148,-2.7148,-2.7148,-2.7148,-2.7148,-2.709,-2.4297,-2.4875,-2.5371,-2.5019,-2.5293,-2.5566,0.0,-2.541,-2.5693,-2.5693,-2.5693,-2.581,-2.625,-2.6348,-2.6641,-2.7454,-2.791,-2.8359,-2.8789,-2.9551,-3.0059,-3.0059,-3.0137,-3.0351,-3.0781,-3.0859,-3.0898,-3.0898,-3.0898,-3.0898,-3.0898,-3.0898,-3.1055,-3.1445,-3.1445,-3.166,-3.209,-3.2051,-3.2051,-3.209,-3.166,-3.1445,-3.1426,-3.1055,-3.0898,-3.0898,-3.0898,-3.0898,-3.0898,-3.0898,-3.0898,-3.0898,-3.0898,-3.0859,-3.082,-3.0762,-3.0742,-3.0684,-3.0273,-3.0137,-3.0059,-2.9744,-2.9626,-2.9626,-2.9626,-2.9626,-2.9626,-2.9626,-2.9844,-3.0137,-3.0137,-3.0137,-3.0137,-3.0137,-2.9844,-2.9626,-2.9626,-2.9626,-2.9551,-2.9512,-2.9492,-2.9492,-2.9434,-2.9434,-2.916,-2.8418,-2.8301,-2.8301,-2.8301,-2.8301,-2.8301,-2.8301,-2.8301,-2.8301,-2.8301,-2.8301,-2.8301,-2.8301,-2.8301,-2.8262,-2.8223,-2.8223,-2.8203,-2.8144,-2.8144,-2.7969,-2.7598,-2.7598,-2.7598,-2.7598,-2.7598,-2.7383,-2.3926,-2.4883,-2.5577,-2.5176,-2.541,-2.5635,-2.5508,-2.5605,-2.5693,-2.5693,-2.5937,-2.6172,-2.6348,-2.6797,-2.7297,-2.7669,-2.8223,-2.8809,-2.9238,-2.9824,-3.0293,-3.0566,-3.0605,-3.0684,-3.0879,-3.0898,-3.0898,-3.0898,-3.0898,-3.0898,-3.0898,-3.1133,-3.1328,-3.1504,-3.1758,-3.209,-3.2519,-3.2285,-3.2285,-3.2519,-3.209,-3.1758,-3.1504,-3.1328,-3.1133,-3.0898,-3.0898,-3.0898,-3.0898,-3.0898,-3.0898,-3.0898,-3.0898,-3.0898,-3.0898,-3.0898,-3.0898,-3.0859,-3.0664,-3.0605,-3.0566,-3.0391,-3.0332,-3.0332,-3.0332,-3.0332,-3.0332,-3.0332,-3.0469,-3.0605,-3.0605,-3.0605,-3.0605,-3.0605,-3.0469,-3.0332,-3.0332,-3.0332,-3.0254,-2.998,-2.9941,-2.9863,-2.9665,-2.9626,-2.9509,-2.9082,-2.9043,-2.8945,-2.8691,-2.8652,-2.8574,-2.832,-2.8301,-2.8301,-2.8301,-2.8301,-2.8301,-2.8301,-2.8301,-2.8301,-2.8301,-2.8301,-2.8301,-2.8301,-2.8301,-2.8203,-2.8027,-2.8027,-2.8027,-2.8027,-2.8027,-2.793,-2.3984,-2.4824,-2.5508,-2.5293,-2.5488,-2.5693,-2.5693,-2.5693,-2.5693,-2.5693,-2.6094,-2.6426,-2.6543,-2.7168,-2.7767,-2.7865,-2.8437,-2.9062,-2.9512,-2.9922,-3.0371,-3.084,-3.0898,-3.0898,-3.0898,-3.0898,-3.0898,-3.0898,-3.0898,-3.0898,-3.0898,-3.1289,-3.1562,-3.1699,-3.2109,-3.2539,-3.2969,-3.2656,-3.2656,-3.2969,-3.2539,-3.2168,-3.1855,-3.1621,-3.1289,-3.0898,-3.0898,-3.0898,-3.0898,-3.0898,-3.0898,-3.0898,-3.0898,-3.0898,-3.0898,-3.0898,-3.0898,-3.0898,-3.0898,-3.0898,-3.0898,-3.0898,-3.0898,-3.0898,-3.0898,-3.0898,-3.0898,-3.0898,-3.0898,-3.0898,-3.0898,-3.0898,-3.0898,-3.0898,-3.0898,-3.0898,-3.0898,-3.0898,-3.0801,-3.0449,-3.0391,-3.0293,-2.998,-2.9941,-2.9941,-2.9941,-2.9941,-2.9726,-2.918,-2.9101,-2.8984,-2.8672,-2.8652,-2.8594,-2.8476,-2.8457,-2.8418,-2.8301,-2.8301,-2.8301,-2.8301,-2.8301,-2.8301,-2.8301,-2.8301,-2.8301,-2.8301,-2.8301,-2.8301,-2.8301,-2.8301,-2.8301,-2.4851,-2.5106,-2.5195,-2.5605,-2.5674,-2.5693,-2.5693,-2.5693,-2.5693,-2.5693,-2.6094,-2.6523,-2.6914,-2.7363,-2.7845,-2.8203,-2.8633,-2.9062,-2.9512,-2.9922,-3.0371,-3.084,-3.0898,-3.0898,-3.0898,-3.0898,-3.0898,-3.0898,-3.0898,-3.0898,-3.0898,-3.1289,-3.1719,-3.2129,-3.2559,-3.2969,-3.3398,-3.3379,-3.3379,-3.3398,-3.2969,-3.2773,-3.2734,-3.1894,-3.1289,-3.0898,-3.0898,-3.0898,-3.0898,-3.0898,-3.0898,-3.0898,-3.0898,-3.0898,-3.0898,-3.0898,-3.0898,-3.0898,-3.0898,-3.0898,-3.0898,-3.0898,-3.0898,-3.0898,-3.0898,-3.0898,-3.0898,-3.0898,-3.0898,-3.0898,-3.0898,-3.0898,-3.0898,-3.0898,-3.0898,-3.0898,-3.0898,-3.0898,-3.0879,-3.0879,-3.0859,-3.0859,-3.0859,-3.0859,-3.0859,-3.0859,-3.0859,-3.0527,-2.9668,-2.9551,-2.9551,-2.9531,-2.9587,-2.9355,-2.8945,-2.8906,-2.873,-2.832,-2.8301,-2.8301,-2.8301,-2.8301,-2.8301,-2.8301,-2.8301,-2.8301,-2.8301,-2.8301,-2.8301,-2.8301,-2.8301,-2.8301,-2.4551,-2.5059,-2.5547,-2.5654,-2.5693,-2.5693,-2.5693,-2.5693,-2.5693,-2.5693,-2.6094,-2.6523,-2.6934,-2.7363,-2.7865,-2.8223,-2.8652,-2.9062,-2.9512,-2.9922,-3.0371,-3.084,-3.0898,-3.0898,-3.0898,-3.0898,-3.0898,-3.0898,-3.0898,-3.1016,-3.1289,-3.1719,-3.2148,-3.2578,-3.2988,-3.3281,-3.3418,-3.3418,-3.3418,-3.3418,-3.2988,-3.2793,-3.2773,-3.2207,-3.1719,-3.1309,-3.1309,-3.1152,-3.0898,-3.0898,-3.0898,-3.0898,-3.0898,-3.0898,-3.0898,-3.0898,-3.0898,-3.0898,-3.0898,-3.0898,-3.0898,-3.0898,-3.0898,-3.0898,-3.0898,-3.0898,-3.0898,-3.0898,-3.0898,-3.0898,-3.0898,-3.0898,-3.0898,-3.0898,-3.0898,-3.0898,-3.0898,-3.0898,-3.0898,-3.0898,-3.0898,-3.0898,-3.0898,-3.0898,-3.0898,-3.0898,-3.0625,-3.0332,-3.0019,-2.9746,-2.9626,-2.9626,-2.9626,-2.9567,-2.9355,-2.9355,-2.9297,-2.916,-2.9141,-2.9141,-2.9141,-2.9141,-2.9141,-2.9141,-2.9141,-2.9004,-2.8711,-2.8711,-2.8574,-2.8301,-2.8301,-2.8437,-2.457,-2.5059,-2.5527,-2.5654,-2.5693,-2.5693,-2.5693,-2.5693,-2.5693,-2.5693,-2.6094,-2.6465,-2.6738,-2.7266,-2.7754,-2.8027,-2.8418,-2.8848,-2.9277,-2.9707,-3.0137,-3.0586,-3.0781,-3.0898,-3.0898,-3.0898,-3.0898,-3.0898,-3.0898,-3.1074,-3.1504,-3.1934,-3.2363,-3.2793,-3.3203,-3.3418,-3.3418,-3.3418,-3.3418,-3.3418,-3.3144,-3.2949,-3.2793,-3.2519,-3.2148,-3.1758,-3.1758,-3.1601,-3.1348,-3.1348,-3.1348,-3.1328,-3.1172,-3.1113,-3.1094,-3.0937,-3.0898,-3.0898,-3.0898,-3.0898,-3.0898,-3.0898,-3.0898,-3.0898,-3.0898,-3.0898,-3.0898,-3.0898,-3.0898,-3.0898,-3.0898,-3.0898,-3.0898,-3.0898,-3.0898,-3.0898,-3.0898,-3.0898,-3.0898,-3.0898,-3.0898,-3.0898,-3.0898,-3.0898,-3.0898,-3.0898,-3.0644,-3.0449,-3.0449,-3.0215,-3.0039,-3.0039,-3.0039,-2.998,-2.9805,-2.9785,-2.9726,-2.9646,-2.9626,-2.9626,-2.9626,-2.9626,-2.9626,-2.9626,-2.9626,-2.9434,-2.9141,-2.9141,-2.9023,-2.875,-2.875,-2.8887,-2.4891,-2.5125,-2.5195,-2.5577,-2.5693,-2.5693,-2.5693,-2.5693,-2.5693,-2.5693,-2.6074,-2.6367,-2.6387,-2.7102,-2.7669,-2.7708,-2.8008,-2.8418,-2.8848,-2.9297,-2.9726,-3.0137,-3.0605,-3.0898,-3.0898,-3.0898,-3.0898,-3.0898,0.0,-3.1094,-3.1523,-3.1953,-3.2363,-3.2812,-3.3223,-3.3418,-3.3418,-3.3418,-3.3418,-3.3418,-3.3418,-3.3203,-3.2832,-3.2832,-3.2598,-3.2207,-3.2207,-3.2248,-3.2229,-3.2229,-3.2229,-3.219,-3.1719,-3.1562,-3.1504,-3.1074,-3.0918,-3.0918,-3.0898,-3.0898,-3.0898,-3.0898,-3.0898,-3.0898,-3.0898,-3.0898,-3.0898,-3.0898,-3.0898,-3.0898,-3.0898,-3.0898,-3.0898,-3.0898,-3.0898,-3.0898,-3.0898,-3.0898,-3.0898,-3.0898,-3.0898,-3.0898,-3.0898,-3.0898,-3.0898,-3.0898,-3.0898,-3.0898,-3.0898,-3.0898,-3.0898,-3.0898,-3.0898,-3.0703,-3.0273,-3.0234,-3.0059,-2.9668,-2.9704,-2.9704,-2.9704,-2.9704,-2.9704,-2.9704,-2.9704,-2.9629,-2.9609,-2.9609,-2.959,-2.9626,-2.9626,-2.9646,-2.5047,-2.5312,-2.5586,-2.5654,-2.5693,-2.5693,-2.5693,-2.5693,-2.5693,-2.5693,-2.5771,-2.5996,-2.6328,-2.6562,-2.6914,-2.7611,-2.7806,-2.8086,-2.8809,-2.9297,-2.9726,-3.0137,-3.0605,-3.0898,-3.0898,-3.0898,-3.0898,-3.0898,-3.0898,-3.1211,-3.1953,-3.2109,-3.25,-3.3242,-3.3359,-3.3418,-3.3418,-3.3418,-3.3418,-3.3418,-3.3418,-3.3359,-3.3262,-3.3262,-3.3027,-3.2637,-3.2637,-3.2461,-3.2229,-3.2229,-3.2229,-3.2209,-3.2051,-3.2012,-3.1953,-3.1523,-3.1367,-3.1309,-3.0996,-3.0898,-3.0898,-3.0898,-3.0898,-3.0898,-3.0898,-3.0898,-3.0898,-3.0898,-3.0898,-3.0898,-3.0898,-3.0898,-3.0898,-3.0898,-3.0898,-3.0898,-3.0898,-3.0898,-3.0898,-3.0898,-3.0898,-3.0898,-3.0898,-3.0898,-3.0898,-3.0898,-3.0898,-3.0898,-3.0898,-3.0898,-3.0898,-3.0898,-3.0898,-3.084,-3.0723,-3.0703,-3.0664,-3.0566,-3.0547,-3.0547,-3.0547,-3.0547,-3.0547,-3.0547,-3.0547,-3.0391,-3.0039,-3.0039,-2.9883,-2.9626,-2.9626,-2.9726,-2.5312,-2.5547,-2.5693,-2.5693,-2.5693,-2.5693,-2.5693,-2.5693,-2.5693,-2.5693,-2.5693,-2.5771,-2.6055,-2.625,-2.6602,-2.7266,-2.7591,-2.7891,-2.8555,-2.918,-2.9648,-2.9902,-3.0488,-3.0898,-3.0898,-3.0898,-3.0898,-3.0898,-3.0898,-3.1269,-3.2129,-3.2229,-3.2559,-3.3398,-3.3418,-3.3418,-3.3418,-3.3418,-3.3418,-3.3418,-3.3418,-3.3418,-3.3418,-3.3418,-3.3301,-3.3066,0.0,-3.293,-3.2715,-3.2715,-3.2715,-3.2695,-3.2519,-3.2441,-3.2383,-3.1953,-3.1797,-3.1758,-3.1543,-3.1445,-3.1387,-3.1016,-3.0898,-3.0898,-3.0898,-3.0898,-3.0898,-3.0898,-3.0898,-3.0898,-3.0898,-3.0898,-3.0898,-3.0898,-3.0898,-3.0898,-3.0898,-3.0898,-3.0898,-3.0898,-3.0898,-3.0898,-3.0898,-3.0898,-3.0898,-3.0898,-3.0898,-3.0898,-3.0898,-3.0898,-3.0898,-3.0898,-3.0898,-3.0898,-3.0898,-3.0898,-3.0898,-3.0898,-3.0898,-3.0898,-3.0898,-3.0898,-3.0898,-3.0898,-3.0898,-3.0762,-3.0508,-3.0508,-3.0371,-3.0156,-3.0156,-3.0273,-2.5625,-2.5693,-2.5693,-2.5693,-2.5693,-2.5693,-2.5693,-2.5693,-2.5693,-2.5693,-2.5693,-2.5713,-2.5771,-2.6133,-2.6543,-2.7031,-2.7422,-2.7812,-2.8242,-2.9023,-2.9626,-2.9626,-3.0351,-3.0898,-3.0898,-3.0898,-3.0898,-3.0898,-3.0937,-3.1328,-3.219,-3.2226,-3.2617,-3.3398,-3.3418,-3.3418,-3.3418,-3.3418,-3.3418,-3.3418,-3.3418,-3.3418,-3.3418,-3.3418,-3.3418,-3.3418,-3.3418,-3.3418,-3.3418,-3.3418,-3.3418,-3.3379,-3.3027,-3.2871,-3.2832,-3.2402,-3.2246,-3.2246,-3.2248,-3.2229,-3.2111,-3.1309,-3.1055,-3.1055,-3.1055,-3.1055,-3.1055,-3.1055,-3.1055,-3.1055,-3.1055,-3.1016,-3.0976,-3.0976,-3.0937,-3.0898,-3.0898,-3.0898,-3.0898,-3.0898,-3.0898,-3.0898,-3.0898,-3.0898,-3.0898,-3.0898,-3.0898,-3.0898,-3.0898,-3.0898,-3.0898,-3.0898,-3.0898,-3.0898,-3.0898,-3.0898,-3.0898,-3.0898,-3.0898,-3.0898,-3.0898,-3.0898,-3.0898,-3.0898,-3.0898,-3.0898,-3.0898,-3.0898,-3.0898,-3.0898,-3.0898,-3.0898,-2.5674,-2.5693,-2.5693,-2.5693,-2.5693,-2.5693,-2.5693,-2.5693,-2.5693,-2.5693,-2.5693,-2.581,-2.6211,-2.6328,-2.6641,-2.7422,-2.7669,-2.7812,-2.8242,-2.9023,-2.9626,-2.9626,-3.0351,-3.0898,-3.0898,-3.0898,-3.0898,-3.0898,-3.1211,-3.1641,-3.2148,-3.25,-3.291,-3.3398,-3.3418,-3.3418,-3.3418,-3.3418,-3.3418,-3.3418,-3.3418,-3.3418,-3.3418,-3.3418,-3.3418,-3.3418,-3.3418,0.0,-3.3418,-3.3418,-3.3418,-3.3418,-3.334,-3.332,-3.3262,-3.2832,-3.2695,-3.2637,-3.2285,-3.2229,-3.2209,-3.1992,-3.1953,-3.1953,-3.1953,-3.1953,-3.1953,-3.1953,-3.1953,-3.1953,-3.1953,-3.168,-3.1406,-3.1406,-3.1133,-3.0898,-3.0898,-3.0898,-3.0898,-3.0898,-3.0898,-3.0898,-3.0898,-3.0898,-3.0898,-3.0898,-3.0898,-3.0898,-3.0898,-3.0898,-3.0898,-3.0898,-3.0898,-3.0898,-3.0898,-3.0898,-3.0898,-3.0898,-3.0898,-3.0898,-3.0898,-3.0898,-3.0898,-3.0898,-3.0898,-3.0898,-3.0898,-3.0898,-3.0898,-3.0898,-3.0898,-3.0898,-2.5693,-2.5693,-2.5693,-2.5693,-2.5693,-2.5693,-2.5693,-2.5693,-2.5693,-2.5693,-2.5693,-2.583,-2.6309,-2.6387,-2.666,-2.7571,-2.7728,-2.7812,-2.8242,-2.8828,-2.9316,-2.9607,-3.0137,-3.0625,-3.0859,-3.0898,-3.0898,-3.0898,-3.1484,-3.1953,-3.2209,-3.2773,-3.3203,-3.3418,-3.3418,-3.3418,-3.3418,-3.3418,-3.3418,-3.3418,-3.3418,-3.3418,-3.3418,-3.3418,-3.3418,-3.3418,-3.3418,-3.3418,-3.3418,-3.3418,-3.3418,-3.3418,-3.3418,-3.3418,-3.3398,-3.3184,-3.3125,-3.3086,-3.2891,-3.2812,-3.2812,-3.2812,-3.2519,-3.2229,-3.2229,-3.2229,-3.2229,-3.2229,-3.2229,-3.2229,-3.2229,-3.2012,-3.1797,-3.1562,-3.1191,-3.0898,-3.0898,-3.0898,-3.0898,-3.0898,-3.0898,-3.0898,-3.0898,-3.0898,-3.0898,-3.0898,-3.0898,-3.0898,-3.0898,-3.0898,-3.0898,-3.0898,-3.0898,-3.0898,-3.0898,-3.0898,-3.0898,-3.0898,-3.0898,-3.0898,-3.0898,-3.0898,-3.0898,-3.0898,-3.0898,-3.0898,-3.0898,-3.0898,-3.0898,-3.0898,-3.0898,-3.0898,-2.5693,-2.5693,-2.5693,-2.5693,-2.5693,-2.5693,-2.5693,-2.5693,-2.5693,-2.5693,-2.5771,-2.6016,-2.6445,-2.6602,-2.6914,-2.7676,-2.7865,-2.791,-2.8242,-2.8652,-2.9082,-2.9512,-2.9941,-3.0371,-3.084,-3.0898,-3.0898,-3.0898,-3.168,-3.2307,-3.2422,-3.3066,-3.3418,-3.3418,-3.3418,-3.3418,-3.3418,-3.3418,-3.3418,-3.3418,-3.3418,-3.3418,-3.3418,-3.3418,-3.3418,-3.3418,-3.3418,-3.3418,-3.3418,-3.3418,-3.3418,-3.3418,-3.3418,-3.3418,-3.3418,-3.3418,-3.3418,-3.3418,-3.3418,-3.3418,-3.3418,-3.3418,-3.2969,-3.2441,-3.2441,-3.2441,-3.2441,-3.2441,-3.2441,-3.2441,-3.2441,-3.2363,-3.2168,-3.1641,-3.1269,-3.0996,-3.0918,-3.0898,-3.0898,-3.0898,-3.0898,-3.0898,-3.0898,-3.0898,-3.0898,-3.0898,-3.0898,-3.0898,-3.0898,-3.0898,-3.0898,-3.0898,-3.0898,-3.0898,-3.0898,-3.0898,-3.0898,-3.0898,-3.0898,-3.0898,-3.0898,-3.0898,-3.0898,-3.0898,-3.0898,-3.0898,-3.0898,-3.0898,-3.0898,-3.0898,-3.0898,-3.0898,-2.5693,-2.5693,-2.5693,-2.5693,-2.5693,-2.5693,-2.5693,-2.5693,-2.5693,-2.5693,-2.6055,-2.6465,-2.6875,-2.7285,-2.7748,-2.8164,-2.8242,-2.8242,-2.8281,-2.8652,-2.9082,-2.9512,-2.9941,-3.0371,-3.084,-3.0898,-3.0898,-3.0898,-3.168,-3.25,-3.3262,-3.3379,-3.3418,-3.3418,-3.3418,-3.3418,-3.3418,-3.3418,-3.3418,-3.3418,-3.3418,-3.3418,-3.3418,-3.3418,-3.3418,-3.3418,-3.3418,-3.3418,0.0,-3.3418,-3.3418,-3.3418,-3.3418,-3.3418,-3.3418,-3.3418,-3.3418,-3.3418,-3.3418,-3.3418,-3.3418,-3.3418,-3.3379,-3.3301,-3.3301,-3.3301,-3.3301,-3.3301,-3.3301,-3.3301,-3.3301,-3.3027,-3.2519,-3.1719,-3.1484,-3.1348,-3.0976,-3.0898,-3.0898,-3.0898,-3.0898,-3.0898,-3.0898,-3.0898,-3.0898,-3.0898,-3.0898,-3.0898,-3.0898,-3.0898,-3.0898,-3.0898,-3.0898,-3.0898,-3.0898,-3.0898,-3.0898,-3.0898,-3.0898,-3.0898,-3.0898,-3.0898,-3.0898,-3.0898,-3.0898,-3.0898,-3.0898,-3.0898,-3.0898,-3.0898,-3.0898,-3.0898,-2.5693,-2.5693,-2.5693,-2.5693,-2.5693,-2.5693,-2.5693,-2.5693,-2.5693,-2.5693,-2.6094,-2.6523,-2.6934,-2.7363,-2.7865,-2.8223,0.0,0.0,-2.8301,-2.8437,-2.8789,-2.9548,-2.9726,-3.0098,-3.082,-3.0898,-3.0996,-3.125,-3.1836,-3.2422,-3.3008,-3.3281,-3.3418,-3.3418,-3.3418,-3.3418,-3.3418,-3.3418,-3.3418,-3.3418,-3.3418,-3.3418,-3.3418,-3.3418,-3.3418,-3.3418,-3.3418,-3.3418,0.0,-3.3418,-3.3418,-3.3418,-3.3418,-3.3418,-3.3418,-3.3418,-3.3418,-3.3418,-3.3418,-3.3418,-3.3418,-3.3418,-3.3418,-3.3418,-3.3418,-3.3418,-3.3418,-3.3418,-3.3418,-3.3418,-3.3418,-3.3105,-3.2715,-3.2363,-3.209,-3.1797,-3.1367,-3.1269,-3.1191,-3.0937,-3.0898,-3.0898,-3.0898,-3.0898,-3.0898,-3.0898,-3.0898,-3.0898,-3.0898,-3.0898,-3.0898,-3.0898,-3.0898,-3.0898,-3.0898,-3.0898,-3.0898,-3.0898,-3.0898,-3.0898,-3.0898,-3.0898,-3.0898,-3.0898,-3.0898,-3.0898,-3.0898,-3.0898,-3.0898,-3.0937,-3.1825,-3.2207,-2.5693,-2.5693,-2.5693,-2.5693,-2.5693,-2.5693,-2.5693,-2.5693,-2.5693,-2.5693,-2.6191,-2.666,-2.6953,-2.748,-2.7949,0.0,0.0,-2.8301,-2.8301,-2.8301,-2.8613,-2.9528,-2.9626,-2.9922,-3.0801,-3.0898,-3.1074,-3.1484,-3.1797,-3.2207,-3.2773,-3.3066,-3.3301,-3.3418,-3.3418,-3.3418,-3.3418,-3.3418,-3.3418,-3.3418,-3.3418,-3.3418,-3.3418,-3.3418,-3.3418,-3.3418,-3.3418,-3.3418,0.0,-3.3418,-3.3418,-3.3418,-3.3418,-3.3418,-3.3418,-3.3418,-3.3418,-3.3418,-3.3418,-3.3418,-3.3418,-3.3418,-3.3418,-3.3418,-3.3418,-3.3418,-3.3418,-3.3418,-3.3418,-3.3418,-3.3418,-3.3203,-3.2949,-3.2832,-3.2559,-3.2226,-3.1797,-3.1601,-3.1426,-3.1133,-3.0976,-3.0898,-3.0898,-3.0898,-3.0898,-3.0898,-3.0898,-3.0898,-3.0898,-3.0898,-3.0898,-3.0898,-3.0898,-3.0898,-3.0898,-3.0898,-3.0898,-3.0898,-3.0898,-3.0898,-3.0898,-3.0898,-3.0898,-3.0898,-3.0898,-3.0898,-3.0898,-3.0898,-3.0898,-3.0937,-3.2416,-3.336,-2.5693,-2.5693,-2.5693,-2.5693,-2.5693,-2.5693,-2.5693,-2.5693,-2.5693,-2.5693,-2.6376,-2.7012,-2.7012,-2.7715,-2.8281,-2.8301,0.0,0.0,-2.8301,-2.8301,-2.8613,-2.9528,-2.9626,-2.9922,-3.0801,-3.0898,-3.1074,-3.1484,-3.1523,0.0,-3.2754,-3.2793,-3.2988,-3.3418,-3.3418,-3.3418,-3.3418,-3.3418,-3.3418,-3.3418,-3.3418,-3.3418,-3.3418,-3.3418,-3.3418,-3.3418,-3.3418,-3.3418,0.0,-3.3418,-3.3418,-3.3418,-3.3418,-3.3418,-3.3418,-3.3418,-3.3418,-3.3418,-3.3418,-3.3418,-3.3418,-3.3418,-3.3418,-3.3418,-3.3418,-3.3418,-3.3418,-3.3418,-3.3418,-3.3418,-3.3418,-3.3418,-3.3301,-3.2891,-3.2793,-3.2676,-3.2246,-3.1816,-3.1523,-3.1504,-3.1172,-3.0898,-3.0898,-3.0898,-3.0898,-3.0898,-3.0898,-3.0898,-3.0898,-3.0898,-3.0898,-3.0898,-3.0898,-3.0898,-3.0898,-3.0898,-3.0898,-3.0898,-3.0898,-3.0898,-3.0898,-3.0898,-3.0898,-3.0898,-3.0898,-3.0898,-3.0898,-3.0898,-3.0898,-3.0937,-3.2416,-3.3845,-2.5693,-2.5693,-2.5693,-2.5693,-2.5693,-2.5693,-2.5693,-2.5693,-2.5771,-2.6113,-2.6621,-2.7109,-2.7402,-2.791,-2.8301,-2.8301,0.0,0.0,0.0,-2.8301,-2.8496,-2.9062,-2.9648,-3.0234,-3.084,-3.0898,-3.0937,-3.1074,-3.1348,-3.1641,-3.1914,-3.248,-3.2988,-3.3418,-3.3418,-3.3418,-3.3418,-3.3418,-3.3418,-3.3418,-3.3418,-3.3418,-3.3418,-3.3418,-3.3418,-3.3418,-3.3418,-3.3418,0.0,-3.3418,-3.3418,-3.3418,-3.3418,-3.3418,-3.3418,-3.3418,-3.3418,-3.3418,-3.3418,-3.3418,-3.3418,-3.3418,-3.3418,-3.3418,-3.3418,-3.3418,-3.3418,-3.3418,-3.3418,-3.3418,-3.3418,-3.3418,-3.3379,-3.3262,-3.3223,-3.3105,-3.2695,-3.248,-3.2305,-3.2012,-3.1621,-3.1328,-3.1328,-3.1074,-3.0898,-3.0898,-3.0898,-3.0898,-3.0898,-3.0898,-3.0898,-3.0898,-3.0898,-3.0898,-3.0898,-3.0898,-3.0898,-3.0898,-3.0898,-3.0898,-3.0898,-3.0898,-3.0898,-3.0898,-3.0898,-3.0898,-3.0898,-3.0898,-3.194,-3.3923,-3.5431,-3.6918,-2.5693,-2.5693,-2.5693,-2.5693,-2.5693,-2.5693,-2.5693,-2.5693,-2.581,-2.6289,-2.6719,-2.7148,-2.763,-2.8008,-2.8301,-2.8301,-2.8301,0.0,-2.8301,-2.8301,-2.8516,-2.9101,-2.9785,-3.0371,-3.084,-3.0898,-3.0898,-3.0898,-3.1133,-3.1348,-3.1504,-3.2031,-3.2519,-3.293,-3.3262,-3.3418,-3.3418,-3.3418,-3.3418,-3.3418,-3.3418,-3.3418,-3.3418,-3.3418,-3.3418,-3.3418,-3.3418,-3.3418,0.0,-3.3418,-3.3418,-3.3418,-3.3418,-3.3418,-3.3418,-3.3418,-3.3418,-3.3418,-3.3418,-3.3418,-3.3418,-3.3418,-3.3418,-3.3418,-3.3418,-3.3418,-3.3418,-3.3418,-3.3418,-3.3418,-3.3418,-3.3418,-3.3418,-3.3418,-3.3418,-3.334,-3.3086,-3.291,-3.2715,-3.2461,-3.2051,-3.1719,-3.1543,-3.1309,-3.1074,-3.0918,-3.0898,-3.0898,-3.0898,-3.0898,-3.0898,-3.0898,-3.0898,-3.0898,-3.0898,-3.0898,-3.0898,-3.0898,-3.0898,-3.0898,-3.0898,-3.0898,-3.0898,-3.0898,-3.0898,-3.117,-3.171,-3.171,-3.3069,-3.5613,-3.6547,-3.815,0.0,-2.5693,-2.5693,-2.5693,-2.5693,-2.5693,-2.5693,-2.5693,0.0,-2.6348,-2.6738,-2.7148,-2.7669,-2.8027,-2.8301,-2.8301,-2.8301,-2.8301,-2.8301,-2.832,-2.8652,-2.9528,-2.9941,-3.0371,-3.084,-3.0898,-3.0898,-3.0898,-3.0898,-3.1055,-3.1445,-3.1504,-3.1699,-3.2109,-3.291,-3.334,-3.3379,-3.3398,-3.3418,-3.3418,-3.3418,-3.3418,-3.3418,-3.3418,-3.3418,0.0,-3.3418,0.0,0.0,-3.3418,-3.3418,-3.3418,-3.3418,-3.3418,-3.3418,-3.3418,-3.3418,-3.3418,-3.3418,-3.3418,-3.3418,-3.3418,-3.3418,-3.3418,-3.3418,-3.3418,-3.3418,-3.3418,-3.3418,-3.3418,-3.3418,-3.3418,-3.3418,-3.3418,-3.3418,-3.3418,-3.3418,-3.3105,-3.2832,-3.2832,-3.25,-3.209,-3.168,-3.1562,-3.1387,-3.0996,-3.0918,-3.0898,-3.0898,-3.0898,-3.0898,-3.0898,-3.0898,-3.0898,-3.0898,-3.0898,-3.0898,-3.0898,-3.0898,-3.0898,-3.0898,-3.0898,-3.0898,-3.0898,-3.0995,-3.171,-3.3077,-3.3325,-3.4406,-3.6252,-3.6386,-3.8186,-2.5693,0.0,-2.5693,-2.5693,-2.5693,-2.5693,0.0,-2.5693,0.0,0.0,0.0,0.0,0.0,0.0,-2.8301,-2.8301,-2.8301,-2.8301,-2.8301,-2.8574,-2.8965,-2.9512,-2.9941,-3.0371,-3.084,-3.0898,-3.0898,-3.0898,-3.0898,-3.0937,-3.1035,-3.1348,-3.1562,-3.166,-3.2187,-3.2617,-3.293,-3.3262,-3.3418,-3.3418,-3.3418,-3.3418,-3.3418,-3.3418,-3.3418,-3.3418,-3.3418,0.0,-3.3418,-3.3418,-3.3418,-3.3418,-3.3418,-3.3418,-3.3418,-3.3418,-3.3418,-3.3418,-3.3418,-3.3418,-3.3418,-3.3418,-3.3418,-3.3418,-3.3418,-3.3418,-3.3418,-3.3418,-3.3418,-3.3418,-3.3418,-3.3418,-3.3418,-3.3418,-3.3418,-3.3418,-3.3418,-3.334,-3.3281,-3.3281,-3.293,-3.2617,-3.2519,-3.1953,-3.1484,-3.1387,-3.1094,-3.0898,-3.0898,-3.0898,-3.0898,-3.0898,-3.0898,-3.0898,-3.0898,-3.0898,-3.0898,-3.0898,-3.0898,-3.0898,-3.0898,-3.0898,-3.0898,-3.0898,-3.1977,-3.2737,-3.3134,-3.5758,-3.7332,-3.7801,-3.9346,-4.0533,-2.5693,-2.5693,-2.5693,-2.5693,-2.5693,-2.5693,-2.5693,0.0,0.0,0.0,0.0,0.0,0.0,-2.8301,-2.8301,-2.8301,-2.8301,-2.8301,-2.8301,-2.8652,-2.9082,-2.9512,-2.9941,-3.0371,0.0,-3.0898,-3.0898,-3.0898,-3.0898,-3.0898,-3.0898,-3.1113,-3.123,-3.123,-3.1641,-3.207,-3.25,-3.293,-3.3144,-3.3144,-3.332,-3.3418,-3.3418,-3.3418,-3.3418,-3.3418,-3.3418,0.0,-3.3418,-3.3418,-3.3418,-3.3418,-3.3418,-3.3418,-3.3418,-3.3418,-3.3418,-3.3418,-3.3418,-3.3418,-3.3418,-3.3418,-3.3418,-3.3418,-3.3418,-3.3418,-3.3418,-3.3418,-3.3418,-3.3418,-3.3418,-3.3418,-3.3418,-3.3418,-3.3418,-3.3418,-3.3418,-3.3418,-3.3418,-3.3418,-3.3242,-3.3027,-3.2832,-3.2402,-3.1973,-3.1582,-3.1328,-3.1113,-3.0918,-3.0898,-3.0898,-3.0898,-3.0898,-3.0898,-3.0898,-3.0898,-3.0898,-3.0898,-3.0898,-3.0898,-3.0898,-3.0898,-3.0898,-3.0898,-3.3042,-3.3896,-3.3449,-3.6704,-3.8554,-3.9086,-4.0196,-4.1205,-2.5693,-2.5693,-2.5693,-2.5693,-2.5693,-2.5693,-2.5693,0.0,0.0,0.0,0.0,0.0,0.0,-2.8301,-2.8301,-2.8301,-2.8301,-2.8301,-2.8301,-2.8711,-2.916,-2.9531,-3.0,-3.0449,-3.0859,-3.0898,-3.0898,-3.0898,-3.0898,-3.0898,-3.0898,-3.0898,-3.0898,-3.0898,-3.123,-3.1601,-3.1973,-3.2461,-3.2695,-3.2695,-3.3125,-3.332,-3.332,-3.3398,-3.3418,-3.3418,0.0,0.0,-3.3418,-3.3418,-3.3418,-3.3418,-3.3418,-3.3418,-3.3418,-3.3418,-3.3418,-3.3418,-3.3418,-3.3418,-3.3418,-3.3418,-3.3418,-3.3418,-3.3418,-3.3418,-3.3418,-3.3418,-3.3418,-3.3418,-3.3418,-3.3418,-3.3418,-3.3418,-3.3418,-3.3418,-3.3418,-3.3418,-3.3418,-3.3418,-3.3418,-3.3301,-3.2949,-3.2832,-3.2559,-3.1816,-3.166,-3.1465,-3.1035,-3.0996,-3.0957,-3.0898,-3.0898,-3.0898,-3.0898,-3.0898,-3.0898,-3.0898,-3.0898,-3.0898,-3.0898,-3.0898,-3.0898,-3.0898,-3.381,-3.4979,-3.421,-3.7266,-3.9266,-4.0363,-4.0435,-4.137,-2.5693,-2.5693,-2.5693,-2.5693,-2.5693,-2.5693,-2.5693,0.0,0.0,0.0,0.0,0.0,0.0,-2.8301,-2.8301,-2.8301,-2.8301,-2.8301,-2.8301,-2.8965,-2.9492,-2.957,-3.0293,-3.082,-3.0879,-3.0898,-3.0898,-3.0898,-3.0898,-3.0898,-3.0898,-3.0898,-3.0898,-3.0898,-3.0957,-3.1016,-3.1094,-3.1875,-3.2266,-3.2266,-3.2695,-3.2891,-3.291,-3.3262,-3.3418,-3.3418,0.0,-3.3418,-3.3418,-3.3418,-3.3418,-3.3418,-3.3418,-3.3418,-3.3418,-3.3418,-3.3418,-3.3418,-3.3418,-3.3418,-3.3418,-3.3418,-3.3418,-3.3418,-3.3418,-3.3418,-3.3418,-3.3418,-3.3418,-3.3418,-3.3418,-3.3418,-3.3418,-3.3418,-3.3418,-3.3418,-3.3418,-3.3418,-3.3418,-3.3418,-3.3418,-3.3398,-3.334,-3.3027,-3.2754,-3.2617,-3.2305,-3.1914,-3.1484,-3.1426,-3.1289,-3.0937,-3.0898,-3.0898,-3.0898,-3.0898,-3.0898,-3.0898,-3.0898,-3.0898,-3.0898,-3.0898,-3.0898,-3.0898,-3.381,-3.5424,-3.5747,-3.9152,-4.118,-4.1883,-4.2332,-4.2718,-2.5693,-2.5693,-2.5693,-2.5693,-2.5693,-2.5693,0.0,0.0,0.0,0.0,0.0,0.0,0.0,-2.8301,-2.8301,-2.8301,-2.8301,-2.8379,-2.8594,-2.918,-2.9648,-2.9883,0.0,-3.0898,-3.0898,-3.0898,-3.0898,-3.0898,-3.0898,-3.0898,-3.0898,-3.0898,-3.0898,-3.0898,-3.0898,-3.0898,-3.0898,-3.1289,-3.1601,-3.1816,-3.2246,-3.2578,-3.2793,-3.2988,-3.3203,-3.3418,0.0,-3.3418,-3.3418,-3.3418,-3.3418,-3.3418,-3.3418,-3.3418,-3.3418,-3.3418,-3.3418,-3.3418,-3.3418,-3.3418,-3.3418,-3.3418,-3.3418,-3.3418,-3.3418,-3.3418,-3.3418,-3.3418,-3.3418,-3.3418,-3.3418,-3.3418,-3.3418,-3.3418,-3.3418,-3.3418,-3.3418,-3.3418,-3.3418,-3.3418,-3.3418,-3.3418,-3.3418,-3.3262,-3.3066,-3.2832,-3.2637,-3.2363,-3.1914,-3.1875,-3.1699,-3.1269,-3.123,-3.1133,-3.0918,-3.0898,-3.0898,-3.0898,-3.0898,-3.0898,-3.0898,-3.0898,-3.1267,-3.2092,-3.4497,-3.6385,-3.7702,-4.0477,-4.2057,-4.2665,-4.2861,-4.2986,-2.5693,-2.5693,-2.5693,-2.5693,0.0,0.0,0.0,0.0,0.0,0.0,0.0,0.0,0.0,-2.8223,-2.8301,-2.8301,-2.8301,-2.8437,-2.8867,-2.9297,-2.9726,-3.0137,-3.0605,-3.0898,-3.0898,-3.0898,-3.0898,-3.0898,-3.0898,-3.0898,-3.0898,-3.0898,-3.0898,-3.0898,-3.0898,-3.0898,-3.0898,-3.0898,-3.1055,-3.1367,-3.1816,-3.2187,-3.25,-3.2598,-3.2871,-3.3281,-3.3281,-3.332,-3.3418,-3.3418,-3.3418,-3.3418,-3.3418,-3.3418,-3.3418,-3.3418,-3.3418,-3.3418,-3.3418,-3.3418,-3.3418,-3.3418,-3.3418,-3.3418,-3.3418,-3.3418,-3.3418,-3.3418,-3.3418,-3.3418,-3.3418,-3.3418,-3.3418,-3.3418,-3.3418,-3.3418,-3.3418,-3.3418,-3.3418,-3.3418,-3.3418,-3.3418,-3.3418,-3.3418,-3.332,-3.2988,-3.2949,-3.2793,-3.2363,-3.2324,-3.2109,-3.1582,-3.1523,-3.1348,-3.0918,-3.0898,-3.0898,-3.0898,-3.0898,-3.0898,-3.0898,-3.1228,-3.194,-3.3077,-3.5424,-3.7451,-3.9078,-4.1175,-4.2489,-4.2986,-4.2986,-4.2986,-2.5693,-2.5693,-2.5693,-2.5693,-2.5693,0.0,-2.5693,-2.5693,0.0,-2.6348,0.0,0.0,-2.7559,-2.8027,-2.8301,-2.8301,-2.8301,-2.8437,-2.8867,-2.9297,-2.9726,-3.0137,-3.0605,-3.0898,-3.0898,-3.0898,-3.0898,-3.0898,-3.0898,-3.0898,-3.0898,-3.0898,-3.0898,-3.0898,-3.0898,-3.0898,-3.0898,-3.0898,-3.0898,-3.0937,-3.1367,-3.1582,-3.1621,-3.2031,-3.2441,-3.2832,-3.2832,-3.3066,-3.3418,-3.3418,-3.3418,-3.3418,-3.3418,-3.3418,-3.3418,-3.3418,-3.3418,-3.3418,-3.3418,-3.3418,-3.3418,-3.3418,-3.3418,-3.3418,-3.3418,-3.3418,-3.3418,-3.3418,-3.3418,-3.3418,-3.3418,-3.3418,-3.3418,-3.3418,-3.3418,-3.3418,-3.3418,-3.3418,-3.3418,-3.3418,-3.3418,-3.3418,-3.3418,-3.3418,-3.3418,-3.3379,-3.3379,-3.3223,-3.2812,-3.2754,-3.2441,-3.1601,-3.1523,-3.1348,-3.0918,-3.0898,-3.0898,-3.0898,-3.0898,-3.0898,-3.0898,-3.2207,-3.2964,-3.3077,-3.6424,-3.8445,-3.9078,-4.1175,-4.2489,-4.2986,-4.2986,-4.2986,-2.5693,-2.5693,-2.5693,-2.5693,-2.5693,0.0,0.0,-2.5693,-2.581,-2.6289,-2.6602,0.0,-2.7891,-2.8184,-2.8301,-2.8301,-2.8301,-2.8535,-2.9238,-2.9473,-2.9844,-3.0547,-3.0781,-3.0898,-3.0898,-3.0898,-3.0898,-3.0898,-3.0898,-3.0898,-3.0898,-3.0898,-3.0898,-3.0898,-3.0898,-3.0898,-3.0898,-3.0898,-3.0898,-3.0898,-3.1055,-3.1269,-3.1523,-3.168,-3.1992,-3.2402,-3.2402,-3.2637,-3.3027,-3.3027,-3.3184,-3.3418,-3.3418,-3.3418,-3.3418,-3.3418,-3.3418,-3.3418,-3.3418,-3.3418,-3.3418,-3.3418,-3.3418,-3.3418,-3.3418,-3.3418,-3.3418,-3.3418,-3.3418,-3.3418,-3.3418,-3.3418,-3.3418,-3.3418,-3.3418,-3.3418,-3.3418,-3.3418,-3.3418,-3.3418,-3.3418,-3.3418,-3.3418,-3.3418,-3.3418,-3.3418,-3.3418,-3.3359,-3.3203,-3.3184,-3.2949,-3.2383,-3.1836,-3.1348,-3.0918,-3.0898,-3.0898,-3.0898,-3.0898,-3.1325,-3.2264,-3.2794,-3.4086,-3.6268,-3.7958,-3.9551,-4.1016,-4.2163,-4.2816,-4.2986,-4.2986,-4.2986,-2.5693,-2.5693,-2.5693,-2.5693,0.0,0.0,-2.5693,-2.5693,-2.581,-2.6289,-2.6836,-2.7402,-2.7988,-2.8203,-2.8301,-2.8301,-2.8301,-2.8594,-2.9509,-2.9626,-2.9902,-3.0781,-3.0898,-3.0898,-3.0898,-3.0898,-3.0898,-3.0898,-3.0898,-3.0898,-3.0898,-3.0898,-3.0898,-3.0898,-3.0898,-3.0898,-3.0898,-3.0898,-3.0898,-3.0898,-3.0898,-3.1035,-3.1328,-3.1328,-3.1562,-3.1953,-3.1953,-3.2207,-3.2598,-3.2734,-3.3047,-3.3418,-3.3418,-3.3418,-3.3418,-3.3418,-3.3418,-3.3418,-3.3418,-3.3418,-3.3418,-3.3418,-3.3418,-3.3418,-3.3418,-3.3418,-3.3418,-3.3418,-3.3418,-3.3418,-3.3418,-3.3418,-3.3418,-3.3418,-3.3418,-3.3418,-3.3418,-3.3418,-3.3418,-3.3418,-3.3418,-3.3418,-3.3418,-3.3418,-3.3418,-3.3418,-3.3418,-3.3418,-3.3418,-3.3418,-3.3203,-3.2656,-3.1953,-3.1348,-3.0918,-3.0898,-3.0898,-3.0898,-3.1325,-3.2035,-3.3077,-3.4142,-3.5869,-3.8238,-3.9478,-4.0777,-4.2213,-4.2766,-4.2986,-4.2986,-4.2986,-4.2986,-2.5693,-2.5693,-2.5693,-2.5693,0.0,0.0,-2.5693,-2.5693,-2.581,-2.6309,-2.707,-2.7728,-2.7728,-2.8008,-2.8301,-2.8301,-2.8301,-2.8594,-2.9434,-2.9626,-2.9902,-3.0781,-3.0898,-3.0898,-3.0898,-3.0898,-3.0898,-3.0898,-3.0898,-3.0898,-3.0898,-3.0898,-3.0898,-3.0898,-3.0898,-3.0898,-3.0898,-3.0898,-3.0898,-3.0898,-3.0898,-3.0898,-3.0898,-3.0898,-3.1113,-3.1504,-3.1504,-3.1758,-3.2187,-3.2617,-3.3027,-3.3418,-3.3418,-3.3418,-3.3418,-3.3418,-3.3418,-3.3418,-3.3418,-3.3418,-3.3418,-3.3418,-3.3418,-3.3418,-3.3418,-3.3418,-3.3418,-3.3418,-3.3418,-3.3418,-3.3418,-3.3418,-3.3418,-3.3418,-3.3418,-3.3418,-3.3418,-3.3418,-3.3418,-3.3418,-3.3418,-3.3418,-3.3418,-3.3418,-3.3418,-3.3418,-3.3418,-3.3418,-3.3418,-3.3418,-3.3105,-3.2266,-3.1777,-3.1348,-3.0937,-3.0898,-3.0898,-3.0898,-3.2264,-3.3134,-3.3134,-3.6457,-3.8292,-3.8316,-4.0903,-4.2213,-4.2213,-4.271,-4.2986,-4.2986,-4.2986,-4.2986,-2.5693,-2.5693,-2.5693,-2.5693,0.0,0.0,0.0,-2.6191,0.0,0.0,-2.7552,-2.7806,-2.8047,-2.8203,-2.8301,-2.8301,-2.8301,-2.8476,-2.9043,-2.9375,-2.9785,-3.0332,-3.0703,-3.0898,-3.0898,-3.0898,-3.0898,-3.0898,-3.0898,-3.0898,-3.0898,-3.0898,-3.0898,-3.0898,-3.0898,-3.0898,-3.0898,-3.0898,-3.0898,-3.0898,-3.0898,-3.0898,-3.0898,-3.0898,-3.0957,-3.1074,-3.1074,-3.1309,-3.1738,-3.2168,-3.2598,-3.2988,-3.2988,-3.3164,-3.3418,-3.3418,-3.3418,-3.3418,-3.3418,-3.3418,-3.3418,-3.3418,-3.3418,-3.3418,-3.3418,-3.3418,-3.3418,-3.3418,-3.3418,-3.3418,-3.3418,-3.3418,-3.3418,-3.3418,-3.3418,-3.3418,-3.3418,-3.3418,-3.3418,-3.3418,-3.3418,-3.3418,-3.3418,-3.3418,-3.3418,-3.3418,-3.3418,-3.3418,-3.3418,-3.3418,-3.3203,-3.2676,-3.2226,-3.1797,-3.1367,-3.1055,-3.0898,-3.0898,-3.2551,-3.3848,-3.4648,-3.7029,-3.8996,-4.0384,-4.1618,-4.2414,-4.2791,-4.2886,-4.2986,-4.2986,-4.2986,-4.2986,-2.5693,-2.5693,-2.5693,-2.5693,-2.5693,-2.5849,-2.6504,0.0,0.0,0.0,-2.7845,-2.7988,-2.8242,-2.8301,-2.8301,-2.8301,-2.8301,-2.8437,-2.8867,-2.9141,-2.9473,-2.9902,-3.0195,-3.0371,-3.0371,-3.0371,-3.043,-3.0605,-3.0605,-3.0703,-3.0879,-3.0898,-3.0898,-3.0898,-3.0898,-3.0898,-3.0898,-3.0898,-3.0898,-3.0898,-3.0898,-3.0898,-3.0898,-3.0898,-3.0898,-3.0898,-3.0898,-3.1133,-3.1543,-3.1797,-3.2168,-3.2559,-3.2734,-3.2949,-3.3184,-3.3359,-3.3418,-3.3418,-3.3418,-3.3418,-3.3418,-3.3418,-3.3418,-3.3418,-3.3418,-3.3418,-3.3418,-3.3418,-3.3418,-3.3418,-3.3418,-3.3418,-3.3418,-3.3418,-3.3418,-3.3418,-3.3418,-3.3418,-3.3418,-3.3418,-3.3418,-3.3418,-3.3418,-3.3418,-3.3418,-3.3418,-3.3418,-3.3418,-3.3418,-3.3418,-3.3262,-3.2832,-3.2559,-3.2168,-3.1562,-3.1289,-3.1133,-3.1133,-3.2776,-3.4318,-3.5815,-3.7799,-3.9764,-4.1601,-4.2208,-4.2715,-4.2986,-4.2986,-4.2986,-4.2986,-4.2986,-4.2986,-2.5693,-2.5693,-2.5693,-2.5693,-2.5752,-2.6005,-2.6836,-2.7383,-2.7767,-2.7767,-2.8027,-2.8301,-2.8301,-2.8301,-2.8301,-2.8301,-2.8301,-2.8418,-2.8809,-2.8906,-2.9062,-2.9473,-2.9551,-2.9626,-2.9626,-2.9626,-2.9726,-3.0117,-3.0137,-3.0332,-3.0742,-3.0801,-3.082,-3.082,-3.0859,-3.0898,-3.0898,-3.0898,-3.0898,-3.0898,-3.0898,-3.0898,-3.0898,-3.0898,-3.0898,-3.0898,-3.0898,-3.1113,-3.1465,-3.1465,-3.1719,-3.2148,-3.2539,-3.2695,-3.2793,-3.3203,-3.3359,-3.3379,-3.3418,-3.3418,-3.3418,-3.3418,-3.3418,-3.3418,-3.3418,-3.3418,-3.3418,-3.3418,-3.3418,-3.3418,-3.3418,-3.3418,-3.3418,-3.3418,-3.3418,-3.3418,-3.3418,-3.3418,-3.3418,-3.3418,-3.3418,-3.3418,-3.3418,-3.3418,-3.3418,-3.3418,-3.3418,-3.3418,-3.3418,-3.3418,-3.3281,-3.2891,-3.2812,-3.248,-3.1699,-3.1601,-3.1582,-3.1582,-3.3021,-3.4739,-3.6675,-3.8697,-4.0563,-4.2158,-4.2766,-4.2986,-4.2986,-4.2986,-4.2986,-4.2986,-4.2986,-4.2986,-2.5693,-2.5693,-2.5693,-2.5693,-2.62,-2.6797,-2.6973,-2.7617,-2.8164,-2.8164,-2.8223,-2.8301,-2.8301,-2.8301,-2.8301,-2.8301,-2.8301,-2.832,-2.8418,-2.8711,-2.8945,-2.9043,-2.9355,-2.9626,-2.9626,-2.9626,-2.9665,-2.9687,-2.9707,-2.9746,-2.9844,-3.0156,-3.0351,-3.0351,-3.0703,-3.0898,-3.0898,-3.0898,-3.0898,0.0,-3.0898,-3.0898,-3.0898,-3.0898,-3.0898,-3.0898,-3.0898,-3.0937,-3.1035,-3.1035,-3.1269,-3.166,-3.1758,-3.1992,-3.2363,-3.2773,-3.293,-3.2969,-3.3301,-3.3418,-3.3418,-3.3418,-3.3418,-3.3418,-3.3418,-3.3418,-3.3418,-3.3418,-3.3418,-3.3418,-3.3418,-3.3418,-3.3418,-3.3418,-3.3418,-3.3418,-3.3418,-3.3418,-3.3418,-3.3418,-3.3418,-3.3418,-3.3418,-3.3418,-3.3418,-3.3418,-3.3418,-3.3418,-3.3418,-3.3418,-3.3379,-3.3301,-3.2988,-3.2715,-3.2539,-3.2226,-3.2031,-3.2031,-3.3837,-3.5634,-3.7327,-3.894,-4.0563,-4.2158,-4.2766,-4.2986,-4.2986,-4.2986,-4.2986,-4.2986,-4.2986,-4.2986,-2.5693,-2.5693,0.0,-2.5693,0.0,-2.7012,-2.7012,-2.7676,-2.8301,-2.8301,-2.8301,-2.8301,-2.8301,-2.8301,-2.8301,-2.8301,-2.8301,-2.8301,-2.8301,-2.8476,-2.8613,-2.8613,-2.8828,-2.8965,-2.8965,-2.8965,-2.9043,-2.9238,-2.9258,-2.9355,-2.9607,-2.9785,-2.9902,-2.9902,-3.0332,-3.0566,-3.0566,-3.0781,-3.0898,-3.0898,-3.0898,-3.0898,-3.0898,-3.0898,-3.0898,-3.0898,-3.0898,-3.0898,-3.0898,-3.0898,-3.1016,-3.123,-3.1445,-3.166,-3.1914,-3.2344,-3.25,-3.2559,-3.2969,-3.3125,-3.3144,-3.3359,-3.3418,-3.3418,-3.3418,-3.3418,-3.3418,-3.3418,-3.3418,-3.3418,-3.3418,-3.3418,-3.3418,-3.3418,-3.3418,-3.3418,-3.3418,-3.3418,-3.3418,-3.3418,-3.3418,-3.3418,-3.3418,-3.3418,-3.3418,-3.3418,-3.3418,-3.3418,-3.3418,-3.3418,-3.3418,-3.3418,-3.3223,-3.3008,-3.2812,-3.2598,-3.248,-3.248,-3.4186,-3.5999,-3.7843,-3.9383,-4.0951,-4.2534,-4.2891,-4.2986,-4.2986,-4.2986,-4.2986,-4.2986,-4.2986,-4.2986,-2.543,0.0,-2.5693,-2.5693,-2.6328,0.0,-2.6992,-2.7617,-2.8203,-2.8281,-2.8301,-2.8301,-2.8301,-2.8301,-2.8301,-2.8301,-2.8301,-2.8301,-2.8301,-2.8301,-2.8301,-2.8301,-2.8301,-2.8301,-2.8301,-2.8301,-2.8437,-2.8789,-2.8809,-2.8965,-2.9336,-2.9414,-2.9453,-2.9453,-2.9863,-3.0117,-3.0195,-3.0586,-3.082,-3.0898,-3.0898,-3.0898,-3.0898,-3.0898,-3.0898,-3.0898,-3.0898,-3.0898,-3.0898,-3.0898,-3.0898,-3.0918,-3.1269,-3.1406,-3.1465,-3.1894,-3.2051,-3.2129,-3.2539,-3.2695,-3.2754,-3.3184,-3.332,-3.332,-3.3398,-3.3418,-3.3418,-3.3418,-3.3418,-3.3418,-3.3418,-3.3418,-3.3418,-3.3418,-3.3418,-3.3418,-3.3418,-3.3418,-3.3418,-3.3418,-3.3418,-3.3418,-3.3418,-3.3418,-3.3418,-3.3418,-3.3418,-3.3418,-3.3418,-3.3418,-3.3418,-3.3418,-3.3418,-3.3281,-3.293,-3.3139,-3.3325,-3.3325,-3.5079,-3.6909,-3.8557,-4.0187,-4.1672,-4.2986,-4.2986,-4.2986,-4.2986,-4.2986,-4.2986,-4.2986,-4.2986,-4.2986,-2.4295,0.0,-2.5693,0.0,-2.6113,-2.6562,0.0,0.0,-2.7851,0.0,-2.8301,-2.8301,-2.8301,-2.8301,-2.8301,-2.8301,-2.8301,-2.8301,-2.8301,-2.8301,-2.8301,-2.8301,-2.8301,-2.8301,-2.8301,-2.8301,-2.832,-2.8379,-2.8379,-2.8398,-2.8457,-2.8809,-2.9004,-2.9004,-2.9434,-2.9824,-3.0195,-3.0254,-3.0488,-3.0898,-3.0898,-3.0898,-3.0898,-3.0898,-3.0898,-3.0898,-3.0898,-3.0898,-3.0898,-3.0898,-3.0898,-3.0898,-3.0957,-3.0976,-3.1035,-3.1445,-3.1601,-3.166,-3.2109,-3.2246,-3.2324,-3.2734,-3.2871,-3.2949,-3.332,-3.3418,-3.3418,-3.3418,-3.3418,-3.3418,-3.3418,-3.3418,-3.3418,-3.3418,-3.3418,-3.3418,-3.3418,-3.3418,-3.3418,-3.3418,-3.3418,-3.3418,-3.3418,-3.3418,-3.3418,-3.3418,-3.3418,-3.3418,-3.3418,-3.3418,-3.3418,-3.3418,-3.3418,-3.3398,-3.334,-3.4593,-3.5416,-3.5416,-3.823,-3.9977,-4.0303,-4.1842,-4.2793,-4.2986,-4.2986,-4.2986,-4.2986,-4.2986,-4.2986,-4.2986,-4.2986,-4.2986,-2.4775,-2.5265,-2.5693,0.0,-2.6055,-2.6445,-2.6621,-2.7187,-2.7767,-2.791,-2.8125,-2.8301,-2.8301,-2.8301,-2.8301,-2.8301,-2.8301,-2.8301,-2.8301,-2.8301,-2.8301,-2.8301,-2.8301,-2.8301,-2.8301,-2.8301,-2.8301,-2.8301,-2.8301,-2.8301,-2.8301,-2.8476,-2.8574,-2.8574,-2.8984,-2.9414,-2.9844,-3.0078,-3.043,-3.0898,-3.0898,-3.0898,-3.0898,-3.0898,-3.0898,-3.0898,-3.0898,-3.0898,-3.0898,-3.0898,-3.0898,-3.0898,-3.0898,-3.0898,-3.0918,-3.1094,-3.1172,-3.123,-3.166,-3.1797,-3.1875,-3.2305,-3.2441,-3.2519,-3.2949,-3.3066,-3.3125,-3.3359,-3.3418,-3.3418,-3.3418,-3.3418,-3.3418,-3.3418,-3.3418,-3.3418,-3.3418,-3.3418,-3.3418,-3.3418,-3.3418,-3.3418,-3.3418,-3.3418,-3.3418,-3.3418,-3.3418,-3.3418,-3.3418,-3.3418,-3.3418,-3.3418,-3.3418,-3.3776,-3.4674,-3.5376,-3.6152,-3.7062,-3.9347,-4.0592,-4.0592,-4.215,-4.2986,-4.2986,-4.2986,-4.2986,-4.2986,-4.2986,-4.2986,-4.2986,-4.2986,-4.2986,0.0,0.0,-2.5693,-2.5693,-2.5977,-2.625,0.0,0.0,-2.7454,0.0,-2.791,-2.8164,-2.8281,-2.8301,-2.8301,-2.8301,-2.8301,-2.8301,-2.8301,-2.8301,-2.8301,-2.8301,-2.8301,-2.8301,-2.8301,-2.8301,-2.8301,-2.8301,-2.8301,-2.8301,-2.8301,-2.8301,-2.8301,-2.8301,-2.8594,-2.8965,-2.9394,-2.9941,-3.043,-3.0898,-3.0898,-3.0898,-3.0898,-3.0898,-3.0898,-3.0898,-3.0898,-3.0898,-3.0898,-3.0898,-3.0898,-3.0898,-3.0898,-3.0898,-3.0898,-3.0898,-3.0898,-3.0937,-3.125,-3.1367,-3.1426,-3.1855,-3.2012,-3.209,-3.25,-3.2637,-3.2695,-3.3008,-3.3105,-3.3105,-3.3105,-3.3184,-3.3262,-3.3262,-3.334,-3.3418,-3.3418,-3.3418,-3.3418,-3.3418,-3.3418,-3.3418,-3.3418,-3.3418,-3.3418,-3.3418,-3.3418,-3.3418,-3.3418,-3.3418,-3.3544,-3.3965,-3.4027,-3.4674,-3.6295,-3.676,-3.7544,-3.8757,-4.0303,-4.1191,-4.1191,-4.2375,-4.2986,-4.2986,-4.2986,-4.2986,-4.2986,-4.2986,-4.2986,-4.2986,-4.2986,-4.2986,0.0,-2.5693,0.0,-2.5693,-2.5713,-2.583,0.0,0.0,-2.668,-2.7552,-2.7728,-2.7865,-2.8223,-2.8301,-2.8301,-2.8301,-2.8301,-2.8301,-2.8301,-2.8301,-2.8301,-2.8301,-2.8301,-2.8301,-2.8301,-2.8301,-2.8301,-2.8301,-2.8301,-2.8301,-2.8301,-2.8301,-2.8301,-2.8301,-2.832,-2.8535,-2.8945,-2.9785,-3.043,-3.0898,-3.0898,-3.0898,-3.0898,-3.0898,-3.0898,-3.0898,-3.0898,-3.0898,-3.0898,-3.0898,-3.0898,-3.0898,-3.0898,-3.0898,-3.0898,-3.0898,-3.0898,-3.0898,-3.0918,-3.0918,-3.0996,-3.1406,-3.1562,-3.1621,-3.207,-3.2207,-3.2268,-3.2287,-3.2226,-3.2226,-3.2226,-3.2519,-3.2832,-3.2832,-3.3125,-3.3418,-3.3418,-3.3418,-3.3418,-3.3418,-3.3418,-3.3418,-3.3418,-3.3418,-3.3418,-3.3418,-3.3418,-3.3418,-3.3418,-3.3418,-3.3965,-3.5499,-3.5683,-3.6356,-3.7925,-3.9464,-4.0419,-4.0476,-4.1955,-4.2849,-4.2849,-4.2986,-4.2986,-4.2986,-4.2986,-4.2986,-4.2986,-4.2986,-4.2986,-4.2986,-4.2986,-4.2986,0.0,0.0,0.0,-2.5693,-2.5693,-2.5732,-2.5937,-2.6191,-2.6484,-2.6777,-2.7051,-2.7383,-2.7812,-2.8105,-2.8301,-2.8301,-2.8301,-2.8301,-2.8301,-2.8301,-2.8301,-2.8301,-2.8301,-2.8301,-2.8301,-2.8301,-2.8301,-2.8301,-2.8301,-2.8301,-2.8301,-2.8301,-2.8301,-2.8301,-2.8301,-2.8496,-2.8906,-2.9766,-3.0273,-3.0449,-3.0742,-3.0898,-3.0898,-3.0898,-3.0898,-3.0898,-3.0898,-3.0898,-3.0898,-3.0898,-3.0898,-3.0898,-3.0898,-3.0898,-3.0898,-3.0898,-3.0898,-3.0898,-3.0898,-3.0898,-3.0918,-3.1074,-3.1113,-3.1191,-3.1621,-3.1758,-3.1816,-3.209,-3.2229,-3.2229,-3.2229,-3.248,-3.2871,-3.3125,-3.332,-3.3418,-3.3418,-3.3418,-3.3418,-3.3418,-3.3418,-3.3418,-3.3418,-3.3418,-3.3418,-3.3418,-3.3418,-3.3418,-3.3418,-3.432,-3.515,-3.5745,-3.6699,-3.7963,-3.9581,-4.0303,-4.1019,-4.2093,-4.2681,-4.2986,-4.2986,-4.2986,-4.2986,-4.2986,-4.2986,-4.2986,-4.2986,-4.2986,-4.2986,-4.2986,-4.2986,-4.2986,-2.5479,0.0,0.0,0.0,-2.5693,-2.5693,-2.5693,-2.5957,-2.6211,-2.6367,-2.6602,-2.6934,-2.7363,-2.7676,-2.7949,-2.8242,-2.8301,-2.8301,-2.8301,-2.8301,-2.8301,-2.8301,-2.8301,-2.8301,-2.8301,-2.8301,-2.8301,-2.8301,-2.8301,0.0,-2.8301,-2.8301,-2.8301,-2.8301,-2.8301,-2.8496,-2.8906,-2.9629,-3.0059,-3.0195,-3.0664,-3.0898,-3.0898,-3.0898,-3.0898,-3.0898,-3.0898,-3.0898,-3.0898,-3.0898,-3.0898,-3.0898,-3.0898,-3.0898,-3.0898,-3.0898,-3.0898,-3.0898,-3.0898,-3.0898,-3.0898,-3.0898,-3.0898,-3.0937,-3.123,-3.1309,-3.1367,-3.166,-3.1738,-3.1777,-3.1914,-3.2363,-3.291,-3.332,-3.3418,-3.3418,-3.3418,-3.3418,-3.3418,-3.3418,-3.3418,-3.3418,-3.3418,-3.3418,-3.3418,-3.3418,-3.3418,-3.3418,-3.3418,-3.4778,-3.599,-3.6539,-3.8022,-3.9639,-4.1248,-4.1419,-4.1842,-4.2905,-4.2986,-4.2986,-4.2986,-4.2986,-4.2986,-4.2986,-4.2986,-4.2986,-4.2986,-4.2986,-4.2986,-4.2986,-4.2986,-4.2986,0.0,0.0,0.0,0.0,-2.5693,-2.5693,-2.5693,-2.5693,-2.581,-2.6289,-2.6367,-2.6504,-2.6914,-2.6992,-2.7266,-2.8125,-2.8262,-2.8281,-2.8301,-2.8301,-2.8301,-2.8301,-2.8301,-2.8301,-2.8301,-2.8301,-2.8301,-2.8301,-2.8301,-2.8301,-2.8301,-2.8301,-2.8301,-2.8301,-2.8301,-2.8496,-2.8906,-2.9336,-2.9766,-3.0176,-3.0644,-3.0879,-3.0898,-3.0898,-3.0898,-3.0898,-3.0898,-3.0898,-3.0898,-3.0898,-3.0898,-3.0898,-3.0898,-3.0898,-3.0898,-3.0898,-3.0898,-3.0898,-3.0898,-3.0898,-3.0898,-3.0898,-3.0898,-3.0898,-3.0898,-3.0898,-3.0898,-3.0898,-3.0898,-3.0996,-3.1426,-3.2168,-3.291,-3.332,-3.3418,-3.3418,-3.3418,-3.3418,-3.3418,-3.3418,-3.3418,-3.3418,-3.3418,-3.3418,-3.3418,-3.3418,-3.3418,-3.3418,-3.3481,-3.486,-3.6478,-3.8104,-3.9698,-4.1305,-4.2849,-4.2986,-4.2986,-4.2986,-4.2986,-4.2986,-4.2986,-4.2986,-4.2986,-4.2986,-4.2986,-4.2986,-4.2986,-4.2986,-4.2986,-4.2986,-4.2986,-4.2986,-2.5693,0.0,0.0,0.0,0.0,0.0,-2.5693,-2.5693,-2.5732,-2.5898,-2.5869,-2.6055,-2.6484,-2.6562,-2.6738,-2.7285,-2.7637,-2.7949,-2.8242,-2.8301,-2.8301,-2.8301,-2.8301,-2.8301,-2.8301,-2.8301,-2.8301,0.0,-2.8301,-2.8301,-2.8301,-2.8301,-2.8301,-2.8301,-2.8301,-2.834,-2.8457,-2.8887,-2.9316,-2.9746,-3.0176,-3.0566,-3.0898,-3.0898,-3.0898,-3.0898,-3.0898,-3.0898,-3.0898,-3.0898,-3.0898,-3.0898,-3.0898,-3.0898,-3.0898,-3.0898,-3.0898,-3.0898,-3.0898,-3.0898,-3.0898,-3.0898,-3.0898,-3.0898,-3.0898,-3.0898,-3.0898,-3.0898,-3.0898,-3.1055,-3.1797,-3.2383,-3.291,-3.332,-3.3418,-3.3418,-3.3418,-3.3418,-3.3418,-3.3418,-3.3418,-3.3418,-3.3418,-3.3418,-3.3418,-3.3418,-3.3418,-3.3839,-3.4964,-3.6539,-3.8141,-3.9756,-4.1362,-4.2488,-4.2986,-4.2986,-4.2986,-4.2986,-4.2986,-4.2986,-4.2986,-4.2986,-4.2986,-4.2986,-4.2986,-4.2986,-4.2986,-4.2986,-4.2986,-4.2986,-4.2986,-4.2986,0.0,0.0,0.0,0.0,0.0,0.0,-2.5693,-2.5693,-2.5693,-2.5693,-2.5693,-2.5771,-2.6074,-2.6113,-2.625,-2.668,-2.6973,-2.7285,-2.7695,-2.7754,-2.7832,-2.8008,-2.8027,-2.8105,-2.8281,-2.8301,-2.8301,-2.8301,-2.8301,-2.8301,-2.8301,-2.8301,-2.8301,-2.8301,-2.8301,-2.8301,-2.8301,-2.8711,-2.9141,-2.957,-3.0,-3.0449,-3.0898,-3.0898,-3.0898,-3.0898,-3.0898,-3.0898,-3.0898,-3.0898,-3.0898,-3.0898,-3.0898,-3.0898,-3.0898,-3.0898,-3.0898,-3.0898,-3.0898,-3.0898,-3.0898,-3.0898,-3.0898,-3.0898,-3.0898,-3.0898,-3.0898,-3.0898,-3.1152,-3.1543,-3.2051,-3.2617,-3.3125,-3.3359,-3.3418,-3.3418,-3.3418,-3.3418,-3.3418,-3.3418,-3.3418,-3.3418,-3.3418,-3.3418,-3.3418,-3.3418,-3.3418,-3.3965,-3.556,-3.7183,-3.8817,-4.0419,-4.2012,-4.2986,-4.2986,-4.2986,-4.2986,-4.2986,-4.2986,-4.2986,-4.2986,-4.2986,-4.2986,-4.2986,-4.2986,-4.2986,-4.2986,-4.2986,-4.2986,-4.2986,-4.2986,-4.2986,0.0,0.0,0.0,0.0,-2.5693,0.0,-2.5693,-2.5693,-2.5693,-2.5693,-2.5693,-2.5693,-2.5693,-2.5693,-2.5859,-2.625,-2.6309,-2.6484,-2.6953,-2.7012,-2.7148,-2.7539,-2.7598,-2.7734,-2.8105,-2.8203,-2.8223,-2.8223,-2.8262,-2.8301,-2.8301,-2.8301,-2.8301,-2.8301,-2.8301,-2.8301,-2.8301,-2.8652,-2.9101,-2.957,-2.9941,-3.0391,-3.0898,-3.0898,-3.0898,-3.0898,-3.0898,-3.0898,-3.0898,-3.0898,-3.0898,-3.0898,-3.0898,-3.0898,-3.0898,-3.0898,-3.0898,-3.0898,-3.0898,-3.0898,-3.0898,-3.0898,-3.0898,-3.0898,-3.0898,-3.0898,-3.0898,-3.0898,-3.1504,-3.2229,-3.2229,-3.2793,-3.3418,-3.3418,-3.3418,-3.3418,-3.3418,-3.3418,-3.3418,-3.3418,-3.3418,-3.3418,-3.3418,-3.3418,-3.3418,-3.3418,-3.3418,-3.4027,-3.5867,-3.7325,-3.8876,-4.065,-4.215,-4.2986,-4.2986,-4.2986,-4.2986,-4.2986,-4.2986,-4.2986,-4.2986,-4.2986,-4.2986,-4.2986,-4.2986,-4.2986,-4.2986,-4.2986,-4.2986,-4.2986,-4.2986,-4.2986,0.0,0.0,0.0,0.0,-2.5693,0.0,-2.5693,-2.5693,-2.5693,-2.5693,-2.5693,-2.5693,-2.5693,-2.5693,-2.5713,-2.581,-2.5859,-2.6133,-2.6914,-2.7012,-2.7051,-2.7129,-2.7148,-2.7168,-2.7266,-2.7578,-2.7845,-2.7845,-2.8105,-2.8301,-2.8301,-2.8301,-2.8301,-2.8301,-2.8301,-2.8301,-2.8301,-2.8379,-2.8809,-2.9626,-2.9648,-3.0117,-3.0898,-3.0898,-3.0898,-3.0898,-3.0898,-3.0898,-3.0898,-3.0898,-3.0898,-3.0898,-3.0898,-3.0898,-3.0898,-3.0898,-3.0898,-3.0898,-3.0898,-3.0898,-3.0898,-3.0898,-3.0898,-3.0898,-3.0898,-3.0898,-3.0898,-3.0898,-3.1504,-3.2229,-3.2229,-3.2793,-3.3418,-3.3418,-3.3418,-3.3418,-3.3418,-3.3418,-3.3418,-3.3418,-3.3418,-3.3418,-3.3418,-3.3418,-3.3418,-3.3418,-3.3418,-3.4445,-3.7385,-3.7985,-3.9288,-4.2206,-4.2793,-4.2986,-4.2986,-4.2986,-4.2986,-4.2986,-4.2986,-4.2986,-4.2986,-4.2986,-4.2986,-4.2986,-4.2986,-4.2986,-4.2986,-4.2986,-4.2986,-4.2986,-4.2986,-4.2986,-2.451,0.0,-2.5693,-2.5693,-2.5693,0.0,0.0,-2.5693,-2.5693,-2.5693,-2.5693,-2.5693,-2.5693,-2.5693,-2.5693,-2.5693,-2.5693,-2.583,-2.6259,-2.6317,-2.6465,-2.668,-2.6699,-2.6777,-2.6992,-2.7207,-2.7422,-2.7708,-2.7904,-2.8066,-2.8281,-2.8301,-2.8301,-2.8301,-2.8301,-2.8301,-2.8301,-2.8301,-2.873,-2.9626,-2.9626,-3.0039,-3.0898,-3.0898,-3.0898,-3.0898,-3.0898,-3.0898,-3.0898,-3.0898,-3.0898,-3.0898,-3.0898,-3.0898,-3.0898,-3.0898,-3.0898,-3.0898,-3.0898,-3.0898,-3.0898,-3.0898,-3.0898,-3.0898,-3.0898,-3.0898,-3.0898,-3.0898,-3.1348,-3.1836,-3.1836,-3.248,-3.3105,-3.3105,-3.3262,-3.3418,-3.3418,-3.3418,-3.3418,-3.3418,-3.3418,-3.3418,-3.3418,-3.3418,-3.3418,-3.3418,-3.3418,-3.457,-3.7805,-3.8223,-3.9405,-4.2681,-4.2986,-4.2986,-4.2986,-4.2986,-4.2986,-4.2986,-4.2986,-4.2986,-4.2986,-4.2986,-4.2986,-4.2986,-4.2986,-4.2986,-4.2986,-4.2986,-4.2986,-4.2986,-4.2986,-4.2986,-2.3633,-2.4658,-2.5693,-2.5693,-2.5693,-2.5693,0.0,0.0,0.0,-2.5693,0.0,0.0,0.0,0.0,0.0,0.0,0.0,0.0,0.0,-2.5635,0.0,-2.623,-2.6269,-2.6387,-2.6738,-2.6836,-2.707,-2.75,-2.7669,-2.7812,-2.8164,-2.8242,-2.8301,-2.8301,-2.8301,-2.8301,-2.8301,-2.8301,-2.873,-2.9626,-2.9626,-3.0039,-3.0898,-3.0898,-3.0898,-3.0898,-3.0898,-3.0898,-3.0898,-3.0898,-3.0898,-3.0898,-3.0898,-3.0898,-3.0898,-3.0898,-3.0898,-3.0898,-3.0898,-3.0898,-3.0898,-3.0898,-3.0898,-3.0898,-3.0898,-3.0898,-3.0898,-3.0898,-3.1191,-3.1523,-3.1523,-3.209,-3.2695,-3.2773,-3.3047,-3.332,-3.3398,-3.3418,-3.3418,-3.3418,-3.3418,-3.3418,-3.3418,-3.3418,-3.3418,-3.3418,-3.3418,-3.4445,-3.7385,-3.7746,-3.8994,-4.2206,-4.2569,-4.2681,-4.2986,-4.2986,-4.2986,-4.2986,-4.2986,-4.2986,-4.2986,-4.2986,-4.2986,-4.2986,-4.2986,-4.2986,-4.2986,-4.2986,-4.2986,-4.2986,-4.2986,-4.2986,-2.3384,-2.4658,-2.5693,-2.5693,-2.5693,-2.5693,-2.5693,0.0,-2.5693,-2.5693,0.0,-2.5693,0.0,0.0,0.0,0.0,0.0,0.0,-2.5195,-2.5488,-2.5713,-2.5752,-2.5752,-2.5791,-2.583,-2.623,-2.6641,-2.7051,-2.7441,-2.7748,-2.7787,-2.8086,-2.8301,-2.8301,-2.8301,-2.8301,-2.8301,-2.8301,-2.873,-2.9626,-2.9626,-3.0039,-3.0898,-3.0898,-3.0898,-3.0898,-3.0898,-3.0898,-3.0898,-3.0898,-3.0898,-3.0898,-3.0898,-3.0898,-3.0898,-3.0898,-3.0898,-3.0898,-3.0898,-3.0898,-3.0898,-3.0898,-3.0898,-3.0898,-3.0898,-3.0898,-3.0898,-3.0898,-3.1191,-3.1523,-3.1523,-3.1875,-3.2344,-3.2715,-3.2832,-3.2969,-3.334,-3.3418,-3.3418,-3.3418,-3.3418,-3.3418,-3.3418,-3.3418,-3.3418,-3.3418,-3.3418,-3.407,-3.5867,-3.6051,-3.7303,-4.0534,-4.088,-4.1419,-4.2849,-4.2986,-4.2986,-4.2986,-4.2986,-4.2986,-4.2986,-4.2986,-4.2986,-4.2986,-4.2986,-4.2986,-4.2986,-4.2986,-4.2986,-4.2986,-4.2986,-4.2986,-2.3335,-2.4097,-2.4707,-2.5479,-2.5118,-2.4756,-2.5528,0.0,-2.5693,-2.5693,0.0,0.0,0.0,0.0,0.0,0.0,-2.5557,0.0,0.0,0.0,-2.5693,0.0,0.0,0.0,-2.5693,0.0,0.0,0.0,-2.6816,-2.72,-2.7689,-2.7885,-2.8047,-2.8281,-2.8301,-2.8301,-2.8301,-2.8301,-2.8594,-2.9199,-2.9453,-2.9883,-3.0488,-3.0762,-3.0898,-3.0898,-3.0898,-3.0898,-3.0898,-3.0898,-3.0898,-3.0898,-3.0898,-3.0898,-3.0898,-3.0898,-3.0898,-3.0898,-3.0898,-3.0898,-3.0898,-3.0898,-3.0898,-3.0898,-3.0898,-3.0898,-3.0898,-3.0898,-3.1016,-3.1152,-3.1152,-3.1465,-3.1836,-3.2012,-3.2441,-3.2851,-3.3027,-3.3242,-3.3418,-3.3418,-3.3418,-3.3418,-3.3418,-3.3418,-3.3418,-3.3418,-3.3418,-3.3965,-3.556,-3.5806,-3.7062,-4.0245,-4.0592,-4.1248,-4.2849,-4.2986,-4.2986,-4.2986,-4.2986,-4.2986,-4.2986,-4.2986,-4.2986,-4.2986,-4.2986,-4.2986,-4.2986,-4.2986,-4.2986,-4.2986,-4.2986,-4.2986,-2.2908,0.0,0.0,0.0,0.0,0.0,0.0,0.0,0.0,0.0,0.0,0.0,0.0,0.0,0.0,0.0,0.0,-2.5635,0.0,-2.5615,0.0,0.0,0.0,0.0,0.0,0.0,-2.581,-2.6191,-2.6328,-2.6719,-2.7441,-2.765,-2.7851,-2.8281,-2.8301,-2.8301,-2.8301,-2.8301,-2.8496,-2.8926,-2.9355,-2.9785,-3.0215,-3.0684,-3.0898,-3.0898,-3.0898,-3.0898,-3.0898,-3.0898,-3.0898,-3.0898,-3.0898,-3.0898,-3.0898,-3.0898,-3.0898,-3.0898,-3.0898,-3.0898,-3.0898,-3.0898,-3.0898,-3.0898,-3.0898,-3.0898,-3.0898,-3.0898,-3.0898,-3.0898,-3.0898,-3.1113,-3.1367,-3.1484,-3.209,-3.2656,-3.2773,-3.3125,-3.3418,-3.3418,-3.3418,-3.3418,-3.3418,-3.3418,-3.3418,-3.3418,-3.3418,-3.3839,-3.4964,-3.515,-3.6356,-3.9581,-3.9931,-4.0765,-4.2849,-4.2986,-4.2986,-4.2986,-4.2986,-4.2986,-4.2986,-4.2986,-4.2986,-4.2986,-4.2986,-4.2986,-4.2986,-4.2986,-4.2986,-4.2986,-4.2986,-4.2986,0.0,0.0,0.0,-2.5429,0.0,0.0,0.0,0.0,-2.5693,0.0,0.0,0.0,0.0,0.0,0.0,0.0,0.0,0.0,0.0,0.0,-2.5693,0.0,0.0,0.0,0.0,-2.5693,-2.5693,-2.5713,-2.6152,-2.6582,-2.7012,-2.7441,-2.7851,-2.8281,-2.8301,-2.8301,-2.8301,-2.8301,-2.8496,-2.8926,-2.9355,-2.9785,-3.0215,-3.0684,-3.0898,-3.0898,-3.0898,-3.0898,-3.0898,-3.0898,-3.0898,-3.0898,-3.0898,-3.0898,-3.0898,-3.0898,-3.0898,-3.0898,-3.0898,-3.0898,-3.0898,-3.0898,-3.0898,-3.0898,-3.0898,-3.0898,-3.0898,-3.0898,-3.0898,-3.0898,-3.0898,-3.0898,-3.1016,-3.1426,-3.1855,-3.2305,-3.2715,-3.3125,-3.3418,-3.3418,-3.3418,-3.3418,-3.3418,-3.3418,-3.3418,-3.3418,-3.3418,-3.3418,-3.3481,-3.3481,-3.4674,-3.7925,-3.8283,-3.9581,-4.2737,-4.2986,-4.2986,-4.2986,-4.2986,-4.2986,-4.2986,-4.2986,-4.2986,-4.2986,-4.2986,-4.2986,-4.2986,-4.2986,-4.2986,-4.2986,-4.2986,-4.2986,0.0,0.0,-2.2205,-2.417,0.0,0.0,0.0,0.0,0.0,0.0,0.0,0.0,0.0,0.0,0.0,0.0,0.0,0.0,0.0,0.0,-2.5693,-2.5693,-2.5693,-2.5693,0.0,0.0,0.0,-2.5693,-2.583,-2.6152,-2.6582,-2.7012,-2.7441,-2.7871,-2.8144,-2.8301,-2.8301,-2.8301,-2.8359,-2.8516,-2.9219,-2.9648,-2.9805,-3.0547,-3.0898,-3.0898,-3.0898,-3.0898,-3.0898,-3.0898,-3.0898,-3.0898,-3.0898,-3.0898,-3.0898,-3.0898,-3.0898,-3.0898,-3.0898,-3.0898,-3.0898,-3.0898,-3.0898,-3.0898,-3.0898,-3.0898,-3.0898,-3.0898,-3.0898,-3.0898,-3.0898,-3.0898,-3.0918,-3.1074,-3.1641,-3.2268,-3.2344,-3.293,-3.3418,-3.3418,-3.3418,-3.3418,-3.3418,-3.3418,-3.3418,-3.3418,-3.3418,-3.3418,-3.3418,-3.432,-3.5806,-3.7985,-3.917,-4.065,-4.2793,-4.2986,-4.2986,-4.2986,-4.2986,-4.2986,-4.2986,-4.2986,-4.2986,-4.2986,-4.2986,-4.2986,-4.2986,-4.2986,-4.2986,-4.2986,-4.2986,-4.2986,-2.1628,-2.1324,0.0,-2.3062,-2.3289,0.0,-2.4808,0.0,-2.5869,0.0,0.0,0.0,0.0,0.0,0.0,0.0,0.0,0.0,0.0,-2.5693,-2.5693,-2.5693,-2.5693,-2.5693,0.0,-2.5693,-2.5693,-2.5693,-2.5693,-2.5869,0.0,0.0,-2.7226,-2.7708,-2.8066,-2.8301,-2.8301,-2.8301,-2.8301,-2.8301,-2.916,-2.9626,-2.9646,-3.0488,-3.0898,-3.0898,-3.0898,-3.0898,-3.0898,-3.0898,-3.0898,-3.0898,-3.0898,-3.0898,-3.0898,-3.0898,-3.0898,-3.0898,-3.0898,-3.0898,-3.0898,-3.0898,-3.0898,-3.0898,-3.0898,-3.0898,-3.0898,-3.0898,-3.0898,-3.0898,-3.0898,-3.0898,-3.0898,-3.0898,-3.1543,-3.2229,-3.2229,-3.2832,-3.3418,-3.3418,-3.3418,-3.3418,-3.3418,-3.3418,-3.3418,-3.3418,-3.3418,-3.3607,-3.4195,-3.515,-3.6639,-3.8817,-3.9989,-4.1248,-4.2849,-4.2986,-4.2986,-4.2986,-4.2986,-4.2986,-4.2986,-4.2986,-4.2986,-4.2986,-4.2986,-4.2986,-4.2986,-4.2986,-4.2986,-4.2986,-4.2986,-4.2986]}]]